DC9PA-13 Weather Reports


time (UTC)temp
F
wind
direction
speed
knots
gust
knots
rain 1hr
in
rain 24hr
in
rain mn
in
humidity
%
barometer
mb
20260505174204 64 270 0.0 0.0 0.00 0.00 0.05 77 991.7
20260505174155 64 270 0.0 0.0 0.00 0.00 0.05 78 991.7
20260505174104 64 270 0.0 0.0 0.00 0.00 0.05 78 991.8
20260505174034 64 270 0.0 0.0 0.00 0.00 0.05 77 991.8
20260505174004 64 270 0.0 0.0 0.00 0.00 0.05 78 991.8
20260505173955 64 270 0.0 0.0 0.00 0.00 0.05 77 991.8
20260505173904 64 270 0.0 0.0 0.00 0.00 0.05 76 991.8
20260505173834 64 270 0.0 0.0 0.00 0.00 0.05 77 991.8
20260505173804 64 270 0.0 0.0 0.00 0.00 0.05 76 991.8
20260505173734 65 270 0.0 0.0 0.00 0.00 0.05 77 991.8
20260505173704 65 270 0.0 0.0 0.00 0.00 0.05 77 991.8
20260505173634 65 270 1.7 1.7 0.00 0.00 0.05 77 991.8
20260505173604 65 270 1.7 1.7 0.00 0.00 0.05 77 991.7
20260505173534 65 270 0.0 0.0 0.00 0.00 0.05 76 991.7
20260505173504 65 270 0.0 0.0 0.00 0.00 0.05 77 991.7
20260505173455 65 270 0.0 0.0 0.00 0.00 0.05 77 991.7
20260505173404 65 270 1.7 1.7 0.00 0.00 0.05 77 991.7
20260505173334 65 270 0.0 0.0 0.00 0.00 0.05 77 991.7
20260505173304 64 270 0.0 0.0 0.00 0.00 0.05 77 991.7
20260505173255 64 270 0.0 0.0 0.00 0.00 0.05 76 991.7
20260505173204 64 270 0.0 0.0 0.00 0.00 0.05 76 991.7
20260505173134 64 270 0.0 0.0 0.00 0.00 0.05 77 991.7
20260505173104 64 270 0.0 0.0 0.00 0.00 0.05 77 991.8
20260505173055 64 270 0.0 0.0 0.00 0.00 0.05 76 991.8
20260505173005 64 270 0.0 0.0 0.00 0.00 0.05 77 991.8
20260505172933 64 270 0.0 0.0 0.00 0.00 0.05 78 991.8
20260505172904 64 270 1.7 1.7 0.00 0.00 0.05 77 991.8
20260505172834 64 315 0.0 0.0 0.00 0.00 0.05 78 991.8
20260505172804 64 315 1.7 1.7 0.00 0.00 0.05 78 991.8
20260505172734 64 315 0.0 0.0 0.00 0.00 0.05 78 991.8
20260505172704 64 315 0.0 0.0 0.00 0.00 0.05 79 991.8
20260505172634 63 315 0.0 0.0 0.00 0.00 0.05 78 991.8
20260505172604 63 315 0.0 0.0 0.00 0.00 0.05 79 991.6
20260505172534 63 315 0.0 0.0 0.00 0.00 0.05 79 991.6
20260505172504 63 315 0.9 0.9 0.00 0.00 0.05 80 991.6
20260505172434 63 315 0.0 0.0 0.00 0.00 0.05 80 991.6
20260505172425 63 315 0.0 0.0 0.00 0.00 0.05 80 991.6
20260505172334 63 315 0.9 0.9 0.00 0.00 0.05 80 991.6
20260505172306 62 315 0.0 0.0 0.00 0.00 0.05 81 991.6
20260505172234 62 315 0.0 0.0 0.00 0.00 0.05 80 991.6
20260505172204 62 315 0.0 0.0 0.00 0.00 0.05 81 991.6
20260505172134 62 315 1.7 1.7 0.00 0.00 0.05 82 991.6
20260505172104 62 315 0.0 0.0 0.00 0.00 0.05 81 991.6
20260505172034 62 315 3.5 3.5 0.00 0.00 0.05 80 991.6
20260505172004 62 292 0.0 0.0 0.00 0.00 0.05 81 991.6
20260505171934 62 292 0.0 0.0 0.00 0.00 0.05 82 991.6
20260505171904 61 292 0.0 0.0 0.00 0.00 0.05 83 991.6
20260505171834 61 292 0.0 0.0 0.00 0.00 0.05 83 991.6
20260505171804 61 292 0.0 0.0 0.00 0.00 0.05 84 991.6
20260505171733 61 292 0.0 0.0 0.00 0.00 0.05 84 991.6
20260505171704 61 292 0.0 0.0 0.00 0.00 0.05 83 991.6
20260505171634 61 292 0.0 0.0 0.00 0.00 0.05 84 991.6
20260505171604 61 292 0.0 0.0 0.00 0.00 0.05 85 991.5
20260505171534 61 292 0.0 0.0 0.00 0.00 0.05 84 991.5
20260505171504 61 292 0.0 0.0 0.00 0.00 0.05 85 991.5
20260505171434 61 292 0.0 0.0 0.00 0.00 0.05 85 991.5
20260505171404 61 292 0.0 0.0 0.00 0.00 0.05 85 991.5
20260505171334 60 292 0.0 0.0 0.00 0.00 0.05 85 991.5
20260505171304 60 292 0.0 0.0 0.00 0.00 0.05 85 991.5
20260505171233 60 292 0.0 0.0 0.00 0.00 0.05 85 991.5
20260505171204 60 292 0.0 0.0 0.00 0.00 0.05 85 991.5
20260505171134 60 292 0.0 0.0 0.00 0.00 0.05 86 991.5
20260505171104 60 292 0.0 0.0 0.00 0.00 0.05 85 991.6
20260505171034 60 292 0.0 0.0 0.00 0.00 0.05 86 991.6
20260505171004 60 292 0.0 0.0 0.00 0.00 0.05 86 991.6
20260505170934 60 292 0.0 0.0 0.00 0.00 0.05 86 991.6
20260505170904 60 292 0.0 0.0 0.00 0.00 0.05 85 991.6
20260505170833 60 292 0.0 0.0 0.00 0.00 0.05 86 991.6
20260505170803 60 292 0.0 0.0 0.00 0.00 0.05 85 991.6
20260505170734 60 292 0.0 0.0 0.00 0.00 0.05 86 991.6
20260505170704 60 292 0.0 0.0 0.00 0.00 0.05 85 991.6
20260505170633 60 292 0.0 0.0 0.00 0.00 0.05 85 991.6
20260505170604 60 292 1.7 1.7 0.00 0.00 0.05 85 991.5
20260505170533 60 292 0.0 0.0 0.00 0.00 0.05 85 991.5
20260505170504 60 292 0.0 0.0 0.00 0.00 0.05 86 991.5
20260505170434 60 292 0.0 0.0 0.00 0.00 0.05 85 991.5
20260505170425 60 292 0.0 0.0 0.00 0.00 0.05 84 991.5
20260505170334 60 292 1.7 1.7 0.00 0.00 0.05 83 991.5
20260505170304 60 270 1.7 1.7 0.00 0.00 0.05 85 991.5
20260505170233 60 135 0.0 0.0 0.00 0.00 0.05 85 991.5
20260505170204 60 135 1.7 1.7 0.00 0.00 0.05 85 991.5
20260505170133 60 135 0.0 0.0 0.00 0.00 0.05 85 991.5
20260505170104 60 135 0.0 0.0 0.00 0.00 0.05 86 991.6
20260505170033 60 135 0.0 0.0 0.00 0.00 0.05 86 991.6
20260505170005 60 135 0.0 0.0 0.00 0.00 0.05 86 991.6
20260505165934 60 135 0.0 0.0 0.00 0.00 0.05 87 991.6
20260505165924 60 135 0.9 0.9 0.00 0.00 0.05 87 991.6
20260505165855 60 135 0.9 0.9 0.00 0.00 0.05 87 991.6
20260505165825 60 135 0.0 0.0 0.00 0.00 0.05 86 991.6
20260505165734 60 135 0.0 0.0 0.00 0.00 0.05 86 991.6
20260505165704 60 135 0.0 0.0 0.00 0.00 0.05 87 991.6
20260505165634 60 135 1.7 1.7 0.00 0.00 0.05 86 991.6
20260505165625 60 135 0.0 0.0 0.00 0.00 0.05 87 991.8
20260505165534 60 135 0.0 0.0 0.00 0.00 0.05 87 991.8
20260505165504 60 135 0.0 0.0 0.00 0.00 0.05 86 991.8
20260505165434 60 135 0.0 0.0 0.00 0.00 0.05 86 991.8
20260505165404 60 135 0.0 0.0 0.00 0.00 0.05 86 991.8
20260505165334 60 135 0.0 0.0 0.00 0.00 0.05 85 991.8
20260505165306 60 135 0.9 0.9 0.00 0.00 0.05 86 991.8
20260505165234 60 135 0.0 0.0 0.00 0.00 0.05 86 991.8
20260505165204 60 135 0.0 0.0 0.00 0.00 0.05 86 991.8
20260505165134 60 135 0.0 0.0 0.00 0.00 0.05 86 991.8
20260505165125 60 135 0.0 0.0 0.00 0.00 0.05 86 991.7
20260505165034 60 135 0.0 0.0 0.00 0.00 0.05 86 991.7
20260505165004 60 135 0.9 0.9 0.00 0.00 0.05 87 991.7
20260505164933 60 135 0.0 0.0 0.00 0.00 0.05 87 991.7
20260505164925 60 135 0.0 0.0 0.00 0.00 0.05 87 991.7
20260505164834 60 135 0.0 0.0 0.00 0.00 0.05 87 991.7
20260505164803 60 135 0.0 0.0 0.00 0.00 0.05 86 991.7
20260505164734 60 135 0.0 0.0 0.00 0.00 0.05 87 991.7
20260505164724 60 135 0.0 0.0 0.00 0.00 0.05 87 991.7
20260505164634 60 202 0.0 0.0 0.00 0.00 0.05 88 991.7
20260505164604 60 202 0.0 0.0 0.00 0.00 0.05 88 991.6
20260505164534 60 202 0.0 0.0 0.00 0.00 0.05 87 991.6
20260505164504 60 202 0.0 0.0 0.00 0.00 0.05 88 991.6
20260505164434 60 202 0.0 0.0 0.00 0.00 0.05 87 991.6
20260505164404 60 202 0.0 0.0 0.00 0.00 0.05 87 991.6
20260505164333 60 202 0.0 0.0 0.00 0.00 0.05 87 991.6
20260505164304 60 202 0.0 0.0 0.00 0.00 0.05 86 991.6
20260505164255 60 202 0.0 0.0 0.00 0.00 0.05 86 991.6
20260505164225 60 202 0.0 0.0 0.00 0.00 0.05 86 991.6
20260505164134 60 202 2.6 2.6 0.00 0.00 0.05 86 991.6
20260505164103 60 270 0.0 0.0 0.00 0.00 0.05 86 991.8
20260505164033 60 270 0.0 0.0 0.00 0.00 0.05 86 991.8
20260505164004 60 270 0.0 0.0 0.00 0.00 0.05 85 991.8
20260505163955 60 270 2.6 2.6 0.00 0.00 0.05 86 991.8
20260505163904 60 22 0.0 0.0 0.00 0.00 0.05 86 991.8
20260505163834 60 22 2.6 2.6 0.00 0.00 0.05 87 991.8
20260505163803 60 338 1.7 1.7 0.00 0.00 0.05 85 991.8
20260505163734 60 338 1.7 1.7 0.00 0.00 0.05 86 991.8
20260505163704 60 292 1.7 1.7 0.00 0.00 0.05 86 991.8
20260505163634 60 270 0.0 0.0 0.00 0.00 0.05 86 991.8
20260505163625 60 292 0.0 0.0 0.00 0.00 0.05 85 992.0
20260505163534 60 292 1.7 1.7 0.00 0.00 0.05 86 992.0
20260505163504 60 292 0.0 0.0 0.00 0.00 0.05 86 992.0
20260505163433 60 292 0.0 0.0 0.00 0.00 0.05 86 992.0
20260505163404 60 292 1.7 1.7 0.00 0.00 0.05 86 992.0
20260505163334 60 22 1.7 1.7 0.00 0.00 0.05 86 992.0
20260505163304 60 292 1.7 1.7 0.00 0.00 0.05 86 992.0
20260505163233 60 292 0.0 0.0 0.00 0.00 0.05 86 992.0
20260505163203 60 292 1.7 1.7 0.00 0.00 0.05 86 992.0
20260505163134 60 292 0.0 0.0 0.00 0.00 0.05 86 992.0
20260505163104 60 292 1.7 1.7 0.00 0.00 0.05 85 992.1
20260505163033 60 292 2.6 2.6 0.00 0.00 0.05 85 992.1
20260505163003 60 292 1.7 1.7 0.00 0.00 0.05 85 992.1
20260505162933 60 270 1.7 1.7 0.00 0.00 0.05 85 992.1
20260505162903 60 338 1.7 1.7 0.00 0.00 0.05 85 992.1
20260505162834 60 338 1.7 1.7 0.00 0.00 0.05 84 992.1
20260505162804 60 292 0.0 0.0 0.00 0.00 0.05 85 992.1
20260505162755 60 22 2.6 3.5 0.00 0.00 0.05 84 992.1
20260505162704 60 315 1.7 1.7 0.00 0.00 0.05 85 992.1
20260505162633 60 315 1.7 1.7 0.00 0.00 0.05 84 992.1
20260505162604 60 315 1.7 1.7 0.00 0.00 0.05 85 992.3
20260505162555 60 315 0.0 0.0 0.00 0.00 0.05 86 992.3
20260505162504 60 315 0.0 0.0 0.00 0.00 0.05 85 992.3
20260505162433 60 315 0.9 0.9 0.00 0.00 0.05 86 992.3
20260505162404 60 315 1.7 1.7 0.00 0.00 0.05 85 992.3
20260505162334 60 315 0.0 0.0 0.00 0.00 0.05 85 992.3
20260505162306 60 315 1.7 1.7 0.00 0.00 0.05 85 992.3
20260505162234 60 315 1.7 1.7 0.00 0.00 0.05 85 992.3
20260505162204 60 22 0.0 0.0 0.00 0.00 0.05 85 992.3
20260505162134 60 22 0.0 0.0 0.00 0.00 0.05 85 992.3
20260505162104 60 22 1.7 1.7 0.00 0.00 0.05 85 992.4
20260505162033 60 22 0.0 0.0 0.00 0.00 0.05 85 992.4
20260505162025 60 22 0.0 0.0 0.00 0.00 0.05 85 992.4
20260505161934 60 22 0.0 0.0 0.00 0.00 0.05 85 992.4
20260505161904 60 22 0.9 0.9 0.00 0.00 0.05 85 992.4
20260505161854 60 292 0.0 0.0 0.00 0.00 0.05 85 992.4
20260505161804 60 292 0.9 0.9 0.00 0.00 0.05 85 992.4
20260505161734 60 292 1.7 1.7 0.00 0.00 0.05 85 992.4
20260505161703 60 292 0.0 0.0 0.00 0.00 0.05 86 992.4
20260505161633 60 292 0.0 0.0 0.00 0.00 0.05 85 992.4
20260505161604 60 292 0.9 0.9 0.00 0.00 0.05 85 992.5
20260505161533 60 292 1.7 1.7 0.00 0.00 0.05 85 992.5
20260505161434 60 248 1.7 1.7 0.00 0.00 0.05 87 992.5
20260505161404 60 248 0.0 0.0 0.00 0.00 0.05 86 992.5
20260505161334 60 248 1.7 1.7 0.00 0.00 0.05 86 992.5
20260505161305 60 248 0.0 0.0 0.00 0.00 0.05 87 992.5
20260505161233 60 248 0.0 0.0 0.00 0.00 0.05 87 992.5
20260505161204 60 248 0.0 0.0 0.00 0.00 0.05 87 992.5
20260505161133 60 248 0.0 0.0 0.00 0.00 0.05 87 992.5
20260505161104 60 248 1.7 1.7 0.00 0.00 0.05 87 992.5
20260505161034 60 292 0.0 0.0 0.00 0.00 0.05 87 992.5
20260505161003 60 292 0.0 0.0 0.00 0.00 0.05 88 992.5
20260505160934 60 292 0.0 0.0 0.00 0.00 0.05 87 992.5
20260505160904 60 292 1.7 1.7 0.00 0.00 0.05 88 992.5
20260505160833 60 292 0.9 0.9 0.00 0.00 0.05 88 992.5
20260505160804 60 292 0.0 0.0 0.00 0.00 0.05 88 992.5
20260505160754 60 292 0.0 0.0 0.00 0.00 0.05 88 992.5
20260505160704 60 292 1.7 1.7 0.00 0.00 0.05 88 992.5
20260505160634 60 292 0.9 0.9 0.00 0.00 0.05 89 992.5
20260505160625 60 292 1.7 1.7 0.00 0.00 0.05 89 992.6
20260505160533 60 270 0.0 0.0 0.00 0.00 0.05 88 992.6
20260505160503 60 270 1.7 1.7 0.00 0.00 0.05 88 992.6
20260505160434 60 270 3.5 3.5 0.00 0.00 0.05 88 992.6
20260505160403 60 0 1.7 1.7 0.00 0.00 0.05 89 992.6
20260505160334 60 22 1.7 1.7 0.00 0.00 0.05 89 992.6
20260505160326 60 292 0.0 0.0 0.00 0.00 0.05 89 992.6
20260505160233 60 292 0.9 0.9 0.00 0.00 0.05 89 992.6
20260505160204 60 292 1.7 1.7 0.00 0.00 0.05 89 992.6
20260505160134 60 292 1.7 1.7 0.00 0.00 0.05 90 992.6
20260505160105 60 292 0.0 0.0 0.00 0.00 0.05 90 992.7
20260505153333 60 135 1.7 1.7 0.00 0.00 0.03 86 992.7
20260505153303 60 180 1.7 1.7 0.00 0.00 0.03 84 992.7
20260505153235 61 180 7.0 7.0 0.00 0.00 0.03 84 992.7
20260505153204 61 135 3.5 3.5 0.00 0.00 0.03 84 992.7
20260505153133 61 158 7.0 7.8 0.00 0.00 0.03 84 992.7
20260505153124 61 158 4.3 5.2 0.00 0.00 0.03 83 992.3
20260505153034 61 180 5.2 5.2 0.00 0.00 0.03 83 992.3
20260505153003 61 158 4.3 5.2 0.00 0.00 0.02 84 992.3
20260505152934 61 0 1.7 1.7 0.00 0.00 0.02 84 992.3
20260505152925 61 180 1.7 1.7 0.00 0.00 0.02 83 992.3
20260505152856 61 202 2.6 3.5 0.00 0.00 0.02 83 992.3
20260505152825 62 112 1.7 1.7 0.00 0.00 0.02 84 992.3
20260505152734 62 225 2.6 2.6 0.00 0.00 0.02 82 992.3
20260505152703 62 180 2.6 3.5 0.00 0.00 0.02 81 992.3
20260505152633 62 135 1.7 1.7 0.00 0.00 0.02 82 992.3
20260505152604 62 180 1.7 1.7 0.00 0.00 0.02 81 992.1
20260505152533 62 202 4.3 4.3 0.00 0.00 0.02 80 992.1
20260505152503 62 158 1.7 1.7 0.00 0.00 0.02 80 992.1
20260505152433 62 202 2.6 3.5 0.00 0.00 0.02 79 992.1
20260505152403 62 158 3.5 4.3 0.00 0.00 0.02 79 992.1
20260505152333 62 180 4.3 5.2 0.00 0.00 0.02 79 992.1
20260505152305 62 225 1.7 1.7 0.00 0.00 0.02 78 992.1
20260505152233 62 202 7.0 7.8 0.00 0.00 0.00 79 992.1
20260505152203 63 135 3.5 3.5 0.00 0.00 0.00 78 992.1
20260505152133 63 202 2.6 2.6 0.00 0.00 0.00 77 992.1
20260505152103 63 202 4.3 4.3 0.00 0.00 0.00 76 991.8
20260505152054 63 158 1.7 1.7 0.00 0.00 0.00 77 991.8
20260505152003 64 158 1.7 1.7 0.00 0.00 0.00 76 991.8
20260505151933 64 180 2.6 3.5 0.00 0.00 0.00 76 991.8
20260505151903 64 202 3.5 4.3 0.00 0.00 0.00 75 991.8
20260505151833 64 0 1.7 1.7 0.00 0.00 0.00 75 991.8
20260505151825 64 90 2.6 2.6 0.00 0.00 0.00 73 991.8
20260505151754 65 0 3.5 3.5 0.00 0.00 0.00 73 991.8
20260505151724 65 202 7.0 7.0 0.00 0.00 0.00 71 991.8
20260505151634 65 90 2.6 3.5 0.00 0.00 0.00 69 991.8
20260505151603 66 22 5.2 5.2 0.00 0.00 0.00 69 991.6
20260505151554 66 202 4.3 5.2 0.00 0.00 0.00 66 991.6
20260505151503 67 202 3.5 4.3 0.00 0.00 0.00 64 991.6
20260505151454 67 315 4.3 4.3 0.00 0.00 0.00 64 991.6
20260505151403 67 202 2.6 2.6 0.00 0.00 0.00 61 991.6
20260505151333 68 202 4.3 5.2 0.00 0.00 0.00 59 991.6
20260505151303 68 202 4.3 5.2 0.00 0.00 0.00 56 991.6
20260505151233 69 202 6.1 7.0 0.00 0.00 0.00 55 991.6
20260505151203 69 180 6.1 6.1 0.00 0.00 0.00 54 991.6
20260505151133 70 202 4.3 5.2 0.00 0.00 0.00 51 991.6
20260505151103 71 225 3.5 3.5 0.00 0.00 0.00 49 991.2
20260505151033 71 180 2.6 2.6 0.00 0.00 0.00 48 991.2
20260505151003 71 270 1.7 1.7 0.00 0.00 0.00 47 991.2
20260505150933 71 180 1.7 1.7 0.00 0.00 0.00 46 991.2
20260505150903 72 202 0.9 0.9 0.00 0.00 0.00 46 991.2
20260505150833 72 202 2.6 2.6 0.00 0.00 0.00 46 991.2
20260505150803 72 45 1.7 1.7 0.00 0.00 0.00 45 991.2
20260505150733 72 202 2.6 2.6 0.00 0.00 0.00 45 991.2
20260505150703 72 135 1.7 1.7 0.00 0.00 0.00 46 991.2
20260505150633 72 135 1.7 1.7 0.00 0.00 0.00 44 991.2
20260505150603 73 135 3.5 3.5 0.00 0.00 0.00 44 990.9
20260505150533 73 202 1.7 1.7 0.00 0.00 0.00 45 990.9
20260505150524 73 180 2.6 2.6 0.00 0.00 0.00 44 990.9
20260505150433 73 225 1.7 1.7 0.00 0.00 0.00 45 990.9
20260505150403 73 248 1.7 1.7 0.00 0.00 0.00 44 990.9
20260505150333 73 248 1.7 1.7 0.00 0.00 0.00 44 990.9
20260505150303 73 248 2.6 2.6 0.00 0.00 0.00 44 990.9
20260505150233 74 270 0.9 0.9 0.00 0.00 0.00 45 990.9
20260505150203 74 270 1.7 1.7 0.00 0.00 0.00 44 990.9
20260505150133 74 292 1.7 1.7 0.00 0.00 0.00 44 990.9
20260505150124 74 292 0.9 0.9 0.00 0.00 0.00 44 991.0
20260505140633 75 292 0.0 0.0 0.00 0.00 0.00 37 991.0
20260505140603 75 292 0.0 0.0 0.00 0.00 0.00 37 990.8
20260505140534 75 292 1.7 1.7 0.00 0.00 0.00 36 990.8
20260505140503 75 292 1.7 1.7 0.00 0.00 0.00 36 990.8
20260505140433 75 292 0.0 0.0 0.00 0.00 0.00 36 990.8
20260505140403 75 315 1.7 1.7 0.00 0.00 0.00 36 990.8
20260505140333 75 315 1.7 1.7 0.00 0.00 0.00 37 990.8
20260505140303 75 315 0.0 0.0 0.00 0.00 0.00 37 990.8
20260505140233 75 315 1.7 1.7 0.00 0.00 0.00 37 990.8
20260505140203 75 315 0.0 0.0 0.00 0.00 0.00 38 990.8
20260505140133 75 315 1.7 1.7 0.00 0.00 0.00 37 990.8
20260505130303 76 270 0.0 0.0 0.00 0.00 0.00 33 991.3
20260505130233 76 270 0.0 0.0 0.00 0.00 0.00 34 991.3
20260505130203 76 270 0.0 0.0 0.00 0.00 0.00 35 991.3
20260505130133 76 270 0.9 0.9 0.00 0.00 0.00 37 991.3
20260505130103 76 270 1.7 1.7 0.00 0.00 0.00 35 991.3
20260505125033 77 45 1.7 1.7 0.00 0.00 0.00 33 991.3
20260505125002 77 45 1.7 1.7 0.00 0.00 0.00 34 991.3
20260505124932 77 45 1.7 1.7 0.00 0.00 0.00 34 991.3
20260505124902 77 0 1.7 1.7 0.00 0.00 0.00 34 991.3
20260505124832 77 338 1.7 1.7 0.00 0.00 0.00 34 991.3
20260505124802 77 22 1.7 1.7 0.00 0.00 0.00 34 991.3
20260505124733 77 22 1.7 1.7 0.00 0.00 0.00 33 991.3
20260505124703 76 22 1.7 1.7 0.00 0.00 0.00 33 991.3
20260505124632 76 45 0.0 0.0 0.00 0.00 0.00 33 991.3
20260505124602 76 45 0.0 0.0 0.00 0.00 0.00 34 991.5
20260505124532 76 45 0.9 0.9 0.00 0.00 0.00 34 991.5
20260505124503 76 45 1.7 1.7 0.00 0.00 0.00 35 991.5
20260505124432 76 45 0.0 0.0 0.00 0.00 0.00 35 991.5
20260505124402 76 45 0.0 0.0 0.00 0.00 0.00 36 991.5
20260505124353 76 45 1.7 1.7 0.00 0.00 0.00 34 991.5
20260505124303 76 45 2.6 3.5 0.00 0.00 0.00 35 991.5
20260505124254 76 292 0.9 0.9 0.00 0.00 0.00 35 991.5
20260505124202 76 292 2.6 3.5 0.00 0.00 0.00 34 991.5
20260505124132 77 270 2.6 3.5 0.00 0.00 0.00 35 991.5
20260505124102 77 292 2.6 3.5 0.00 0.00 0.00 34 991.4
20260505124032 77 315 3.5 3.5 0.00 0.00 0.00 33 991.4
20260505124002 77 0 3.5 4.3 0.00 0.00 0.00 33 991.4
20260505123932 77 45 1.7 1.7 0.00 0.00 0.00 34 991.4
20260505123902 77 292 1.7 1.7 0.00 0.00 0.00 35 991.4
20260505123832 77 292 2.6 2.6 0.00 0.00 0.00 35 991.4
20260505123802 77 292 1.7 1.7 0.00 0.00 0.00 36 991.4
20260505123733 77 292 2.6 3.5 0.00 0.00 0.00 36 991.4
20260505123703 77 292 1.7 1.7 0.00 0.00 0.00 36 991.4
20260505123633 77 292 0.0 0.0 0.00 0.00 0.00 36 991.4
20260505123623 77 292 1.7 1.7 0.00 0.00 0.00 35 991.5
20260505123532 77 292 1.7 1.7 0.00 0.00 0.00 35 991.5
20260505123503 77 292 1.7 1.7 0.00 0.00 0.00 35 991.5
20260505123432 77 292 0.9 0.9 0.00 0.00 0.00 35 991.5
20260505123402 77 292 1.7 1.7 0.00 0.00 0.00 37 991.5
20260505123333 77 292 1.7 1.7 0.00 0.00 0.00 37 991.5
20260505123302 77 292 3.5 3.5 0.00 0.00 0.00 34 991.5
20260505123233 78 45 2.6 2.6 0.00 0.00 0.00 36 991.5
20260505123203 78 292 1.7 1.7 0.00 0.00 0.00 35 991.5
20260505123133 78 292 1.7 1.7 0.00 0.00 0.00 34 991.5
20260505123103 79 292 1.7 1.7 0.00 0.00 0.00 34 991.6
20260505123032 78 292 0.0 0.0 0.00 0.00 0.00 33 991.6
20260505123003 78 292 0.0 0.0 0.00 0.00 0.00 33 991.6
20260505122932 78 292 0.9 0.9 0.00 0.00 0.00 34 991.6
20260505122903 78 292 1.7 1.7 0.00 0.00 0.00 34 991.6
20260505122833 78 292 1.7 1.7 0.00 0.00 0.00 33 991.6
20260505122803 78 292 1.7 1.7 0.00 0.00 0.00 33 991.6
20260505122733 78 292 0.0 0.0 0.00 0.00 0.00 33 991.6
20260505122703 78 292 0.0 0.0 0.00 0.00 0.00 35 991.6
20260505122632 77 292 0.0 0.0 0.00 0.00 0.00 34 991.6
20260505122624 77 292 0.0 0.0 0.00 0.00 0.00 34 991.7
20260505122532 77 292 0.0 0.0 0.00 0.00 0.00 36 991.7
20260505122523 77 292 0.0 0.0 0.00 0.00 0.00 35 991.7
20260505122433 77 292 0.0 0.0 0.00 0.00 0.00 35 991.7
20260505122403 77 292 1.7 1.7 0.00 0.00 0.00 35 991.7
20260505122332 77 292 1.7 1.7 0.00 0.00 0.00 36 991.7
20260505122305 76 45 1.7 1.7 0.00 0.00 0.00 36 991.7
20260505122232 76 22 0.9 0.9 0.00 0.00 0.00 38 991.7
20260505122202 76 22 1.7 1.7 0.00 0.00 0.00 37 991.7
20260505122132 76 292 1.7 1.7 0.00 0.00 0.00 36 991.7
20260505122102 76 292 1.7 1.7 0.00 0.00 0.00 36 991.8
20260505122032 76 292 1.7 1.7 0.00 0.00 0.00 38 991.8
20260505122003 76 292 1.7 1.7 0.00 0.00 0.00 38 991.8
20260505121932 76 292 2.6 2.6 0.00 0.00 0.00 37 991.8
20260505121902 76 338 0.0 0.0 0.00 0.00 0.00 37 991.8
20260505121832 76 338 1.7 1.7 0.00 0.00 0.00 36 991.8
20260505121802 76 338 3.5 3.5 0.00 0.00 0.00 36 991.8
20260505121733 76 135 1.7 1.7 0.00 0.00 0.00 36 991.8
20260505121702 76 135 1.7 1.7 0.00 0.00 0.00 36 991.8
20260505121632 77 68 3.5 3.5 0.00 0.00 0.00 36 991.8
20260505121603 77 68 2.6 3.5 0.00 0.00 0.00 38 991.5
20260505121530 77 0 1.7 1.7 0.00 0.00 0.00 36 991.5
20260505121432 77 270 1.7 1.7 0.00 0.00 0.00 36 991.5
20260505121402 76 338 4.3 5.2 0.00 0.00 0.00 37 991.5
20260505121332 76 338 1.7 1.7 0.00 0.00 0.00 36 991.5
20260505121304 76 338 3.5 3.5 0.00 0.00 0.00 36 991.5
20260505121232 76 45 2.6 2.6 0.00 0.00 0.00 35 991.5
20260505121202 76 270 1.7 1.7 0.00 0.00 0.00 35 991.5
20260505121132 76 270 1.7 1.7 0.00 0.00 0.00 34 991.5
20260505121102 76 270 0.0 0.0 0.00 0.00 0.00 34 991.8
20260505121032 76 270 0.0 0.0 0.00 0.00 0.00 35 991.8
20260505121023 76 270 0.0 0.0 0.00 0.00 0.00 35 991.8
20260505120933 76 270 2.6 3.5 0.00 0.00 0.00 35 991.8
20260505120902 76 292 1.7 1.7 0.00 0.00 0.00 35 991.8
20260505120832 76 292 2.6 2.6 0.00 0.00 0.00 35 991.8
20260505120824 76 292 1.7 1.7 0.00 0.00 0.00 35 991.8
20260505120733 76 292 1.7 1.7 0.00 0.00 0.00 35 991.8
20260505120703 76 292 0.0 0.0 0.00 0.00 0.00 35 991.8
20260505120632 76 292 1.7 1.7 0.00 0.00 0.00 35 991.8
20260505120603 76 292 1.7 1.7 0.00 0.00 0.00 35 991.8
20260505120533 76 338 0.9 0.9 0.00 0.00 0.00 36 991.8
20260505120503 76 338 0.0 0.0 0.00 0.00 0.00 37 991.8
20260505120432 76 338 1.7 1.7 0.00 0.00 0.00 36 991.8
20260505120402 77 338 2.6 2.6 0.00 0.00 0.00 35 991.8
20260505120332 77 338 2.6 2.6 0.00 0.00 0.00 35 991.8
20260505120303 77 338 5.2 5.2 0.00 0.00 0.00 35 991.8
20260505120232 77 338 2.6 2.6 0.00 0.00 0.00 36 991.8
20260505120202 77 22 1.7 1.7 0.00 0.00 0.00 35 991.8
20260505120132 77 292 1.7 1.7 0.00 0.00 0.00 36 991.8
20260505120032 77 248 3.5 3.5 0.00 0.00 0.00 34 991.7
20260505120004 77 248 1.7 1.7 0.00 0.00 0.00 34 991.7
20260505115933 77 292 1.7 1.7 0.00 0.00 0.00 33 991.7
20260505115902 77 180 1.7 1.7 0.00 0.00 0.00 34 991.7
20260505115832 76 112 0.0 0.0 0.00 0.00 0.00 34 991.7
20260505115802 76 112 0.0 0.0 0.00 0.00 0.00 35 991.7
20260505115732 76 112 0.0 0.0 0.00 0.00 0.00 35 991.7
20260505115702 76 112 0.0 0.0 0.00 0.00 0.00 35 991.7
20260505115632 76 112 0.0 0.0 0.00 0.00 0.00 35 991.7
20260505115624 76 112 1.7 1.7 0.00 0.00 0.00 35 991.7
20260505115533 76 112 1.7 1.7 0.00 0.00 0.00 35 991.7
20260505115503 76 112 4.3 4.3 0.00 0.00 0.00 35 991.7
20260505115432 76 315 1.7 1.7 0.00 0.00 0.00 35 991.7
20260505115403 76 22 1.7 1.7 0.00 0.00 0.00 35 991.7
20260505115332 75 45 4.3 5.2 0.00 0.00 0.00 35 991.7
20260505115304 75 135 0.0 0.0 0.00 0.00 0.00 37 991.7
20260505115232 75 135 0.0 0.0 0.00 0.00 0.00 36 991.7
20260505115202 75 135 1.7 1.7 0.00 0.00 0.00 36 991.7
20260505115132 75 135 0.0 0.0 0.00 0.00 0.00 37 991.7
20260505115102 75 135 0.9 0.9 0.00 0.00 0.00 36 991.9
20260505115032 75 135 1.7 1.7 0.00 0.00 0.00 37 991.9
20260505115023 75 135 2.6 2.6 0.00 0.00 0.00 37 991.9
20260505114953 75 135 3.5 3.5 0.00 0.00 0.00 38 991.9
20260505114903 75 112 3.5 3.5 0.00 0.00 0.00 36 991.9
20260505114832 76 112 1.7 1.7 0.00 0.00 0.00 36 991.9
20260505114802 77 112 2.6 2.6 0.00 0.00 0.00 36 991.9
20260505114732 78 135 2.6 2.6 0.00 0.00 0.00 35 991.9
20260505114702 78 45 1.7 2.6 0.00 0.00 0.00 35 991.9
20260505114632 78 158 1.7 1.7 0.00 0.00 0.00 36 991.9
20260505114603 78 158 2.6 2.6 0.00 0.00 0.00 36 991.9
20260505114532 77 90 0.9 0.9 0.00 0.00 0.00 36 991.9
20260505114524 77 90 3.5 3.5 0.00 0.00 0.00 35 991.9
20260505114432 77 68 1.7 1.7 0.00 0.00 0.00 34 991.9
20260505114402 77 135 1.7 1.7 0.00 0.00 0.00 35 991.9
20260505114333 77 135 0.0 0.0 0.00 0.00 0.00 34 991.9
20260505114302 77 135 0.0 0.0 0.00 0.00 0.00 36 991.9
20260505114232 76 135 0.0 0.0 0.00 0.00 0.00 36 991.9
20260505114202 76 135 2.6 3.5 0.00 0.00 0.00 36 991.9
20260505114132 76 180 0.0 0.0 0.00 0.00 0.00 35 991.9
20260505114103 76 180 0.9 0.9 0.00 0.00 0.00 35 991.7
20260505114032 76 180 1.7 1.7 0.00 0.00 0.00 35 991.7
20260505114004 76 68 0.0 0.0 0.00 0.00 0.00 36 991.7
20260505113932 76 68 0.0 0.0 0.00 0.00 0.00 40 991.7
20260505113902 76 90 1.7 1.7 0.00 0.00 0.00 38 991.7
20260505113832 76 90 1.7 1.7 0.00 0.00 0.00 37 991.7
20260505113802 76 90 1.7 1.7 0.00 0.00 0.00 36 991.7
20260505113732 76 45 5.2 5.2 0.00 0.00 0.00 37 991.7
20260505113702 76 112 1.7 1.7 0.00 0.00 0.00 37 991.7
20260505113632 76 112 1.7 1.7 0.00 0.00 0.00 37 991.7
20260505113602 76 112 1.7 1.7 0.00 0.00 0.00 36 992.0
20260505113532 76 112 1.7 1.7 0.00 0.00 0.00 37 992.0
20260505113502 76 112 1.7 1.7 0.00 0.00 0.00 36 992.0
20260505113432 77 112 3.5 4.3 0.00 0.00 0.00 36 992.0
20260505113402 76 68 2.6 3.5 0.00 0.00 0.00 36 992.0
20260505113332 76 45 1.7 1.7 0.00 0.00 0.00 37 992.0
20260505113303 76 68 1.7 1.7 0.00 0.00 0.00 36 992.0
20260505113232 76 292 1.7 1.7 0.00 0.00 0.00 37 992.0
20260505113224 76 292 2.6 2.6 0.00 0.00 0.00 37 992.0
20260505113132 76 292 2.6 3.5 0.00 0.00 0.00 37 992.0
20260505113102 76 338 1.7 1.7 0.00 0.00 0.00 36 991.9
20260505113032 77 338 1.7 1.7 0.00 0.00 0.00 37 991.9
20260505113002 77 90 1.7 1.7 0.00 0.00 0.00 36 991.9
20260505112932 76 90 1.7 1.7 0.00 0.00 0.00 36 991.9
20260505112902 76 90 0.9 0.9 0.00 0.00 0.00 35 991.9
20260505112832 76 68 0.0 0.0 0.00 0.00 0.00 37 991.9
20260505112802 76 68 0.9 0.9 0.00 0.00 0.00 37 991.9
20260505112732 76 90 3.5 3.5 0.00 0.00 0.00 37 991.9
20260505112702 76 158 1.7 1.7 0.00 0.00 0.00 36 991.9
20260505112632 76 292 0.0 0.0 0.00 0.00 0.00 40 991.9
20260505112602 76 292 0.0 0.0 0.00 0.00 0.00 40 992.3
20260505112532 76 292 0.0 0.0 0.00 0.00 0.00 39 992.3
20260505112502 76 292 2.6 2.6 0.00 0.00 0.00 39 992.3
20260505112432 76 292 3.5 4.3 0.00 0.00 0.00 38 992.3
20260505112402 76 270 2.6 2.6 0.00 0.00 0.00 37 992.3
20260505112332 76 270 1.7 1.7 0.00 0.00 0.00 36 992.3
20260505112304 76 270 1.7 1.7 0.00 0.00 0.00 38 992.3
20260505112253 76 292 2.6 2.6 0.00 0.00 0.00 37 992.3
20260505112202 76 0 1.7 1.7 0.00 0.00 0.00 38 992.3
20260505112133 76 22 1.7 1.7 0.00 0.00 0.00 37 992.3
20260505112102 76 22 2.6 2.6 0.00 0.00 0.00 39 992.1
20260505112032 76 202 0.0 0.0 0.00 0.00 0.00 37 992.1
20260505112003 76 202 0.0 0.0 0.00 0.00 0.00 37 992.1
20260505111953 76 202 2.6 2.6 0.00 0.00 0.00 37 992.1
20260505111902 76 202 0.0 0.0 0.00 0.00 0.00 38 992.1
20260505111832 76 202 0.0 0.0 0.00 0.00 0.00 35 992.1
20260505111802 76 202 0.9 0.9 0.00 0.00 0.00 37 992.1
20260505111732 76 202 1.7 1.7 0.00 0.00 0.00 36 992.1
20260505111702 76 202 2.6 3.5 0.00 0.00 0.00 37 992.1
20260505111632 76 135 2.6 2.6 0.00 0.00 0.00 38 992.1
20260505111603 76 135 2.6 2.6 0.00 0.00 0.00 35 992.1
20260505111532 75 135 0.0 0.0 0.00 0.00 0.00 37 992.1
20260505111502 75 135 1.7 1.7 0.00 0.00 0.00 36 992.1
20260505111432 75 135 1.7 1.7 0.00 0.00 0.00 36 992.1
20260505111402 75 112 1.7 1.7 0.00 0.00 0.00 38 992.1
20260505111332 75 68 0.9 0.9 0.00 0.00 0.00 37 992.1
20260505111302 75 68 1.7 1.7 0.00 0.00 0.00 39 992.1
20260505111233 75 68 1.7 1.7 0.00 0.00 0.00 39 992.1
20260505111203 76 68 6.1 6.1 0.00 0.00 0.00 36 992.1
20260505111153 77 135 2.6 2.6 0.00 0.00 0.00 37 992.1
20260505111102 77 135 2.6 2.6 0.00 0.00 0.00 36 992.4
20260505111032 76 180 1.7 1.7 0.00 0.00 0.00 37 992.4
20260505111002 76 180 1.7 1.7 0.00 0.00 0.00 38 992.4
20260505110932 76 180 0.0 0.0 0.00 0.00 0.00 37 992.4
20260505110902 76 180 0.9 0.9 0.00 0.00 0.00 37 992.4
20260505110853 76 180 0.9 0.9 0.00 0.00 0.00 36 992.4
20260505110802 76 180 0.9 0.9 0.00 0.00 0.00 38 992.4
20260505110753 76 180 1.7 1.7 0.00 0.00 0.00 36 992.4
20260505110703 76 180 1.7 1.7 0.00 0.00 0.00 36 992.4
20260505110632 76 180 2.6 3.5 0.00 0.00 0.00 38 992.4
20260505110602 76 202 3.5 3.5 0.00 0.00 0.00 38 992.4
20260505110532 76 225 4.3 4.3 0.00 0.00 0.00 40 992.4
20260505110503 76 68 2.6 3.5 0.00 0.00 0.00 39 992.4
20260505110432 77 68 4.3 5.2 0.00 0.00 0.00 38 992.4
20260505110402 77 158 1.7 1.7 0.00 0.00 0.00 37 992.4
20260505110354 77 158 1.7 1.7 0.00 0.00 0.00 37 992.4
20260505110302 77 158 1.7 1.7 0.00 0.00 0.00 37 992.4
20260505110232 77 158 1.7 1.7 0.00 0.00 0.00 37 992.4
20260505110202 76 68 3.5 4.3 0.00 0.00 0.00 37 992.4
20260505110132 76 315 0.0 0.0 0.00 0.00 0.00 37 992.4
20260505102202 75 158 2.6 2.6 0.00 0.00 0.00 38 993.1
20260505102132 75 158 1.7 1.7 0.00 0.00 0.00 38 993.1
20260505102102 74 158 1.7 1.7 0.00 0.00 0.00 37 993.0
20260505102032 74 158 1.7 1.7 0.00 0.00 0.00 40 993.0
20260505102002 74 158 0.0 0.0 0.00 0.00 0.00 39 993.0
20260505101932 74 158 1.7 1.7 0.00 0.00 0.00 39 993.0
20260505101902 74 158 1.7 1.7 0.00 0.00 0.00 39 993.0
20260505101832 74 158 1.7 1.7 0.00 0.00 0.00 38 993.0
20260505101802 74 112 1.7 1.7 0.00 0.00 0.00 39 993.0
20260505101732 74 112 0.0 0.0 0.00 0.00 0.00 40 993.0
20260505101702 74 112 0.0 0.0 0.00 0.00 0.00 39 993.0
20260505101632 74 112 1.7 1.7 0.00 0.00 0.00 41 993.0
20260505101602 74 112 1.7 1.7 0.00 0.00 0.00 41 993.2
20260505101532 74 90 1.7 1.7 0.00 0.00 0.00 42 993.2
20260505101530 74 90 1.7 1.7 0.00 0.00 0.00 42 993.2
20260505101453 74 90 1.7 1.7 0.00 0.00 0.00 39 993.2
20260505101402 74 90 0.0 0.0 0.00 0.00 0.00 40 993.2
20260505101332 74 90 0.0 0.0 0.00 0.00 0.00 41 993.2
20260505101303 74 90 1.7 1.7 0.00 0.00 0.00 40 993.2
20260505101232 74 90 0.9 0.9 0.00 0.00 0.00 41 993.2
20260505101203 74 90 1.7 1.7 0.00 0.00 0.00 39 993.2
20260505101132 75 90 2.6 2.6 0.00 0.00 0.00 38 993.2
20260505101102 75 90 2.6 2.6 0.00 0.00 0.00 37 993.3
20260505101032 75 315 0.0 0.0 0.00 0.00 0.00 38 993.3
20260505101002 75 315 0.0 0.0 0.00 0.00 0.00 38 993.3
20260505100932 75 315 1.7 1.7 0.00 0.00 0.00 42 993.3
20260505100923 74 315 0.0 0.0 0.00 0.00 0.00 40 993.3
20260505100832 74 315 0.0 0.0 0.00 0.00 0.00 39 993.3
20260505100802 74 315 0.0 0.0 0.00 0.00 0.00 41 993.3
20260505100732 74 315 0.0 0.0 0.00 0.00 0.00 40 993.3
20260505100702 74 315 0.0 0.0 0.00 0.00 0.00 40 993.3
20260505100632 74 315 0.9 0.9 0.00 0.00 0.00 40 993.3
20260505100602 74 315 1.7 1.7 0.00 0.00 0.00 41 993.3
20260505100532 74 315 1.7 1.7 0.00 0.00 0.00 42 993.3
20260505100502 74 315 0.0 0.0 0.00 0.00 0.00 41 993.3
20260505100432 74 315 0.9 0.9 0.00 0.00 0.00 42 993.3
20260505100402 74 315 1.7 1.7 0.00 0.00 0.00 42 993.3
20260505100353 73 315 0.9 0.9 0.00 0.00 0.00 42 993.3
20260505100302 73 315 0.9 0.9 0.00 0.00 0.00 42 993.3
20260505100253 73 315 1.7 1.7 0.00 0.00 0.00 42 993.3
20260505100202 73 315 0.9 0.9 0.00 0.00 0.00 42 993.3
20260505100134 73 315 2.6 2.6 0.00 0.00 0.00 42 993.3
20260505100032 73 45 2.6 2.6 0.00 0.00 0.00 40 993.2
20260505100002 73 0 3.5 3.5 0.00 0.00 0.00 41 993.2
20260505095932 73 0 2.6 2.6 0.00 0.00 0.00 41 993.2
20260505095923 73 0 1.7 1.7 0.00 0.00 0.00 41 993.2
20260505095832 73 315 1.7 1.7 0.00 0.00 0.00 41 993.2
20260505095803 73 315 0.0 0.0 0.00 0.00 0.00 42 993.2
20260505095732 73 315 0.0 0.0 0.00 0.00 0.00 42 993.2
20260505095702 73 315 2.6 2.6 0.00 0.00 0.00 41 993.2
20260505095653 73 315 2.6 2.6 0.00 0.00 0.00 45 993.2
20260505095602 73 292 0.0 0.0 0.00 0.00 0.00 44 993.3
20260505095532 73 292 2.6 3.5 0.00 0.00 0.00 43 993.3
20260505095502 74 292 3.5 3.5 0.00 0.00 0.00 42 993.3
20260505095432 74 292 1.7 1.7 0.00 0.00 0.00 42 993.3
20260505095423 74 292 1.7 1.7 0.00 0.00 0.00 43 993.3
20260505095332 73 292 1.7 1.7 0.00 0.00 0.00 43 993.3
20260505095304 73 292 1.7 1.7 0.00 0.00 0.00 42 993.3
20260505095232 73 292 0.0 0.0 0.00 0.00 0.00 44 993.3
20260505095202 73 292 0.9 0.9 0.00 0.00 0.00 43 993.3
20260505095132 73 292 1.7 1.7 0.00 0.00 0.00 44 993.3
20260505095102 73 292 2.6 2.6 0.00 0.00 0.00 46 993.3
20260505095032 74 292 2.6 2.6 0.00 0.00 0.00 44 993.3
20260505095002 74 0 1.7 1.7 0.00 0.00 0.00 43 993.3
20260505094932 74 0 0.9 0.9 0.00 0.00 0.00 44 993.3
20260505094902 74 338 0.0 0.0 0.00 0.00 0.00 44 993.3
20260505094853 74 338 0.0 0.0 0.00 0.00 0.00 44 993.3
20260505094802 74 338 1.7 1.7 0.00 0.00 0.00 43 993.3
20260505094732 74 338 4.3 4.3 0.00 0.00 0.00 44 993.3
20260505094702 74 22 1.7 1.7 0.00 0.00 0.00 45 993.3
20260505094632 74 22 0.0 0.0 0.00 0.00 0.00 46 993.3
20260505094602 74 22 0.0 0.0 0.00 0.00 0.00 45 993.4
20260505094553 74 22 1.7 1.7 0.00 0.00 0.00 46 993.4
20260505094502 74 22 1.7 1.7 0.00 0.00 0.00 46 993.4
20260505094432 74 22 1.7 1.7 0.00 0.00 0.00 45 993.4
20260505094423 74 22 3.5 3.5 0.00 0.00 0.00 45 993.4
20260505094332 74 68 2.6 2.6 0.00 0.00 0.00 45 993.4
20260505094323 74 292 0.9 0.9 0.00 0.00 0.00 46 993.4
20260505094232 73 292 1.7 1.7 0.00 0.00 0.00 45 993.4
20260505094202 73 292 1.7 1.7 0.00 0.00 0.00 43 993.4
20260505094132 73 292 1.7 1.7 0.00 0.00 0.00 42 993.4
20260505094123 73 292 0.0 0.0 0.00 0.00 0.00 43 993.5
20260505094032 73 292 0.0 0.0 0.00 0.00 0.00 45 993.5
20260505094002 72 292 0.0 0.0 0.00 0.00 0.00 44 993.5
20260505093932 72 292 0.0 0.0 0.00 0.00 0.00 45 993.5
20260505093902 72 292 0.0 0.0 0.00 0.00 0.00 48 993.5
20260505093853 72 292 0.0 0.0 0.00 0.00 0.00 48 993.5
20260505093802 72 292 0.9 0.9 0.00 0.00 0.00 48 993.5
20260505093732 71 292 1.7 1.7 0.00 0.00 0.00 50 993.5
20260505093702 71 292 0.9 0.9 0.00 0.00 0.00 48 993.5
20260505093632 71 292 1.7 1.7 0.00 0.00 0.00 49 993.5
20260505093604 71 292 0.0 0.0 0.00 0.00 0.00 50 993.7
20260505093532 71 292 2.6 2.6 0.00 0.00 0.00 50 993.7
20260505093502 72 292 3.5 3.5 0.00 0.00 0.00 50 993.7
20260505093432 73 292 2.6 2.6 0.00 0.00 0.00 49 993.7
20260505093402 73 292 2.6 2.6 0.00 0.00 0.00 48 993.7
20260505093353 73 292 1.7 1.7 0.00 0.00 0.00 48 993.7
20260505093302 73 292 1.7 1.7 0.00 0.00 0.00 47 993.7
20260505093232 74 292 1.7 1.7 0.00 0.00 0.00 46 993.7
20260505093202 74 292 2.6 3.5 0.00 0.00 0.00 46 993.7
20260505093132 74 158 0.0 0.0 0.00 0.00 0.00 45 993.7
20260505093102 74 158 1.7 1.7 0.00 0.00 0.00 45 993.5
20260505093033 73 158 0.0 0.0 0.00 0.00 0.00 45 993.5
20260505093002 73 158 0.0 0.0 0.00 0.00 0.00 45 993.5
20260505092932 73 158 0.0 0.0 0.00 0.00 0.00 46 993.5
20260505092902 73 158 1.7 1.7 0.00 0.00 0.00 45 993.5
20260505092832 72 158 1.7 1.7 0.00 0.00 0.00 47 993.5
20260505092802 72 158 0.0 0.0 0.00 0.00 0.00 47 993.5
20260505092732 72 158 1.7 1.7 0.00 0.00 0.00 47 993.5
20260505092702 72 158 1.7 1.7 0.00 0.00 0.00 46 993.5
20260505092632 71 158 2.6 2.6 0.00 0.00 0.00 46 993.5
20260505092623 71 45 1.7 1.7 0.00 0.00 0.00 45 993.8
20260505092532 71 45 0.0 0.0 0.00 0.00 0.00 46 993.8
20260505092502 71 45 0.0 0.0 0.00 0.00 0.00 48 993.8
20260505092432 71 45 0.0 0.0 0.00 0.00 0.00 47 993.8
20260505092402 70 45 1.7 1.7 0.00 0.00 0.00 48 993.8
20260505092332 70 45 1.7 1.7 0.00 0.00 0.00 50 993.8
20260505092304 70 45 0.0 0.0 0.00 0.00 0.00 49 993.8
20260505092232 70 45 0.0 0.0 0.00 0.00 0.00 50 993.8
20260505092202 70 45 1.7 1.7 0.00 0.00 0.00 51 993.8
20260505092132 71 45 3.5 3.5 0.00 0.00 0.00 51 993.8
20260505092102 71 45 1.7 1.7 0.00 0.00 0.00 51 993.8
20260505092032 71 45 1.7 1.7 0.00 0.00 0.00 52 993.8
20260505092002 71 45 2.6 3.5 0.00 0.00 0.00 53 993.8
20260505091932 71 45 3.5 3.5 0.00 0.00 0.00 51 993.8
20260505091902 71 292 1.7 1.7 0.00 0.00 0.00 51 993.8
20260505091832 71 292 1.7 1.7 0.00 0.00 0.00 53 993.8
20260505091802 71 292 2.6 2.6 0.00 0.00 0.00 52 993.8
20260505091732 72 292 2.6 2.6 0.00 0.00 0.00 51 993.8
20260505091702 72 292 1.7 1.7 0.00 0.00 0.00 52 993.8
20260505091632 72 292 1.7 1.7 0.00 0.00 0.00 52 993.8
20260505091602 72 292 1.7 1.7 0.00 0.00 0.00 51 993.7
20260505091532 72 292 1.7 1.7 0.00 0.00 0.00 51 993.7
20260505091523 72 292 1.7 1.7 0.00 0.00 0.00 50 993.7
20260505091432 72 315 1.7 1.7 0.00 0.00 0.00 49 993.7
20260505091402 72 292 0.0 0.0 0.00 0.00 0.00 53 993.7
20260505091332 71 292 1.7 1.7 0.00 0.00 0.00 51 993.7
20260505091302 71 292 0.0 0.0 0.00 0.00 0.00 51 993.7
20260505091232 71 292 1.7 1.7 0.00 0.00 0.00 53 993.7
20260505091223 71 292 1.7 1.7 0.00 0.00 0.00 53 993.7
20260505091132 72 292 2.6 3.5 0.00 0.00 0.00 51 993.7
20260505091102 72 292 1.7 1.7 0.00 0.00 0.00 52 993.8
20260505091032 72 292 0.0 0.0 0.00 0.00 0.00 51 993.8
20260505091002 72 292 1.7 1.7 0.00 0.00 0.00 51 993.8
20260505090932 72 292 1.7 1.7 0.00 0.00 0.00 49 993.8
20260505090902 71 292 0.9 0.9 0.00 0.00 0.00 51 993.8
20260505090832 71 292 0.0 0.0 0.00 0.00 0.00 51 993.8
20260505090802 71 292 1.7 1.7 0.00 0.00 0.00 50 993.8
20260505090732 71 292 1.7 1.7 0.00 0.00 0.00 50 993.8
20260505090702 71 292 1.7 1.7 0.00 0.00 0.00 49 993.8
20260505090632 71 292 2.6 2.6 0.00 0.00 0.00 48 993.8
20260505090602 71 292 1.7 1.7 0.00 0.00 0.00 49 993.9
20260505090532 71 292 1.7 1.7 0.00 0.00 0.00 51 993.9
20260505090502 71 292 1.7 1.7 0.00 0.00 0.00 50 993.9
20260505090432 70 292 0.9 0.9 0.00 0.00 0.00 52 993.9
20260505090402 70 292 0.9 0.9 0.00 0.00 0.00 52 993.9
20260505090332 70 292 0.9 0.9 0.00 0.00 0.00 51 993.9
20260505090302 70 292 0.9 0.9 0.00 0.00 0.00 51 993.9
20260505090232 70 292 0.0 0.0 0.00 0.00 0.00 51 993.9
20260505090202 70 292 1.7 1.7 0.00 0.00 0.00 50 993.9
20260505090132 70 292 0.0 0.0 0.00 0.00 0.00 52 993.9
20260505090032 70 292 1.7 1.7 0.00 0.00 0.00 51 994.0
20260505090002 70 292 0.9 0.9 0.00 0.00 0.00 50 994.0
20260505085932 70 292 0.9 0.9 0.00 0.00 0.00 50 994.0
20260505085902 71 292 0.9 0.9 0.00 0.00 0.00 50 994.0
20260505085832 71 292 0.0 0.0 0.00 0.00 0.00 52 994.0
20260505085802 71 292 0.0 0.0 0.00 0.00 0.00 51 994.0
20260505085732 71 292 0.0 0.0 0.00 0.00 0.00 51 994.0
20260505085702 71 292 0.0 0.0 0.00 0.00 0.00 50 994.0
20260505085632 71 292 0.9 0.9 0.00 0.00 0.00 50 994.0
20260505085602 71 292 1.7 1.7 0.00 0.00 0.00 49 993.9
20260505085553 71 292 0.0 0.0 0.00 0.00 0.00 46 993.9
20260505085502 71 292 0.0 0.0 0.00 0.00 0.00 46 993.9
20260505085432 71 292 0.0 0.0 0.00 0.00 0.00 46 993.9
20260505085402 71 292 1.7 1.7 0.00 0.00 0.00 45 993.9
20260505085332 71 292 1.7 1.7 0.00 0.00 0.00 46 993.9
20260505085323 71 292 0.0 0.0 0.00 0.00 0.00 51 993.9
20260505085233 71 292 0.0 0.0 0.00 0.00 0.00 50 993.9
20260505085202 71 292 1.7 1.7 0.00 0.00 0.00 50 993.9
20260505085132 72 292 1.7 1.7 0.00 0.00 0.00 50 993.9
20260505085102 72 292 1.7 1.7 0.00 0.00 0.00 50 993.9
20260505085032 71 292 0.0 0.0 0.00 0.00 0.00 49 993.9
20260505085002 71 292 1.7 1.7 0.00 0.00 0.00 50 993.9
20260505084932 71 292 1.7 1.7 0.00 0.00 0.00 50 993.9
20260505084902 71 292 0.0 0.0 0.00 0.00 0.00 50 993.9
20260505084832 71 292 0.0 0.0 0.00 0.00 0.00 50 993.9
20260505084802 71 292 0.0 0.0 0.00 0.00 0.00 53 993.9
20260505084732 71 292 1.7 1.7 0.00 0.00 0.00 52 993.9
20260505084702 71 292 1.7 1.7 0.00 0.00 0.00 51 993.9
20260505084632 70 292 0.0 0.0 0.00 0.00 0.00 50 993.9
20260505084603 70 292 1.7 1.7 0.00 0.00 0.00 52 993.9
20260505084532 70 292 1.7 1.7 0.00 0.00 0.00 53 993.9
20260505084502 70 292 2.6 2.6 0.00 0.00 0.00 54 993.9
20260505084432 70 292 2.6 2.6 0.00 0.00 0.00 53 993.9
20260505084402 70 292 0.0 0.0 0.00 0.00 0.00 52 993.9
20260505084332 70 292 1.7 1.7 0.00 0.00 0.00 52 993.9
20260505084302 70 270 0.0 0.0 0.00 0.00 0.00 53 993.9
20260505084232 70 270 0.0 0.0 0.00 0.00 0.00 53 993.9
20260505084202 70 270 0.0 0.0 0.00 0.00 0.00 53 993.9
20260505084132 70 270 1.7 1.7 0.00 0.00 0.00 55 993.9
20260505084102 70 270 1.7 1.7 0.00 0.00 0.00 54 993.9
20260505084032 70 292 2.6 2.6 0.00 0.00 0.00 55 993.9
20260505084003 70 292 1.7 1.7 0.00 0.00 0.00 55 993.9
20260505083933 70 292 3.5 3.5 0.00 0.00 0.00 54 993.9
20260505083902 70 270 1.7 1.7 0.00 0.00 0.00 53 993.9
20260505083832 70 292 2.6 3.5 0.00 0.00 0.00 53 993.9
20260505083823 70 292 1.7 1.7 0.00 0.00 0.00 51 993.9
20260505083732 70 292 1.7 1.7 0.00 0.00 0.00 52 993.9
20260505083702 70 292 0.0 0.0 0.00 0.00 0.00 52 993.9
20260505083653 70 292 1.7 1.7 0.00 0.00 0.00 53 993.9
20260505083602 70 292 1.7 1.7 0.00 0.00 0.00 52 994.0
20260505083532 70 292 3.5 3.5 0.00 0.00 0.00 49 994.0
20260505083502 70 292 1.7 1.7 0.00 0.00 0.00 50 994.0
20260505083432 70 292 0.9 0.9 0.00 0.00 0.00 52 994.0
20260505083402 70 292 0.9 0.9 0.00 0.00 0.00 53 994.0
20260505083332 70 292 1.7 1.7 0.00 0.00 0.00 54 994.0
20260505083302 70 292 1.7 1.7 0.00 0.00 0.00 55 994.0
20260505083232 70 292 1.7 1.7 0.00 0.00 0.00 54 994.0
20260505083201 71 292 1.7 1.7 0.00 0.00 0.00 54 994.0
20260505083132 71 315 1.7 1.7 0.00 0.00 0.00 53 994.0
20260505083102 72 315 1.7 1.7 0.00 0.00 0.00 52 994.1
20260505083032 71 315 2.6 3.5 0.00 0.00 0.00 53 994.1
20260505083002 71 315 1.7 1.7 0.00 0.00 0.00 53 994.1
20260505082953 71 315 0.0 0.0 0.00 0.00 0.00 55 994.1
20260505082902 71 315 0.0 0.0 0.00 0.00 0.00 56 994.1
20260505082832 71 315 0.9 0.9 0.00 0.00 0.00 54 994.1
20260505082802 71 315 1.7 1.7 0.00 0.00 0.00 54 994.1
20260505082732 71 315 1.7 1.7 0.00 0.00 0.00 55 994.1
20260505082724 71 315 1.7 1.7 0.00 0.00 0.00 55 994.1
20260505082631 70 292 0.9 0.9 0.00 0.00 0.00 54 994.1
20260505082601 70 292 0.0 0.0 0.00 0.00 0.00 54 994.1
20260505082531 70 292 0.9 0.9 0.00 0.00 0.00 53 994.1
20260505082502 70 292 0.0 0.0 0.00 0.00 0.00 54 994.1
20260505082431 69 292 0.0 0.0 0.00 0.00 0.00 55 994.1
20260505082401 69 292 1.7 1.7 0.00 0.00 0.00 54 994.1
20260505082331 69 292 1.7 1.7 0.00 0.00 0.00 56 994.1
20260505082301 69 315 0.0 0.0 0.00 0.00 0.00 59 994.1
20260505082252 69 315 0.0 0.0 0.00 0.00 0.00 58 994.1
20260505082201 69 315 1.7 1.7 0.00 0.00 0.00 59 994.1
20260505082131 69 315 2.6 2.6 0.00 0.00 0.00 57 994.1
20260505082101 69 315 1.7 1.7 0.00 0.00 0.00 57 994.2
20260505082031 69 315 2.6 2.6 0.00 0.00 0.00 58 994.2
20260505082022 69 315 3.5 3.5 0.00 0.00 0.00 59 994.2
20260505081931 69 292 1.7 1.7 0.00 0.00 0.00 58 994.2
20260505081922 70 292 2.6 3.5 0.00 0.00 0.00 57 994.2
20260505081831 70 292 2.6 2.6 0.00 0.00 0.00 57 994.2
20260505081801 70 292 2.6 2.6 0.00 0.00 0.00 57 994.2
20260505081731 70 292 0.9 0.9 0.00 0.00 0.00 56 994.2
20260505081701 70 315 2.6 2.6 0.00 0.00 0.00 55 994.2
20260505081654 70 315 0.0 0.0 0.00 0.00 0.00 56 994.2
20260505081601 70 315 0.0 0.0 0.00 0.00 0.00 56 994.3
20260505081529 70 315 1.7 1.7 0.00 0.00 0.00 56 994.3
20260505081431 70 315 1.7 1.7 0.00 0.00 0.00 54 994.3
20260505081401 70 315 0.0 0.0 0.00 0.00 0.00 55 994.3
20260505081331 70 315 0.0 0.0 0.00 0.00 0.00 55 994.3
20260505081301 70 315 0.0 0.0 0.00 0.00 0.00 56 994.3
20260505081231 70 315 1.7 1.7 0.00 0.00 0.00 55 994.3
20260505081201 70 0 1.7 1.7 0.00 0.00 0.00 54 994.3
20260505081131 70 292 1.7 1.7 0.00 0.00 0.00 56 994.3
20260505081101 70 292 2.6 2.6 0.00 0.00 0.00 55 994.2
20260505081031 72 292 1.7 1.7 0.00 0.00 0.00 54 994.2
20260505081001 72 292 0.0 0.0 0.00 0.00 0.00 54 994.2
20260505080952 72 292 1.7 1.7 0.00 0.00 0.00 53 994.2
20260505080901 72 292 0.9 0.9 0.00 0.00 0.00 54 994.2
20260505080831 72 292 1.7 1.7 0.00 0.00 0.00 54 994.2
20260505080801 72 292 0.0 0.0 0.00 0.00 0.00 53 994.2
20260505080731 71 292 1.7 1.7 0.00 0.00 0.00 57 994.2
20260505080701 71 292 1.7 1.7 0.00 0.00 0.00 57 994.2
20260505080631 71 292 1.7 1.7 0.00 0.00 0.00 55 994.2
20260505080601 71 292 0.0 0.0 0.00 0.00 0.00 55 994.0
20260505080531 71 292 0.0 0.0 0.00 0.00 0.00 55 994.0
20260505080501 71 292 0.9 0.9 0.00 0.00 0.00 55 994.0
20260505080431 71 292 1.7 1.7 0.00 0.00 0.00 54 994.0
20260505080401 71 292 0.0 0.0 0.00 0.00 0.00 57 994.0
20260505080331 71 292 0.9 0.9 0.00 0.00 0.00 58 994.0
20260505080322 70 292 1.7 1.7 0.00 0.00 0.00 57 994.0
20260505080252 70 292 1.7 1.7 0.00 0.00 0.00 56 994.0
20260505080222 70 292 0.0 1.7 0.00 0.00 0.00 59 994.0
20260505080131 70 315 2.6 2.6 0.00 0.00 0.00 57 994.0
20260505080032 70 315 2.6 2.6 0.00 0.00 0.00 57 994.4
20260505080022 70 315 0.9 0.9 0.00 0.00 0.00 57 994.4
20260505075931 70 315 0.9 0.9 0.00 0.00 0.00 58 994.4
20260505075901 70 315 0.0 0.0 0.00 0.00 0.00 58 994.4
20260505075831 69 315 0.0 0.0 0.00 0.00 0.00 58 994.4
20260505075801 69 315 0.0 0.0 0.00 0.00 0.00 60 994.4
20260505075731 69 315 0.9 0.9 0.00 0.00 0.00 59 994.4
20260505075701 69 315 1.7 1.7 0.00 0.00 0.00 59 994.4
20260505075631 69 315 0.0 0.0 0.00 0.00 0.00 58 994.4
20260505075601 69 315 1.7 1.7 0.00 0.00 0.00 59 994.1
20260505075531 69 315 1.7 1.7 0.00 0.00 0.00 59 994.1
20260505075501 69 315 0.0 0.0 0.00 0.00 0.00 60 994.1
20260505075431 69 315 0.0 0.0 0.00 0.00 0.00 61 994.1
20260505075401 69 292 1.7 1.7 0.00 0.00 0.00 61 994.1
20260505075352 69 315 1.7 1.7 0.00 0.00 0.00 60 994.1
20260505075322 70 292 1.7 1.7 0.00 0.00 0.00 59 994.1
20260505075231 70 315 1.7 1.7 0.00 0.00 0.00 59 994.1
20260505075201 70 292 1.7 1.7 0.00 0.00 0.00 57 994.1
20260505075152 70 180 0.0 0.0 0.00 0.00 0.00 58 994.1
20260505075101 70 180 0.0 0.0 0.00 0.00 0.00 57 994.2
20260505075031 70 180 0.0 0.0 0.00 0.00 0.00 58 994.2
20260505075001 70 180 0.0 0.0 0.00 0.00 0.00 58 994.2
20260505074931 69 180 0.0 0.0 0.00 0.00 0.00 58 994.2
20260505074901 69 180 0.0 0.0 0.00 0.00 0.00 60 994.2
20260505074831 69 180 0.9 0.9 0.00 0.00 0.00 61 994.2
20260505074801 69 180 0.9 0.9 0.00 0.00 0.00 61 994.2
20260505074731 69 180 1.7 1.7 0.00 0.00 0.00 60 994.2
20260505074722 69 180 0.9 0.9 0.00 0.00 0.00 60 994.2
20260505074631 68 338 1.7 1.7 0.00 0.00 0.00 61 994.2
20260505074601 68 338 0.9 0.9 0.00 0.00 0.00 61 994.3
20260505074552 68 338 0.9 0.9 0.00 0.00 0.00 60 994.3
20260505074501 68 338 0.0 0.0 0.00 0.00 0.00 61 994.3
20260505074431 68 338 0.0 0.0 0.00 0.00 0.00 61 994.3
20260505074422 68 338 0.0 0.0 0.00 0.00 0.00 62 994.3
20260505074331 68 338 0.9 0.9 0.00 0.00 0.00 62 994.3
20260505074301 68 338 0.9 0.9 0.00 0.00 0.00 60 994.3
20260505074231 68 338 0.0 0.0 0.00 0.00 0.00 62 994.3
20260505074222 67 338 0.0 0.0 0.00 0.00 0.00 62 994.3
20260505074131 67 338 0.0 0.0 0.00 0.00 0.00 63 994.3
20260505074101 67 338 0.0 0.0 0.00 0.00 0.00 65 994.3
20260505074052 67 338 1.7 1.7 0.00 0.00 0.00 64 994.3
20260505074001 67 338 1.7 1.7 0.00 0.00 0.00 64 994.3
20260505073931 68 338 1.7 1.7 0.00 0.00 0.00 62 994.3
20260505073901 68 338 1.7 1.7 0.00 0.00 0.00 60 994.3
20260505073831 67 338 0.0 0.0 0.00 0.00 0.00 61 994.3
20260505073801 67 338 0.0 0.0 0.00 0.00 0.00 64 994.3
20260505073731 67 338 0.0 0.0 0.00 0.00 0.00 64 994.3
20260505073701 67 338 1.7 1.7 0.00 0.00 0.00 63 994.3
20260505073631 68 338 0.0 0.0 0.00 0.00 0.00 62 994.3
20260505073601 68 338 0.0 0.0 0.00 0.00 0.00 61 994.4
20260505073531 69 338 0.9 0.9 0.00 0.00 0.00 60 994.4
20260505073501 69 338 0.0 0.0 0.00 0.00 0.00 59 994.4
20260505073431 69 338 0.9 0.9 0.00 0.00 0.00 58 994.4
20260505073401 69 338 0.0 0.0 0.00 0.00 0.00 60 994.4
20260505073352 69 338 0.0 0.0 0.00 0.00 0.00 61 994.4
20260505073301 69 338 0.0 0.0 0.00 0.00 0.00 61 994.4
20260505073232 69 338 0.0 0.0 0.00 0.00 0.00 61 994.4
20260505073201 69 338 0.0 0.0 0.00 0.00 0.00 61 994.4
20260505073131 69 338 0.0 0.0 0.00 0.00 0.00 61 994.4
20260505073101 69 338 1.7 1.7 0.00 0.00 0.00 59 994.4
20260505073031 69 338 0.0 0.0 0.00 0.00 0.00 60 994.4
20260505073022 69 338 0.0 0.0 0.00 0.00 0.00 61 994.4
20260505072933 69 338 0.0 0.0 0.00 0.00 0.00 64 994.4
20260505072901 69 338 0.0 0.0 0.00 0.00 0.00 62 994.4
20260505072831 69 338 1.7 1.7 0.00 0.00 0.00 60 994.4
20260505072801 69 338 0.0 0.0 0.00 0.00 0.00 61 994.4
20260505072752 68 338 0.0 0.0 0.00 0.00 0.00 61 994.4
20260505072701 68 338 0.0 0.0 0.00 0.00 0.00 60 994.4
20260505072631 68 338 0.9 0.9 0.00 0.00 0.00 61 994.4
20260505072602 68 338 0.0 0.0 0.00 0.00 0.00 63 994.3
20260505072531 68 338 1.7 1.7 0.00 0.00 0.00 60 994.3
20260505072501 68 338 0.0 0.0 0.00 0.00 0.00 61 994.3
20260505072431 67 338 0.0 0.0 0.00 0.00 0.00 61 994.3
20260505072401 67 338 0.0 0.0 0.00 0.00 0.00 61 994.3
20260505072331 67 338 0.0 0.0 0.00 0.00 0.00 64 994.3
20260505072301 67 338 0.0 0.0 0.00 0.00 0.00 62 994.3
20260505072231 67 338 0.0 0.0 0.00 0.00 0.00 65 994.3
20260505072201 67 338 0.0 0.0 0.00 0.00 0.00 64 994.3
20260505072131 67 338 0.9 0.9 0.00 0.00 0.00 63 994.3
20260505072101 67 338 1.7 1.7 0.00 0.00 0.00 64 994.3
20260505072031 67 338 0.0 0.0 0.00 0.00 0.00 64 994.3
20260505072001 67 338 0.9 0.9 0.00 0.00 0.00 64 994.3
20260505071952 67 338 0.9 0.9 0.00 0.00 0.00 63 994.3
20260505071901 67 338 0.0 0.0 0.00 0.00 0.00 63 994.3
20260505071831 67 338 0.0 0.0 0.00 0.00 0.00 63 994.3
20260505071801 67 338 0.0 0.0 0.00 0.00 0.00 64 994.3
20260505071731 67 338 0.0 0.0 0.00 0.00 0.00 66 994.3
20260505071701 67 338 0.0 0.0 0.00 0.00 0.00 65 994.3
20260505071631 67 338 1.7 1.7 0.00 0.00 0.00 62 994.3
20260505071601 67 338 0.0 0.0 0.00 0.00 0.00 63 994.5
20260505071531 67 338 0.0 0.0 0.00 0.00 0.00 64 994.5
20260505071501 67 338 0.0 0.0 0.00 0.00 0.00 64 994.5
20260505071431 67 338 0.0 0.0 0.00 0.00 0.00 64 994.5
20260505071403 67 338 0.0 0.0 0.00 0.00 0.00 66 994.5
20260505071331 67 338 0.9 0.9 0.00 0.00 0.00 64 994.5
20260505071301 66 338 0.0 0.0 0.00 0.00 0.00 63 994.5
20260505071231 66 338 0.9 0.9 0.00 0.00 0.00 62 994.5
20260505071202 66 338 0.0 0.0 0.00 0.00 0.00 62 994.5
20260505071131 66 338 0.0 0.0 0.00 0.00 0.00 64 994.5
20260505071101 66 338 0.0 0.0 0.00 0.00 0.00 65 994.3
20260505071052 66 338 0.0 0.0 0.00 0.00 0.00 66 994.3
20260505071001 66 338 0.0 0.0 0.00 0.00 0.00 66 994.3
20260505070931 66 338 0.0 0.0 0.00 0.00 0.00 66 994.3
20260505070901 65 338 0.9 0.9 0.00 0.00 0.00 66 994.3
20260505070831 65 338 0.9 0.9 0.00 0.00 0.00 65 994.3
20260505070801 65 338 0.0 0.0 0.00 0.00 0.00 65 994.3
20260505070731 65 338 0.0 0.0 0.00 0.00 0.00 66 994.3
20260505070722 65 338 0.0 0.0 0.00 0.00 0.00 66 994.3
20260505070631 65 338 0.0 0.0 0.00 0.00 0.00 67 994.3
20260505070601 65 338 0.9 0.9 0.00 0.00 0.00 66 994.5
20260505070531 66 338 0.0 0.0 0.00 0.00 0.00 65 994.5
20260505070501 66 338 0.0 0.0 0.00 0.00 0.00 64 994.5
20260505070431 66 338 0.0 0.0 0.00 0.00 0.00 64 994.5
20260505070401 66 338 0.0 0.0 0.00 0.00 0.00 65 994.5
20260505070331 66 338 1.7 1.7 0.00 0.00 0.00 64 994.5
20260505070301 66 338 0.0 0.0 0.00 0.00 0.00 65 994.5
20260505070231 67 338 1.7 1.7 0.00 0.00 0.00 64 994.5
20260505070201 67 338 0.0 0.0 0.00 0.00 0.00 65 994.5
20260505070131 67 338 0.0 0.0 0.00 0.00 0.00 64 994.5
20260505070122 67 338 0.0 0.0 0.00 0.00 0.00 63 994.6
20260505070031 67 338 0.0 0.0 0.00 0.00 0.00 64 994.6
20260505070001 66 338 0.0 0.0 0.00 0.00 0.00 63 994.6
20260505065931 66 338 0.0 0.0 0.00 0.00 0.00 64 994.6
20260505065901 66 338 0.0 0.0 0.00 0.00 0.00 65 994.6
20260505065831 66 338 0.0 0.0 0.00 0.00 0.00 65 994.6
20260505065801 66 338 0.0 0.0 0.00 0.00 0.00 65 994.6
20260505065732 66 338 0.0 0.0 0.00 0.00 0.00 65 994.6
20260505065701 66 338 0.0 0.0 0.00 0.00 0.00 66 994.6
20260505065631 66 338 0.0 0.0 0.00 0.00 0.00 66 994.6
20260505065601 66 338 0.0 0.0 0.00 0.00 0.00 66 994.5
20260505065531 65 338 0.0 0.0 0.00 0.00 0.00 65 994.5
20260505065501 65 338 0.0 0.0 0.00 0.00 0.00 66 994.5
20260505065431 65 338 0.0 0.0 0.00 0.00 0.00 67 994.5
20260505065401 65 338 0.0 0.0 0.00 0.00 0.00 66 994.5
20260505065330 65 338 0.0 0.0 0.00 0.00 0.00 66 994.5
20260505065323 65 338 0.0 0.0 0.00 0.00 0.00 66 994.5
20260505065232 65 338 0.0 0.0 0.00 0.00 0.00 66 994.5
20260505065226 65 338 0.0 0.0 0.00 0.00 0.00 67 994.5
20260505065031 65 338 1.7 1.7 0.00 0.00 0.00 67 994.5
20260505065001 66 338 1.7 1.7 0.00 0.00 0.00 66 994.5
20260505064930 66 68 0.0 0.0 0.00 0.00 0.00 66 994.5
20260505064901 66 135 0.0 0.0 0.00 0.00 0.00 67 994.5
20260505064831 66 135 0.0 0.0 0.00 0.00 0.00 68 994.5
20260505064822 65 135 0.9 0.9 0.00 0.00 0.00 68 994.5
20260505064731 65 135 0.9 0.9 0.00 0.00 0.00 70 994.5
20260505064701 65 135 0.9 0.9 0.00 0.00 0.00 68 994.5
20260505064652 65 135 0.9 0.9 0.00 0.00 0.00 68 994.5
20260505064601 65 135 0.0 0.0 0.00 0.00 0.00 69 994.6
20260505064531 65 135 0.0 0.0 0.00 0.00 0.00 68 994.6
20260505064501 65 135 0.0 0.0 0.00 0.00 0.00 68 994.6
20260505064431 65 135 1.7 1.7 0.00 0.00 0.00 68 994.6
20260505064401 65 135 0.0 0.0 0.00 0.00 0.00 69 994.6
20260505064331 65 135 1.7 1.7 0.00 0.00 0.00 68 994.6
20260505064300 65 135 1.7 1.7 0.00 0.00 0.00 68 994.6
20260505064251 65 135 0.0 0.0 0.00 0.00 0.00 69 994.6
20260505064200 65 135 1.7 1.7 0.00 0.00 0.00 68 994.6
20260505064131 65 135 1.7 1.7 0.00 0.00 0.00 68 994.6
20260505064103 64 248 0.0 0.0 0.00 0.00 0.00 67 994.8
20260505064031 64 248 0.0 0.0 0.00 0.00 0.00 69 994.8
20260505064001 64 248 0.0 0.0 0.00 0.00 0.00 68 994.8
20260505063931 64 248 0.0 0.0 0.00 0.00 0.00 69 994.8
20260505063901 64 248 0.0 0.0 0.00 0.00 0.00 70 994.8
20260505063831 64 248 0.0 0.0 0.00 0.00 0.00 70 994.8
20260505063801 64 248 0.0 0.0 0.00 0.00 0.00 70 994.8
20260505063731 64 248 1.7 1.7 0.00 0.00 0.00 69 994.8
20260505063701 64 0 0.9 0.9 0.00 0.00 0.00 70 994.8
20260505063631 64 0 0.0 0.0 0.00 0.00 0.00 70 994.8
20260505063601 64 0 0.0 0.0 0.00 0.00 0.00 70 994.7
20260505063534 64 0 1.7 1.7 0.00 0.00 0.00 70 994.7
20260505063531 64 0 0.0 0.0 0.00 0.00 0.00 71 994.7
20260505063525 64 0 0.0 0.0 0.00 0.00 0.00 70 994.7
20260505063331 63 112 1.7 1.7 0.00 0.00 0.00 70 994.7
20260505063301 63 315 0.9 0.9 0.00 0.00 0.00 71 994.7
20260505063231 63 315 0.0 0.0 0.00 0.00 0.00 70 994.7
20260505063201 63 315 0.9 0.9 0.00 0.00 0.00 72 994.7
20260505063131 63 315 0.0 0.0 0.00 0.00 0.00 71 994.7
20260505063122 63 315 0.9 0.9 0.00 0.00 0.00 71 994.6
20260505063031 63 315 0.0 0.0 0.00 0.00 0.00 71 994.6
20260505063001 63 315 2.6 2.6 0.00 0.00 0.00 70 994.6
20260505062931 62 315 0.9 0.0 0.00 0.00 0.00 70 994.6
20260505062921 62 315 1.7 1.7 0.00 0.00 0.00 70 994.6
20260505062852 62 315 1.7 1.7 0.00 0.00 0.00 70 994.6
20260505062832 62 315 1.7 1.7 0.00 0.00 0.00 70 994.6
20260505062804 62 315 0.0 0.0 0.00 0.00 0.00 72 994.6
20260505062802 62 315 0.0 0.0 0.00 0.00 0.00 70 994.6
20260505062652 62 315 0.0 0.0 0.00 0.00 0.00 72 994.6
20260505062601 62 315 1.7 1.7 0.00 0.00 0.00 73 994.6
20260505062531 62 315 0.9 0.9 0.00 0.00 0.00 74 994.6
20260505062501 62 315 0.9 0.9 0.00 0.00 0.00 74 994.6
20260505062431 62 315 1.7 1.7 0.00 0.00 0.00 74 994.6
20260505062401 62 315 1.7 1.7 0.00 0.00 0.00 73 994.6
20260505062331 62 315 2.6 2.6 0.00 0.00 0.00 72 994.6
20260505062301 62 315 0.9 0.9 0.00 0.00 0.00 73 994.6
20260505062231 62 315 1.7 1.7 0.00 0.00 0.00 72 994.6
20260505062201 63 315 2.6 3.5 0.00 0.00 0.00 71 994.6
20260505062131 64 292 0.0 0.0 0.00 0.00 0.00 71 994.6
20260505062101 64 292 1.7 1.7 0.00 0.00 0.00 71 994.8
20260505062031 64 292 1.7 1.7 0.00 0.00 0.00 69 994.8
20260505062001 64 292 0.9 0.9 0.00 0.00 0.00 70 994.8
20260505061931 64 292 0.0 0.0 0.00 0.00 0.00 69 994.8
20260505061922 64 292 0.9 0.9 0.00 0.00 0.00 70 994.8
20260505061831 64 292 1.7 1.7 0.00 0.00 0.00 70 994.8
20260505061801 64 292 0.0 0.0 0.00 0.00 0.00 71 994.8
20260505061731 64 292 1.7 1.7 0.00 0.00 0.00 69 994.8
20260505061702 63 315 1.7 1.7 0.00 0.00 0.00 69 994.8
20260505061634 63 292 0.0 0.0 0.00 0.00 0.00 72 994.8
20260505061631 63 292 0.0 0.0 0.00 0.00 0.00 72 994.8
20260505061601 63 292 0.0 0.0 0.00 0.00 0.00 71 994.8
20260505061531 63 292 1.7 1.7 0.00 0.00 0.00 72 994.8
20260505061451 64 315 0.0 0.0 0.00 0.00 0.00 71 994.8
20260505061400 64 315 0.0 0.0 0.00 0.00 0.00 71 994.8
20260505061352 64 315 1.7 1.7 0.00 0.00 0.00 71 994.8
20260505061322 64 315 1.7 1.7 0.00 0.00 0.00 71 994.8
20260505061230 64 315 0.0 0.0 0.00 0.00 0.00 70 994.8
20260505061201 64 315 1.7 1.7 0.00 0.00 0.00 71 994.8
20260505061135 64 315 0.9 0.9 0.00 0.00 0.00 70 994.8
20260505061022 64 315 1.7 1.7 0.00 0.00 0.00 68 994.8
20260505060931 64 315 0.0 0.0 0.00 0.00 0.00 68 994.8
20260505060901 64 315 0.0 0.0 0.00 0.00 0.00 70 994.8
20260505060830 64 315 0.0 0.0 0.00 0.00 0.00 68 994.8
20260505060800 63 315 0.0 0.0 0.00 0.00 0.00 69 994.8
20260505060731 63 315 1.7 1.7 0.00 0.00 0.00 69 994.8
20260505060722 63 292 0.0 0.0 0.00 0.00 0.00 70 994.8
20260505060631 63 292 0.0 0.0 0.00 0.00 0.00 70 994.8
20260505060601 63 292 0.0 0.0 0.00 0.00 0.00 70 994.8
20260505060530 63 292 0.0 0.0 0.00 0.00 0.00 71 994.8
20260505060522 63 292 0.0 0.0 0.00 0.00 0.00 71 994.8
20260505060431 63 292 1.7 1.7 0.00 0.00 0.00 71 994.8
20260505060401 63 292 0.0 0.0 0.00 0.00 0.00 72 994.8
20260505060331 63 292 0.0 0.0 0.00 0.00 0.00 72 994.8
20260505060301 63 292 1.7 1.7 0.00 0.00 0.00 70 994.8
20260505060231 63 292 0.0 0.0 0.00 0.00 0.00 71 994.8
20260505060222 63 292 0.0 0.0 0.00 0.00 0.00 71 994.8
20260505060131 63 292 0.0 0.0 0.00 0.00 0.00 73 994.8
20260505060101 63 292 0.0 0.0 0.00 0.00 0.00 72 995.0
20260505060052 64 292 1.7 1.7 0.00 0.00 0.00 71 995.0
20260505060001 64 292 0.0 0.0 0.00 0.00 0.00 70 995.0
20260505055931 64 292 0.9 0.9 0.00 0.00 0.00 68 995.0
20260505055901 64 292 0.0 0.0 0.00 0.00 0.00 67 995.0
20260505055830 64 292 0.0 0.0 0.00 0.00 0.00 68 995.0
20260505055800 64 292 0.0 0.0 0.00 0.00 0.00 69 995.0
20260505055731 64 292 0.0 0.0 0.00 0.00 0.00 70 995.0
20260505055701 64 292 1.7 0.0 0.00 0.00 0.00 68 995.0
20260505055631 65 292 1.7 1.7 0.00 0.00 0.00 66 995.0
20260505055601 64 292 0.0 0.0 0.00 0.00 0.00 67 994.7
20260505055532 64 292 0.0 0.0 0.00 0.00 0.00 67 994.7
20260505055502 64 292 0.0 0.0 0.00 0.00 0.00 67 994.7
20260505055500 64 292 0.0 0.0 0.00 0.00 0.00 67 994.7
20260505055434 64 292 0.0 0.0 0.00 0.00 0.00 68 994.7
20260505055301 64 292 0.0 0.0 0.00 0.00 0.00 69 994.7
20260505055231 63 292 0.9 0.9 0.00 0.00 0.00 68 994.7
20260505055201 63 292 1.7 1.7 0.00 0.00 0.00 69 994.7
20260505055130 63 292 0.0 0.0 0.00 0.00 0.00 68 994.7
20260505055100 63 292 0.0 0.0 0.00 0.00 0.00 69 994.8
20260505055030 63 292 0.0 0.0 0.00 0.00 0.00 69 994.8
20260505055001 63 292 0.0 0.0 0.00 0.00 0.00 70 994.8
20260505054931 63 292 0.0 0.0 0.00 0.00 0.00 70 994.8
20260505054901 62 292 0.0 0.0 0.00 0.00 0.00 71 994.8
20260505054831 62 292 0.0 0.0 0.00 0.00 0.00 71 994.8
20260505054801 62 292 0.0 0.0 0.00 0.00 0.00 73 994.8
20260505054731 62 292 0.9 0.9 0.00 0.00 0.00 71 994.8
20260505054722 62 292 0.9 0.9 0.00 0.00 0.00 71 994.8
20260505054631 62 292 0.0 0.0 0.00 0.00 0.00 71 994.8
20260505054601 62 292 0.0 0.0 0.00 0.00 0.00 72 995.0
20260505054531 62 292 0.0 0.0 0.00 0.00 0.00 73 995.0
20260505054522 62 292 0.0 0.0 0.00 0.00 0.00 72 995.0
20260505054430 63 292 0.0 0.0 0.00 0.00 0.00 71 995.0
20260505054400 63 292 0.0 0.0 0.00 0.00 0.00 71 995.0
20260505054352 63 292 0.9 0.9 0.00 0.00 0.00 71 995.0
20260505054301 63 292 0.0 0.0 0.00 0.00 0.00 69 995.0
20260505054230 63 292 0.0 0.0 0.00 0.00 0.00 70 995.0
20260505054222 62 292 0.0 0.0 0.00 0.00 0.00 71 995.0
20260505054153 62 292 0.0 0.0 0.00 0.00 0.00 71 995.0
20260505054100 62 292 0.0 0.0 0.00 0.00 0.00 70 994.8
20260505054031 62 292 0.0 0.0 0.00 0.00 0.00 69 994.8
20260505054022 62 292 0.0 0.0 0.00 0.00 0.00 71 994.8
20260505053931 62 292 0.0 0.0 0.00 0.00 0.00 70 994.8
20260505053900 62 292 0.0 0.0 0.00 0.00 0.00 71 994.8
20260505053830 62 292 0.0 0.0 0.00 0.00 0.00 71 994.8
20260505053802 61 292 0.0 0.0 0.00 0.00 0.00 71 994.8
20260505053752 61 292 0.0 0.0 0.00 0.00 0.00 71 994.8
20260505053732 61 292 0.0 0.0 0.00 0.00 0.00 71 994.8
20260505053704 61 292 0.0 0.0 0.00 0.00 0.00 71 994.9
20260505053701 61 292 0.0 0.0 0.00 0.00 0.00 71 994.8
20260505053531 61 292 0.0 0.0 0.00 0.00 0.00 72 994.9
20260505053521 61 292 0.0 0.0 0.00 0.00 0.00 73 994.9
20260505053431 61 292 0.0 0.0 0.00 0.00 0.00 74 994.9
20260505053401 61 292 0.0 0.0 0.00 0.00 0.00 74 994.9
20260505053332 60 292 0.9 0.9 0.00 0.00 0.00 74 994.9
20260505053301 60 292 0.0 0.0 0.00 0.00 0.00 74 994.9
20260505053231 60 292 0.0 0.0 0.00 0.00 0.00 74 994.9
20260505053201 60 292 0.0 0.0 0.00 0.00 0.00 75 994.9
20260505053131 61 292 0.9 0.9 0.00 0.00 0.00 73 994.9
20260505053100 61 292 1.7 1.7 0.00 0.00 0.00 73 994.8
20260505053052 61 292 0.0 0.0 0.00 0.00 0.00 72 994.8
20260505053001 62 292 0.9 0.9 0.00 0.00 0.00 71 994.8
20260505052930 61 292 0.0 0.0 0.00 0.00 0.00 71 994.8
20260505052901 61 292 0.0 0.0 0.00 0.00 0.00 72 994.8
20260505052830 61 292 0.0 0.0 0.00 0.00 0.00 72 994.8
20260505052801 61 292 0.0 0.0 0.00 0.00 0.00 72 994.8
20260505052731 61 292 0.0 0.0 0.00 0.00 0.00 73 994.8
20260505052700 61 292 0.0 0.0 0.00 0.00 0.00 72 994.8
20260505052630 61 292 0.0 0.0 0.00 0.00 0.00 71 994.8
20260505052600 61 292 0.0 0.0 0.00 0.00 0.00 72 994.8
20260505052531 61 292 0.0 0.0 0.00 0.00 0.00 72 994.8
20260505052501 60 292 0.0 0.0 0.00 0.00 0.00 72 994.8
20260505052431 60 292 0.0 0.0 0.00 0.00 0.00 72 994.8
20260505052402 60 292 0.0 0.0 0.00 0.00 0.00 72 994.8
20260505052330 60 292 0.0 0.0 0.00 0.00 0.00 73 994.8
20260505052301 60 292 0.0 0.0 0.00 0.00 0.00 73 994.8
20260505052232 60 292 0.0 0.0 0.00 0.00 0.00 74 994.8
20260505052201 60 292 0.0 0.0 0.00 0.00 0.00 74 994.8
20260505052130 60 292 0.0 0.0 0.00 0.00 0.00 75 994.8
20260505052101 60 292 0.0 0.0 0.00 0.00 0.00 74 994.6
20260505052055 60 292 0.0 0.0 0.00 0.00 0.00 74 994.6
20260505052031 60 292 0.0 0.0 0.00 0.00 0.00 74 994.6
20260505052023 60 292 0.0 0.0 0.00 0.00 0.00 74 994.6
20260505052005 60 292 0.0 0.0 0.00 0.00 0.00 73 994.6
20260505051831 60 292 0.0 0.0 0.00 0.00 0.00 74 994.6
20260505051822 60 292 0.0 0.0 0.00 0.00 0.00 74 994.6
20260505051731 60 292 0.0 0.0 0.00 0.00 0.00 74 994.6
20260505051700 60 292 0.0 0.0 0.00 0.00 0.00 74 994.6
20260505051651 60 292 0.9 0.9 0.00 0.00 0.00 74 994.6
20260505051623 60 292 0.0 0.0 0.00 0.00 0.00 74 994.8
20260505051531 60 292 0.0 0.0 0.00 0.00 0.00 73 994.8
20260505051501 60 292 0.0 0.0 0.00 0.00 0.00 73 994.8
20260505051430 60 292 0.0 0.0 0.00 0.00 0.00 74 994.8
20260505051400 60 292 0.0 0.0 0.00 0.00 0.00 74 994.8
20260505051331 59 292 0.0 0.0 0.00 0.00 0.00 73 994.8
20260505051300 59 292 0.0 0.0 0.00 0.00 0.00 74 994.8
20260505051230 59 292 0.0 0.0 0.00 0.00 0.00 74 994.8
20260505051200 59 292 0.0 0.0 0.00 0.00 0.00 74 994.8
20260505051131 59 292 0.0 0.0 0.00 0.00 0.00 74 994.8
20260505051100 59 292 0.0 0.0 0.00 0.00 0.00 75 994.9
20260505051030 59 292 0.0 0.0 0.00 0.00 0.00 75 994.9
20260505051000 59 292 0.0 0.0 0.00 0.00 0.00 75 994.9
20260505050931 59 292 0.0 0.0 0.00 0.00 0.00 75 994.9
20260505050900 59 292 0.0 0.0 0.00 0.00 0.00 75 994.9
20260505050830 59 292 0.0 0.0 0.00 0.00 0.00 76 994.9
20260505050800 58 292 0.0 0.0 0.00 0.00 0.00 75 994.9
20260505050730 58 292 0.0 0.0 0.00 0.00 0.00 76 994.9
20260505050700 58 292 0.0 0.0 0.00 0.00 0.00 77 994.9
20260505050630 58 292 0.0 0.0 0.00 0.00 0.00 77 994.9
20260505050600 58 292 0.0 0.0 0.00 0.00 0.00 77 994.9
20260505050530 58 292 0.0 0.0 0.00 0.00 0.00 77 994.9
20260505050500 58 292 0.0 0.0 0.00 0.00 0.00 76 994.9
20260505050430 58 292 0.0 0.0 0.00 0.00 0.00 75 994.9
20260505050421 58 292 0.0 0.0 0.00 0.00 0.00 76 994.9
20260505050334 57 292 0.0 0.0 0.00 0.00 0.00 76 994.9
20260505050330 57 292 0.0 0.0 0.00 0.00 0.00 76 994.9
20260505050322 57 292 0.0 0.0 0.00 0.00 0.00 75 994.9
20260505050304 57 292 0.0 0.0 0.00 0.00 0.00 76 994.9
20260505050130 56 292 0.0 0.0 0.00 0.00 0.00 77 994.9
20260505041730 48 292 0.0 0.0 0.00 0.00 0.00 92 994.8
20260505041700 48 292 0.0 0.0 0.00 0.00 0.00 92 994.8
20260505041642 48 292 0.0 0.0 0.00 0.00 0.00 92 994.8
20260505041631 48 292 0.0 0.0 0.00 0.00 0.00 92 994.8
20260505041627 48 292 0.0 0.0 0.00 0.00 0.00 92 994.8
20260505041530 48 292 0.0 0.0 0.00 0.00 0.00 92 994.8
20260505041430 48 292 0.0 0.0 0.00 0.00 0.00 93 994.8
20260505041400 48 292 0.0 0.0 0.00 0.00 0.00 93 994.8
20260505041330 48 292 0.0 0.0 0.00 0.00 0.00 93 994.8
20260505041300 48 292 0.0 0.0 0.00 0.00 0.00 93 994.8
20260505041233 48 292 0.0 0.0 0.00 0.00 0.00 93 994.8
20260505041230 48 292 0.0 0.0 0.00 0.00 0.00 93 994.8
20260505041221 48 292 0.0 0.0 0.00 0.00 0.00 93 994.8
20260505041203 48 292 0.0 0.0 0.00 0.00 0.00 93 994.8
20260505041030 48 292 0.0 0.0 0.00 0.00 0.00 93 994.8
20260505041000 48 292 0.0 0.0 0.00 0.00 0.00 93 994.8
20260505040930 48 292 0.0 0.0 0.00 0.00 0.00 93 994.8
20260505040921 48 292 0.0 0.0 0.00 0.00 0.00 93 994.8
20260505040829 48 292 0.0 0.0 0.00 0.00 0.00 93 994.8
20260505040800 48 292 0.0 0.0 0.00 0.00 0.00 93 994.8
20260505040730 48 292 0.0 0.0 0.00 0.00 0.00 93 994.8
20260505040700 48 292 0.0 0.0 0.00 0.00 0.00 93 994.8
20260505040630 48 292 0.0 0.0 0.00 0.00 0.00 93 994.8
20260505040559 48 292 0.0 0.0 0.00 0.00 0.00 93 994.6
20260505040530 48 292 0.0 0.0 0.00 0.00 0.00 93 994.6
20260505040521 48 292 0.0 0.0 0.00 0.00 0.00 93 994.6
20260505040430 48 292 0.0 0.0 0.00 0.00 0.00 93 994.6
20260505040421 48 292 0.0 0.0 0.00 0.00 0.00 93 994.6
20260505040330 48 292 0.0 0.0 0.00 0.00 0.00 93 994.6
20260505040300 48 292 0.0 0.0 0.00 0.00 0.00 93 994.6
20260505040230 48 292 0.0 0.0 0.00 0.00 0.00 93 994.6
20260505040200 48 292 0.0 0.0 0.00 0.00 0.00 93 994.6
20260505040130 48 292 0.0 0.0 0.00 0.00 0.00 93 994.6
20260505040121 49 292 0.0 0.0 0.00 0.00 0.00 93 994.7
20260505040051 49 292 0.0 0.0 0.00 0.00 0.00 93 994.7
20260505035959 49 292 0.0 0.0 0.00 0.00 0.00 93 994.7
20260505035930 49 292 0.0 0.0 0.00 0.00 0.00 93 994.7
20260505035900 49 292 0.0 0.0 0.00 0.00 0.00 93 994.7
20260505035830 49 292 0.0 0.0 0.00 0.00 0.00 93 994.7
20260505035800 49 292 0.0 0.0 0.00 0.00 0.00 93 994.7
20260505035730 49 292 0.0 0.0 0.00 0.00 0.00 93 994.7
20260505035700 49 292 0.0 0.0 0.00 0.00 0.00 93 994.7
20260505035629 49 292 0.0 0.0 0.00 0.00 0.00 93 994.7
20260505035600 49 292 0.0 0.0 0.00 0.00 0.00 93 994.8
20260505035533 49 292 0.0 0.0 0.00 0.00 0.00 93 994.8
20260505035530 49 292 0.0 0.0 0.00 0.00 0.00 93 994.8
20260505035524 49 292 0.0 0.0 0.00 0.00 0.00 93 994.8
20260505035503 49 292 0.0 0.0 0.00 0.00 0.00 93 994.8
20260505035330 49 292 0.0 0.0 0.00 0.00 0.00 93 994.8
20260505035300 49 292 0.0 0.0 0.00 0.00 0.00 93 994.8
20260505035230 48 292 0.0 0.0 0.00 0.00 0.00 93 994.8
20260505035200 48 292 0.0 0.0 0.00 0.00 0.00 93 994.8
20260505035130 48 292 0.0 0.0 0.00 0.00 0.00 93 994.8
20260505035100 48 292 0.0 0.0 0.00 0.00 0.00 93 994.9
20260505035030 48 292 0.0 0.0 0.00 0.00 0.00 93 994.9
20260505035000 48 292 0.0 0.0 0.00 0.00 0.00 93 994.9
20260505034930 48 292 0.0 0.0 0.00 0.00 0.00 92 994.9
20260505034900 48 292 0.0 0.0 0.00 0.00 0.00 92 994.9
20260505034830 48 292 0.0 0.0 0.00 0.00 0.00 92 994.9
20260505034803 48 292 0.0 0.0 0.00 0.00 0.00 92 994.9
20260505034735 49 292 0.0 0.0 0.00 0.00 0.00 92 994.9
20260505034700 49 292 0.0 0.0 0.00 0.00 0.00 92 994.9
20260505034631 49 292 0.0 0.0 0.00 0.00 0.00 92 994.9
20260505034600 49 292 0.0 0.0 0.00 0.00 0.00 92 994.8
20260505034551 49 292 0.0 0.0 0.00 0.00 0.00 92 994.8
20260505034500 49 292 0.0 0.0 0.00 0.00 0.00 92 994.8
20260505034451 49 292 0.0 0.0 0.00 0.00 0.00 92 994.8
20260505034400 49 292 0.0 0.0 0.00 0.00 0.00 92 994.8
20260505034330 49 292 0.0 0.0 0.00 0.00 0.00 92 994.8
20260505034259 49 292 0.0 0.0 0.00 0.00 0.00 92 994.8
20260505034230 49 292 0.0 0.0 0.00 0.00 0.00 92 994.8
20260505034200 49 292 0.0 0.0 0.00 0.00 0.00 92 994.8
20260505034129 49 292 0.0 0.0 0.00 0.00 0.00 92 994.8
20260505034100 49 292 0.0 0.0 0.00 0.00 0.00 92 995.0
20260505034030 49 292 0.0 0.0 0.00 0.00 0.00 92 995.0
20260505034000 49 292 0.0 0.0 0.00 0.00 0.00 92 995.0
20260505033930 49 292 0.0 0.0 0.00 0.00 0.00 92 995.0
20260505033901 49 292 0.0 0.0 0.00 0.00 0.00 92 995.0
20260505033833 49 292 0.0 0.0 0.00 0.00 0.00 92 995.0
20260505033700 49 292 0.0 0.0 0.00 0.00 0.00 92 995.0
20260505033630 49 292 0.0 0.0 0.00 0.00 0.00 92 995.0
20260505033600 49 292 0.0 0.0 0.00 0.00 0.00 92 994.7
20260505033530 49 292 0.0 0.0 0.00 0.00 0.00 92 994.7
20260505033500 49 292 0.0 0.0 0.00 0.00 0.00 92 994.7
20260505033431 49 292 0.0 0.0 0.00 0.00 0.00 92 994.7
20260505033400 49 292 0.0 0.0 0.00 0.00 0.00 92 994.7
20260505033330 49 292 0.0 0.0 0.00 0.00 0.00 92 994.7
20260505033300 49 292 0.0 0.0 0.00 0.00 0.00 92 994.7
20260505033230 49 292 0.0 0.0 0.00 0.00 0.00 92 994.7
20260505033200 49 292 0.0 0.0 0.00 0.00 0.00 92 994.7
20260505033130 49 292 0.0 0.0 0.00 0.00 0.00 92 994.7
20260505033059 50 292 0.0 0.0 0.00 0.00 0.00 92 995.0
20260505033029 50 292 0.0 0.0 0.00 0.00 0.00 92 995.0
20260505033000 50 292 0.0 0.0 0.00 0.00 0.00 92 995.0
20260505032951 50 292 0.0 0.0 0.00 0.00 0.00 92 995.0
20260505032859 50 292 0.0 0.0 0.00 0.00 0.00 92 995.0
20260505032829 50 292 0.0 0.0 0.00 0.00 0.00 92 995.0
20260505032822 50 292 0.0 0.0 0.00 0.00 0.00 92 995.0
20260505032730 49 292 0.0 0.0 0.00 0.00 0.00 92 995.0
20260505032659 49 292 0.0 0.0 0.00 0.00 0.00 92 995.0
20260505032630 49 292 0.0 0.0 0.00 0.00 0.00 92 995.0
20260505032600 49 292 0.0 0.0 0.00 0.00 0.00 92 995.0
20260505032530 49 292 0.0 0.0 0.00 0.00 0.00 92 995.0
20260505032500 49 292 0.0 0.0 0.00 0.00 0.00 92 995.0
20260505032430 49 292 0.0 0.0 0.00 0.00 0.00 92 995.0
20260505032359 49 292 0.0 0.0 0.00 0.00 0.00 92 995.0
20260505032329 49 292 0.0 0.0 0.00 0.00 0.00 92 995.0
20260505032259 49 292 0.0 0.0 0.00 0.00 0.00 92 995.0
20260505032251 49 292 0.0 0.0 0.00 0.00 0.00 92 995.0
20260505032200 49 292 0.0 0.0 0.00 0.00 0.00 92 995.0
20260505032132 49 292 0.0 0.0 0.00 0.00 0.00 92 995.0
20260505031959 49 292 0.0 0.0 0.00 0.00 0.00 91 995.1
20260505031930 49 292 0.0 0.0 0.00 0.00 0.00 91 995.1
20260505031859 49 292 0.0 0.0 0.00 0.00 0.00 91 995.1
20260505031830 49 292 0.0 0.0 0.00 0.00 0.00 91 995.1
20260505031759 49 292 0.0 0.0 0.00 0.00 0.00 91 995.1
20260505031729 49 292 0.0 0.0 0.00 0.00 0.00 91 995.1
20260505031659 49 292 0.0 0.0 0.00 0.00 0.00 91 995.1
20260505031630 49 292 0.0 0.0 0.00 0.00 0.00 91 995.1
20260505031600 49 292 0.0 0.0 0.00 0.00 0.00 91 995.1
20260505031530 49 292 0.0 0.0 0.00 0.00 0.00 91 995.1
20260505031459 49 292 0.0 0.0 0.00 0.00 0.00 91 995.1
20260505031430 50 292 0.0 0.0 0.00 0.00 0.00 91 995.1
20260505031359 50 292 0.0 0.0 0.00 0.00 0.00 91 995.1
20260505031329 50 292 0.0 0.0 0.00 0.00 0.00 91 995.1
20260505031301 50 292 0.0 0.0 0.00 0.00 0.00 91 995.1
20260505031229 50 292 0.0 0.0 0.00 0.00 0.00 91 995.1
20260505031159 50 292 0.0 0.0 0.00 0.00 0.00 91 995.1
20260505031129 50 292 0.0 0.0 0.00 0.00 0.00 91 995.1
20260505031059 50 292 0.0 0.0 0.00 0.00 0.00 91 995.2
20260505031030 50 292 0.0 0.0 0.00 0.00 0.00 91 995.2
20260505030959 50 292 0.0 0.0 0.00 0.00 0.00 91 995.2
20260505030931 50 292 0.0 0.0 0.00 0.00 0.00 91 995.2
20260505030900 50 292 0.0 0.0 0.00 0.00 0.00 91 995.2
20260505030830 50 292 0.0 0.0 0.00 0.00 0.00 91 995.2
20260505030759 50 292 0.0 0.0 0.00 0.00 0.00 91 995.2
20260505030729 50 292 0.0 0.0 0.00 0.00 0.00 91 995.2
20260505030659 50 292 0.0 0.0 0.00 0.00 0.00 91 995.2
20260505030629 50 292 0.0 0.0 0.00 0.00 0.00 91 995.2
20260505030600 50 292 0.0 0.0 0.00 0.00 0.00 91 995.3
20260505030529 50 292 0.0 0.0 0.00 0.00 0.00 91 995.3
20260505030500 50 292 0.0 0.0 0.00 0.00 0.00 91 995.3
20260505030459 50 292 0.0 0.0 0.00 0.00 0.00 91 995.3
20260505030452 50 292 0.0 0.0 0.00 0.00 0.00 91 995.3
20260505030259 50 292 0.0 0.0 0.00 0.00 0.00 91 995.3
20260505030229 50 292 0.0 0.0 0.00 0.00 0.00 91 995.3
20260505030200 50 292 0.0 0.0 0.00 0.00 0.00 92 995.3
20260505030129 50 292 0.0 0.0 0.00 0.00 0.00 91 995.3
20260505030100 50 292 0.0 0.0 0.00 0.00 0.00 91 995.1
20260505030029 50 292 0.0 0.0 0.00 0.00 0.00 91 995.1
20260505030000 50 292 0.0 0.0 0.00 0.00 0.00 91 995.1
20260505025929 50 292 0.0 0.0 0.00 0.00 0.00 91 995.1
20260505025859 50 292 0.0 0.0 0.00 0.00 0.00 91 995.1
20260505025851 50 292 0.0 0.0 0.00 0.00 0.00 91 995.1
20260505025820 50 292 0.0 0.0 0.00 0.00 0.00 91 995.1
20260505025729 50 292 0.0 0.0 0.00 0.00 0.00 91 995.1
20260505025659 50 292 0.0 0.0 0.00 0.00 0.00 91 995.1
20260505025629 50 292 0.0 0.0 0.00 0.00 0.00 91 995.1
20260505025559 50 292 0.0 0.0 0.00 0.00 0.00 91 995.2
20260505025530 50 292 0.0 0.0 0.00 0.00 0.00 91 995.2
20260505025459 50 292 0.0 0.0 0.00 0.00 0.00 91 995.2
20260505025429 50 292 0.0 0.0 0.00 0.00 0.00 91 995.2
20260505025359 50 292 0.0 0.0 0.00 0.00 0.00 91 995.2
20260505025329 50 292 0.0 0.0 0.00 0.00 0.00 90 995.2
20260505025259 50 292 0.0 0.0 0.00 0.00 0.00 90 995.2
20260505025229 50 292 0.0 0.0 0.00 0.00 0.00 90 995.2
20260505025200 51 292 0.0 0.0 0.00 0.00 0.00 90 995.2
20260505025129 51 292 0.0 0.0 0.00 0.00 0.00 90 995.2
20260505025059 51 292 0.0 0.0 0.00 0.00 0.00 90 995.3
20260505025029 51 292 0.0 0.0 0.00 0.00 0.00 90 995.3
20260505025020 51 292 0.0 0.0 0.00 0.00 0.00 90 995.3
20260505024929 51 292 0.0 0.0 0.00 0.00 0.00 90 995.3
20260505024859 51 292 0.0 0.0 0.00 0.00 0.00 90 995.3
20260505024829 51 292 0.0 0.0 0.00 0.00 0.00 90 995.3
20260505024800 51 292 0.0 0.0 0.00 0.00 0.00 90 995.3
20260505024730 51 292 0.0 0.0 0.00 0.00 0.00 90 995.3
20260505024659 51 292 0.0 0.0 0.00 0.00 0.00 90 995.3
20260505024629 51 292 0.0 0.0 0.00 0.00 0.00 90 995.3
20260505024559 51 292 0.0 0.0 0.00 0.00 0.00 90 995.4
20260505024551 51 292 0.0 0.0 0.00 0.00 0.00 90 995.4
20260505024459 51 292 0.0 0.0 0.00 0.00 0.00 90 995.4
20260505024429 51 292 0.0 0.0 0.00 0.00 0.00 90 995.4
20260505024359 51 292 0.0 0.0 0.00 0.00 0.00 90 995.4
20260505024330 51 292 0.0 0.0 0.00 0.00 0.00 90 995.4
20260505024258 51 292 0.0 0.0 0.00 0.00 0.00 90 995.4
20260505024229 51 292 0.0 0.0 0.00 0.00 0.00 90 995.4
20260505024159 51 292 0.0 0.0 0.00 0.00 0.00 90 995.4
20260505024130 51 292 0.0 0.0 0.00 0.00 0.00 90 995.4
20260505024059 51 292 0.0 0.0 0.00 0.00 0.00 90 995.5
20260505024050 51 292 0.0 0.0 0.00 0.00 0.00 90 995.5
20260505023959 51 292 0.0 0.0 0.00 0.00 0.00 90 995.5
20260505023929 51 292 0.0 0.0 0.00 0.00 0.00 90 995.5
20260505023901 51 292 0.0 0.0 0.00 0.00 0.00 90 995.5
20260505023829 51 292 0.0 0.0 0.00 0.00 0.00 90 995.5
20260505023820 51 292 0.0 0.0 0.00 0.00 0.00 90 995.5
20260505023729 51 292 0.0 0.0 0.00 0.00 0.00 90 995.5
20260505023659 51 292 0.0 0.0 0.00 0.00 0.00 89 995.5
20260505023629 51 292 0.0 0.0 0.00 0.00 0.00 89 995.5
20260505023559 51 292 0.0 0.0 0.00 0.00 0.00 89 995.4
20260505023531 51 292 0.0 0.0 0.00 0.00 0.00 89 995.4
20260505023459 51 292 0.0 0.0 0.00 0.00 0.00 89 995.4
20260505023428 51 292 0.0 0.0 0.00 0.00 0.00 89 995.4
20260505023403 51 292 0.0 0.0 0.00 0.00 0.00 89 995.4
20260505023330 51 292 0.0 0.0 0.00 0.00 0.00 89 995.4
20260505023305 51 292 0.0 0.0 0.00 0.00 0.00 89 995.4
20260505023252 52 292 0.0 0.0 0.00 0.00 0.00 89 995.4
20260505023222 52 292 0.0 0.0 0.00 0.00 0.00 89 995.4
20260505023129 52 292 0.0 0.0 0.00 0.00 0.00 89 995.4
20260505023121 52 292 0.0 0.0 0.00 0.00 0.00 89 995.4
20260505023031 52 292 0.0 0.0 0.00 0.00 0.00 89 995.4
20260505022959 52 292 0.0 0.0 0.00 0.00 0.00 89 995.4
20260505022929 52 292 0.0 0.0 0.00 0.00 0.00 89 995.4
20260505022859 52 292 0.0 0.0 0.00 0.00 0.00 89 995.4
20260505022830 52 292 0.0 0.0 0.00 0.00 0.00 89 995.4
20260505022758 52 292 0.0 0.0 0.00 0.00 0.00 88 995.4
20260505022731 52 292 0.0 0.0 0.00 0.00 0.00 88 995.4
20260505022658 52 292 0.0 0.0 0.00 0.00 0.00 88 995.4
20260505022628 52 292 0.0 0.0 0.00 0.00 0.00 88 995.4
20260505022558 52 292 0.0 0.0 0.00 0.00 0.00 88 995.3
20260505022531 52 292 0.0 0.0 0.00 0.00 0.00 88 995.3
20260505022459 52 292 0.0 0.0 0.00 0.00 0.00 88 995.3
20260505022431 52 292 0.0 0.0 0.00 0.00 0.00 88 995.3
20260505022401 52 292 0.0 0.0 0.00 0.00 0.00 88 995.3
20260505022329 52 292 0.0 0.0 0.00 0.00 0.00 88 995.3
20260505022320 52 292 0.0 0.0 0.00 0.00 0.00 88 995.3
20260505022229 52 292 0.0 0.0 0.00 0.00 0.00 88 995.3
20260505022159 52 292 0.0 0.0 0.00 0.00 0.00 88 995.3
20260505022129 52 292 0.0 0.0 0.00 0.00 0.00 88 995.3
20260505022058 52 292 0.0 0.0 0.00 0.00 0.00 88 995.5
20260505022028 52 292 0.0 0.0 0.00 0.00 0.00 88 995.5
20260505021959 52 292 0.0 0.0 0.00 0.00 0.00 88 995.5
20260505021950 52 292 0.0 0.0 0.00 0.00 0.00 88 995.5
20260505021858 52 292 0.0 0.0 0.00 0.00 0.00 88 995.5
20260505021829 52 292 0.0 0.0 0.00 0.00 0.00 88 995.5
20260505021820 52 292 0.0 0.0 0.00 0.00 0.00 88 995.5
20260505021728 52 292 0.0 0.0 0.00 0.00 0.00 88 995.5
20260505021659 52 292 0.0 0.0 0.00 0.00 0.00 88 995.5
20260505021630 52 292 0.0 0.0 0.00 0.00 0.00 87 995.5
20260505021559 52 292 0.0 0.0 0.00 0.00 0.00 87 995.4
20260505021526 52 292 0.0 0.0 0.00 0.00 0.00 87 995.4
20260505021428 52 292 0.0 0.0 0.00 0.00 0.00 87 995.4
20260505021358 52 292 0.0 0.0 0.00 0.00 0.00 87 995.4
20260505021328 52 292 0.0 0.0 0.00 0.00 0.00 87 995.4
20260505021258 52 292 0.0 0.0 0.00 0.00 0.00 87 995.4
20260505021228 52 292 0.0 0.0 0.00 0.00 0.00 87 995.4
20260505021158 53 292 0.0 0.0 0.00 0.00 0.00 87 995.4
20260505021130 53 292 0.0 0.0 0.00 0.00 0.00 87 995.4
20260505021121 53 292 0.0 0.0 0.00 0.00 0.00 87 995.5
20260505021029 53 292 0.0 0.0 0.00 0.00 0.00 87 995.5
20260505020959 53 292 0.0 0.0 0.00 0.00 0.00 87 995.5
20260505020928 53 292 0.0 0.0 0.00 0.00 0.00 87 995.5
20260505020901 53 292 0.0 0.0 0.00 0.00 0.00 87 995.5
20260505020828 53 292 0.0 0.0 0.00 0.00 0.00 87 995.5
20260505020758 53 292 0.0 0.0 0.00 0.00 0.00 87 995.5
20260505020728 53 292 0.0 0.0 0.00 0.00 0.00 87 995.5
20260505020658 53 292 0.0 0.0 0.00 0.00 0.00 86 995.5
20260505020628 53 292 0.0 0.0 0.00 0.00 0.00 86 995.5
20260505020559 53 292 0.0 0.0 0.00 0.00 0.00 86 995.6
20260505020529 53 292 0.0 0.0 0.00 0.00 0.00 86 995.6
20260505020500 53 292 0.0 0.0 0.00 0.00 0.00 86 995.6
20260505020431 53 292 0.0 0.0 0.00 0.00 0.00 86 995.6
20260505020358 53 292 0.0 0.0 0.00 0.00 0.00 86 995.6
20260505020328 53 292 0.0 0.0 0.00 0.00 0.00 86 995.6
20260505020258 53 292 0.0 0.0 0.00 0.00 0.00 86 995.6
20260505020228 53 292 0.0 0.0 0.00 0.00 0.00 86 995.6
20260505020159 53 292 0.0 0.0 0.00 0.00 0.00 86 995.6
20260505020128 53 292 0.0 0.0 0.00 0.00 0.00 86 995.6
20260505020058 54 292 0.0 0.0 0.00 0.00 0.00 87 995.5
20260505020028 54 292 0.0 0.0 0.00 0.00 0.00 87 995.5
20260505015958 54 292 0.0 0.0 0.00 0.00 0.00 87 995.5
20260505015928 54 292 0.0 0.0 0.00 0.00 0.00 87 995.5
20260505015858 54 292 0.0 0.0 0.00 0.00 0.00 87 995.5
20260505015830 54 292 0.0 0.0 0.00 0.00 0.00 87 995.5
20260505015758 54 292 0.0 0.0 0.00 0.00 0.00 87 995.5
20260505015728 54 292 0.0 0.0 0.00 0.00 0.00 87 995.5
20260505015658 54 292 0.0 0.0 0.00 0.00 0.00 87 995.5
20260505015628 54 292 0.0 0.0 0.00 0.00 0.00 87 995.5
20260505015558 54 292 0.0 0.0 0.00 0.00 0.00 87 995.5
20260505015528 54 292 0.0 0.0 0.00 0.00 0.00 87 995.5
20260505015458 54 292 0.0 0.0 0.00 0.00 0.00 87 995.5
20260505015428 54 292 0.0 0.0 0.00 0.00 0.00 87 995.5
20260505015419 54 292 0.0 0.0 0.00 0.00 0.00 87 995.5
20260505015350 54 292 0.0 0.0 0.00 0.00 0.00 87 995.5
20260505015258 54 292 0.0 0.0 0.00 0.00 0.00 87 995.5
20260505015249 54 292 0.0 0.0 0.00 0.00 0.00 87 995.5
20260505015158 54 292 0.0 0.0 0.00 0.00 0.00 87 995.5
20260505015127 54 292 0.0 0.0 0.00 0.00 0.00 87 995.5
20260505015058 54 292 0.0 0.0 0.00 0.00 0.00 87 995.6
20260505015028 54 292 0.0 0.0 0.00 0.00 0.00 87 995.6
20260505014958 54 292 0.0 0.0 0.00 0.00 0.00 87 995.6
20260505014928 54 292 0.0 0.0 0.00 0.00 0.00 86 995.6
20260505014858 54 292 0.0 0.0 0.00 0.00 0.00 86 995.6
20260505014828 54 292 0.0 0.0 0.00 0.00 0.00 86 995.6
20260505014800 54 292 0.0 0.0 0.00 0.00 0.00 86 995.6
20260505014728 54 292 0.0 0.0 0.00 0.00 0.00 86 995.6
20260505014658 54 292 0.0 0.0 0.00 0.00 0.00 86 995.6
20260505014628 54 292 0.0 0.0 0.00 0.00 0.00 86 995.6
20260505014559 54 292 0.0 0.0 0.00 0.00 0.00 86 995.5
20260505014529 54 292 0.0 0.0 0.00 0.00 0.00 86 995.5
20260505014458 54 292 0.0 0.0 0.00 0.00 0.00 86 995.5
20260505014429 54 292 0.0 0.0 0.00 0.00 0.00 86 995.5
20260505014419 54 292 0.0 0.0 0.00 0.00 0.00 86 995.5
20260505014330 54 292 0.0 0.0 0.00 0.00 0.00 86 995.5
20260505014300 54 292 0.0 0.0 0.00 0.00 0.00 86 995.5
20260505014228 54 292 0.0 0.0 0.00 0.00 0.00 86 995.5
20260505014159 54 292 0.0 0.0 0.00 0.00 0.00 86 995.5
20260505014128 54 292 0.0 0.0 0.00 0.00 0.00 86 995.5
20260505014059 54 292 0.0 0.0 0.00 0.00 0.00 86 995.5
20260505014028 54 292 0.0 0.0 0.00 0.00 0.00 86 995.5
20260505013958 54 292 0.0 0.0 0.00 0.00 0.00 86 995.5
20260505013953 54 292 0.0 0.0 0.00 0.00 0.00 86 995.5
20260505013858 54 292 0.0 0.0 0.00 0.00 0.00 85 995.5
20260505013829 54 292 0.0 0.0 0.00 0.00 0.00 85 995.5
20260505013758 54 292 0.0 0.0 0.00 0.00 0.00 85 995.5
20260505013728 54 292 0.0 0.0 0.00 0.00 0.00 85 995.5
20260505013658 54 292 0.0 0.0 0.00 0.00 0.00 85 995.5
20260505013628 54 292 0.0 0.0 0.00 0.00 0.00 85 995.5
20260505013600 55 292 0.0 0.0 0.00 0.00 0.00 85 995.5
20260505013549 55 292 0.0 0.0 0.00 0.00 0.00 85 995.5
20260505013458 55 292 0.0 0.0 0.00 0.00 0.00 85 995.5
20260505013428 55 292 0.0 0.0 0.00 0.00 0.00 85 995.5
20260505013358 55 292 0.0 0.0 0.00 0.00 0.00 85 995.5
20260505013329 55 292 0.0 0.0 0.00 0.00 0.00 85 995.5
20260505013259 55 292 0.0 0.0 0.00 0.00 0.00 85 995.5
20260505013228 55 292 0.0 0.0 0.00 0.00 0.00 85 995.5
20260505013200 55 292 0.0 0.0 0.00 0.00 0.00 85 995.5
20260505013150 55 292 0.0 0.0 0.00 0.00 0.00 85 995.5
20260505013058 55 292 0.0 0.0 0.00 0.00 0.00 85 995.7
20260505013028 55 292 0.0 0.0 0.00 0.00 0.00 85 995.7
20260505012958 55 292 0.0 0.0 0.00 0.00 0.00 85 995.7
20260505012928 55 292 0.0 0.0 0.00 0.00 0.00 84 995.7
20260505012858 55 292 0.0 0.0 0.00 0.00 0.00 84 995.7
20260505012828 55 292 0.0 0.0 0.00 0.00 0.00 84 995.7
20260505012758 55 292 0.0 0.0 0.00 0.00 0.00 85 995.7
20260505012728 55 292 0.0 0.0 0.00 0.00 0.00 85 995.7
20260505012658 55 292 0.0 0.0 0.00 0.00 0.00 85 995.7
20260505012627 55 292 0.0 0.0 0.00 0.00 0.00 85 995.7
20260505012558 55 292 0.0 0.0 0.00 0.00 0.00 85 995.6
20260505012528 55 292 0.0 0.0 0.00 0.00 0.00 85 995.6
20260505012457 55 292 0.0 0.0 0.00 0.00 0.00 85 995.6
20260505012448 55 292 0.0 0.0 0.00 0.00 0.00 85 995.6
20260505012358 55 292 0.0 0.0 0.00 0.00 0.00 85 995.6
20260505012327 55 292 0.0 0.0 0.00 0.00 0.00 85 995.6
20260505012258 55 292 0.0 0.0 0.00 0.00 0.00 85 995.6
20260505012228 55 292 0.0 0.0 0.00 0.00 0.00 85 995.6
20260505012157 55 292 0.0 0.0 0.00 0.00 0.00 85 995.6
20260505012149 55 292 0.0 0.0 0.00 0.00 0.00 85 995.6
20260505012057 55 292 0.0 0.0 0.00 0.00 0.00 85 995.7
20260505012028 55 292 0.0 0.0 0.00 0.00 0.00 85 995.7
20260505011958 55 292 0.0 0.0 0.00 0.00 0.00 85 995.7
20260505011927 55 292 0.0 0.0 0.00 0.00 0.00 85 995.7
20260505011858 55 292 0.0 0.0 0.00 0.00 0.00 85 995.7
20260505011828 55 292 0.0 0.0 0.00 0.00 0.00 85 995.7
20260505011758 55 292 0.0 0.0 0.00 0.00 0.00 85 995.7
20260505011728 55 292 0.0 0.0 0.00 0.00 0.00 85 995.7
20260505011658 55 292 0.0 0.0 0.00 0.00 0.00 85 995.7
20260505011628 55 292 0.0 0.0 0.00 0.00 0.00 85 995.7
20260505011557 55 292 0.0 0.0 0.00 0.00 0.00 85 995.7
20260505011528 55 292 0.0 0.0 0.00 0.00 0.00 85 995.7
20260505011457 55 292 0.0 0.0 0.00 0.00 0.00 85 995.7
20260505011428 55 292 0.0 0.0 0.00 0.00 0.00 85 995.7
20260505011358 55 292 0.0 0.0 0.00 0.00 0.00 85 995.7
20260505011327 55 292 0.0 0.0 0.00 0.00 0.00 85 995.7
20260505011258 55 292 0.0 0.0 0.00 0.00 0.00 85 995.7
20260505011228 55 292 0.0 0.0 0.00 0.00 0.00 85 995.7
20260505011158 55 292 0.0 0.0 0.00 0.00 0.00 85 995.7
20260505011128 55 292 0.0 0.0 0.00 0.00 0.00 85 995.7
20260505011059 55 292 0.0 0.0 0.00 0.00 0.00 85 995.6
20260505011028 55 292 0.0 0.0 0.00 0.00 0.00 85 995.6
20260505010958 55 292 0.0 0.0 0.00 0.00 0.00 84 995.6
20260505010928 55 292 0.0 0.0 0.00 0.00 0.00 84 995.6
20260505010857 55 292 0.0 0.0 0.00 0.00 0.00 84 995.6
20260505010829 55 292 0.0 0.0 0.00 0.00 0.00 84 995.6
20260505010819 55 292 0.0 0.0 0.00 0.00 0.00 84 995.6
20260505010750 55 292 0.0 0.0 0.00 0.00 0.00 84 995.6
20260505010718 55 292 0.0 0.0 0.00 0.00 0.00 84 995.6
20260505010628 55 292 0.0 0.0 0.00 0.00 0.00 84 995.6
20260505010558 55 292 0.0 0.0 0.00 0.00 0.00 84 995.6
20260505010528 55 292 0.0 0.0 0.00 0.00 0.00 84 995.6
20260505010457 55 292 0.0 0.0 0.00 0.00 0.00 84 995.6
20260505010451 55 292 0.0 0.0 0.00 0.00 0.00 84 995.6
20260505010358 55 292 0.0 0.0 0.00 0.00 0.00 84 995.6
20260505010328 56 292 0.0 0.0 0.00 0.00 0.00 84 995.6
20260505010258 56 292 0.0 0.0 0.00 0.00 0.00 84 995.6
20260505010231 56 292 0.0 0.0 0.00 0.00 0.00 84 995.6
20260505010158 56 292 0.0 0.0 0.00 0.00 0.00 84 995.6
20260505010130 56 292 0.0 0.0 0.00 0.00 0.00 84 995.6
20260505010057 56 292 0.0 0.0 0.00 0.00 0.00 83 995.9
20260505010049 56 292 0.0 0.0 0.00 0.00 0.00 83 995.9
20260505005958 56 292 0.0 0.0 0.00 0.00 0.00 83 995.9
20260505005927 56 292 0.0 0.0 0.00 0.00 0.00 83 995.9
20260505005857 56 292 0.0 0.0 0.00 0.00 0.00 83 995.9
20260505005827 56 292 0.0 0.0 0.00 0.00 0.00 83 995.9
20260505005818 56 292 0.0 0.0 0.00 0.00 0.00 83 995.9
20260505005728 56 292 0.0 0.0 0.00 0.00 0.00 83 995.9
20260505005657 56 292 0.0 0.0 0.00 0.00 0.00 83 995.9
20260505005627 56 292 0.0 0.0 0.00 0.00 0.00 83 995.9
20260505005557 56 292 0.0 0.0 0.00 0.00 0.00 83 995.8
20260505005528 56 292 0.0 0.0 0.00 0.00 0.00 83 995.8
20260505005457 56 292 0.0 0.0 0.00 0.00 0.00 83 995.8
20260505005428 56 292 0.0 0.0 0.00 0.00 0.00 83 995.8
20260505005357 56 292 0.0 0.0 0.00 0.00 0.00 83 995.8
20260505005327 56 292 0.0 0.0 0.00 0.00 0.00 83 995.8
20260505005258 56 292 0.0 0.0 0.00 0.00 0.00 82 995.8
20260505005227 56 292 0.0 0.0 0.00 0.00 0.00 82 995.8
20260505005158 56 292 0.0 0.0 0.00 0.00 0.00 82 995.8
20260505005127 56 292 0.0 0.0 0.00 0.00 0.00 82 995.8
20260505005058 56 292 0.0 0.0 0.00 0.00 0.00 82 995.8
20260505005027 56 292 0.0 0.0 0.00 0.00 0.00 82 995.8
20260505004957 56 292 0.0 0.0 0.00 0.00 0.00 82 995.8
20260505004927 56 292 0.0 0.0 0.00 0.00 0.00 82 995.8
20260505004919 56 292 0.0 0.0 0.00 0.00 0.00 82 995.8
20260505004827 56 292 0.0 0.0 0.00 0.00 0.00 82 995.8
20260505004757 57 292 0.0 0.0 0.00 0.00 0.00 82 995.8
20260505004727 57 292 0.0 0.0 0.00 0.00 0.00 82 995.8
20260505004658 57 292 0.0 0.0 0.00 0.00 0.00 82 995.8
20260505004627 57 292 0.0 0.0 0.00 0.00 0.00 81 995.8
20260505004557 57 292 0.0 0.0 0.00 0.00 0.00 81 995.8
20260505004527 57 292 0.0 0.0 0.00 0.00 0.00 82 995.8
20260505004457 57 292 0.0 0.0 0.00 0.00 0.00 82 995.8
20260505004427 57 292 0.0 0.0 0.00 0.00 0.00 81 995.8
20260505004357 57 292 0.0 0.0 0.00 0.00 0.00 81 995.8
20260505004328 57 292 0.0 0.0 0.00 0.00 0.00 81 995.8
20260505004257 57 292 0.0 0.0 0.00 0.00 0.00 82 995.8
20260505004248 57 292 0.0 0.0 0.00 0.00 0.00 82 995.8
20260505004157 57 292 0.0 0.0 0.00 0.00 0.00 81 995.8
20260505004129 57 292 0.0 0.0 0.00 0.00 0.00 81 995.8
20260505004118 57 292 0.0 0.0 0.00 0.00 0.00 82 995.9
20260505004027 57 292 0.0 0.0 0.00 0.00 0.00 82 995.9
20260505003958 57 292 0.0 0.0 0.00 0.00 0.00 82 995.9
20260505003927 57 292 0.0 0.0 0.00 0.00 0.00 82 995.9
20260505003918 57 292 0.0 0.0 0.00 0.00 0.00 82 995.9
20260505003828 57 292 0.0 0.0 0.00 0.00 0.00 82 995.9
20260505003757 57 292 0.0 0.0 0.00 0.00 0.00 82 995.9
20260505003728 57 292 0.0 0.0 0.00 0.00 0.00 82 995.9
20260505003658 57 292 0.0 0.0 0.00 0.00 0.00 81 995.9
20260505003628 57 292 0.0 0.0 0.00 0.00 0.00 81 995.9
20260505003557 57 292 0.0 0.0 0.00 0.00 0.00 81 995.7
20260505003549 57 292 0.0 0.0 0.00 0.00 0.00 81 995.7
20260505003458 57 292 0.0 0.0 0.00 0.00 0.00 81 995.7
20260505003428 57 292 0.0 0.0 0.00 0.00 0.00 81 995.7
20260505003358 57 292 0.0 0.0 0.00 0.00 0.00 81 995.7
20260505003327 57 292 0.0 0.0 0.00 0.00 0.00 81 995.7
20260505003318 57 292 0.0 0.0 0.00 0.00 0.00 81 995.7
20260505003228 57 292 0.0 0.0 0.00 0.00 0.00 81 995.7
20260505003158 57 292 0.0 0.0 0.00 0.00 0.00 81 995.7
20260505003127 57 292 0.0 0.0 0.00 0.00 0.00 81 995.7
20260505003057 57 292 0.0 0.0 0.00 0.00 0.00 81 996.1
20260505003049 57 292 0.0 0.0 0.00 0.00 0.00 81 996.1
20260505003019 57 292 0.0 0.0 0.00 0.00 0.00 81 996.1
20260505002928 57 292 0.0 0.0 0.00 0.00 0.00 81 996.1
20260505002857 57 292 0.0 0.0 0.00 0.00 0.00 81 996.1
20260505002827 57 292 0.0 0.0 0.00 0.00 0.00 81 996.1
20260505002758 57 292 0.0 0.0 0.00 0.00 0.00 81 996.1
20260505002727 57 292 0.0 0.0 0.00 0.00 0.00 81 996.1
20260505002657 57 292 0.0 0.0 0.00 0.00 0.00 81 996.1
20260505002628 57 292 0.0 0.0 0.00 0.00 0.00 81 996.1
20260505002557 57 292 0.0 0.0 0.00 0.00 0.00 81 995.9
20260505002528 57 292 0.0 0.0 0.00 0.00 0.00 81 995.9
20260505002458 57 292 0.0 0.0 0.00 0.00 0.00 81 995.9
20260505002428 58 292 0.0 0.0 0.00 0.00 0.00 81 995.9
20260505002357 58 292 0.0 0.0 0.00 0.00 0.00 81 995.9
20260505002327 58 292 0.0 0.0 0.00 0.00 0.00 81 995.9
20260505002318 58 292 0.0 0.0 0.00 0.00 0.00 81 995.9
20260505002227 58 292 0.0 0.0 0.00 0.00 0.00 81 995.9
20260505002158 58 292 0.0 0.0 0.00 0.00 0.00 81 995.9
20260505002128 58 292 0.0 0.0 0.00 0.00 0.00 81 995.9
20260505002057 58 292 0.0 0.0 0.00 0.00 0.00 81 996.0
20260505002028 58 292 0.0 0.0 0.00 0.00 0.00 81 996.0
20260505001958 58 292 0.0 0.0 0.00 0.00 0.00 80 996.0
20260505001928 58 292 0.0 0.0 0.00 0.00 0.00 80 996.0
20260505001858 58 292 0.0 0.0 0.00 0.00 0.00 80 996.0
20260505001849 58 292 0.0 0.0 0.00 0.00 0.00 80 996.0
20260505001758 58 292 0.0 0.0 0.00 0.00 0.00 80 996.0
20260505001727 58 292 0.0 0.0 0.00 0.00 0.00 80 996.0
20260505001658 58 292 0.0 0.0 0.00 0.00 0.00 80 996.0
20260505001627 58 292 0.0 0.0 0.00 0.00 0.00 80 996.0
20260505001557 58 292 0.0 0.0 0.00 0.00 0.00 80 995.9
20260505001525 58 292 0.0 0.0 0.00 0.00 0.00 80 995.9
20260505001427 58 292 0.0 0.0 0.00 0.00 0.00 80 995.9
20260505001358 58 292 0.0 0.0 0.00 0.00 0.00 80 995.9
20260505001327 58 292 0.0 0.0 0.00 0.00 0.00 80 995.9
20260505001257 58 292 0.0 0.0 0.00 0.00 0.00 79 995.9
20260505001227 58 292 0.0 0.0 0.00 0.00 0.00 79 995.9
20260505001157 58 292 0.0 0.0 0.00 0.00 0.00 79 995.9
20260505001127 58 292 0.0 0.0 0.00 0.00 0.00 79 995.9
20260505001057 58 292 0.0 0.0 0.00 0.00 0.00 79 995.9
20260505001027 58 292 0.0 0.0 0.00 0.00 0.00 79 995.9
20260505000958 58 292 0.0 0.0 0.00 0.00 0.00 79 995.9
20260505000928 58 292 0.0 0.0 0.00 0.00 0.00 79 995.9
20260505000858 58 292 0.0 0.0 0.00 0.00 0.00 79 995.9
20260505000827 58 292 0.0 0.0 0.00 0.00 0.00 79 995.9
20260505000758 58 292 0.0 0.0 0.00 0.00 0.00 79 995.9
20260505000727 58 292 0.0 0.0 0.00 0.00 0.00 79 995.9
20260505000718 58 292 0.0 0.0 0.00 0.00 0.00 79 995.9
20260505000627 58 292 0.0 0.0 0.00 0.00 0.00 79 995.9
20260505000557 58 292 0.0 0.0 0.00 0.00 0.00 79 996.1
20260505000528 58 292 0.0 0.0 0.00 0.00 0.00 79 996.1
20260505000457 58 292 0.0 0.0 0.00 0.00 0.00 79 996.1
20260505000449 58 292 0.0 0.0 0.00 0.00 0.00 79 996.1
20260505000358 58 292 0.0 0.0 0.00 0.00 0.00 79 996.1
20260505000327 58 292 0.0 0.0 0.00 0.00 0.00 79 996.1
20260505000257 58 292 0.0 0.0 0.00 0.00 0.00 79 996.1
20260505000227 58 292 0.0 0.0 0.00 0.00 0.00 79 996.1
20260505000159 58 292 0.0 0.0 0.00 0.00 0.00 79 996.1
20260505000149 58 292 0.0 0.0 0.00 0.00 0.00 79 996.1
20260505000057 59 292 0.0 0.0 0.00 0.00 0.00 78 995.9
20260505000049 59 292 0.0 0.0 0.00 0.00 0.00 78 995.9
20260504235957 59 292 0.0 0.0 0.00 0.00 0.00 78 995.9
20260504235927 59 292 0.0 0.0 0.00 0.00 0.00 78 995.9
20260504235857 59 292 0.0 0.0 0.00 0.00 0.00 78 995.9
20260504235827 59 292 0.0 0.0 0.00 0.00 0.00 78 995.9
20260504235757 59 292 0.0 0.0 0.00 0.00 0.00 78 995.9
20260504235728 59 292 0.0 0.0 0.00 0.00 0.00 78 995.9
20260504235658 59 292 0.0 0.0 0.00 0.00 0.00 78 995.9
20260504235628 59 292 0.0 0.0 0.00 0.00 0.00 78 995.9
20260504235618 59 292 0.0 0.0 0.00 0.00 0.00 78 996.1
20260504235527 59 292 0.0 0.0 0.00 0.00 0.00 78 996.1
20260504235519 59 292 0.0 0.0 0.00 0.00 0.00 78 996.1
20260504235427 59 292 0.0 0.0 0.00 0.00 0.00 77 996.1
20260504235358 59 292 0.0 0.0 0.00 0.00 0.00 77 996.1
20260504235328 59 292 0.0 0.0 0.00 0.00 0.00 77 996.1
20260504235258 59 292 0.0 0.0 0.00 0.00 0.00 77 996.1
20260504235248 59 292 0.0 0.0 0.00 0.00 0.00 77 996.1
20260504235218 59 292 0.0 0.0 0.00 0.00 0.00 77 996.1
20260504235127 59 292 0.0 0.0 0.00 0.00 0.00 77 996.1
20260504235058 59 292 0.0 0.0 0.00 0.00 0.00 77 996.0
20260504235027 59 292 0.0 0.0 0.00 0.00 0.00 77 996.0
20260504234958 59 292 0.0 0.0 0.00 0.00 0.00 77 996.0
20260504234949 59 292 0.0 0.0 0.00 0.00 0.00 77 996.0
20260504234919 59 292 0.0 0.0 0.00 0.00 0.00 77 996.0
20260504234827 59 292 0.0 0.0 0.00 0.00 0.00 77 996.0
20260504234757 59 292 0.0 0.0 0.00 0.00 0.00 77 996.0
20260504234727 59 292 0.0 0.0 0.00 0.00 0.00 77 996.0
20260504234658 59 292 0.0 0.0 0.00 0.00 0.00 77 996.0
20260504234649 59 292 0.0 0.0 0.00 0.00 0.00 77 996.0
20260504234558 59 292 0.0 0.0 0.00 0.00 0.00 77 996.0
20260504234528 59 292 0.0 0.0 0.00 0.00 0.00 77 996.0
20260504234457 59 292 0.0 0.0 0.00 0.00 0.00 77 996.0
20260504234427 59 292 0.0 0.0 0.00 0.00 0.00 77 996.0
20260504234358 59 292 0.0 0.0 0.00 0.00 0.00 77 996.0
20260504234348 59 292 0.0 0.0 0.00 0.00 0.00 77 996.0
20260504234257 59 292 0.0 0.0 0.00 0.00 0.00 77 996.0
20260504234248 59 292 0.0 0.0 0.00 0.00 0.00 77 996.0
20260504234158 59 292 0.0 0.0 0.00 0.00 0.00 78 996.0
20260504234127 59 292 0.0 0.0 0.00 0.00 0.00 78 996.0
20260504234058 59 292 0.0 0.0 0.00 0.00 0.00 77 996.2
20260504234049 59 292 0.0 0.0 0.00 0.00 0.00 77 996.2
20260504233958 59 292 0.0 0.0 0.00 0.00 0.00 77 996.2
20260504233928 59 292 0.0 0.0 0.00 0.00 0.00 77 996.2
20260504233858 59 292 0.0 0.0 0.00 0.00 0.00 77 996.2
20260504233827 59 292 0.0 0.0 0.00 0.00 0.00 78 996.2
20260504233757 59 292 0.0 0.0 0.00 0.00 0.00 78 996.2
20260504233727 59 292 0.0 0.0 0.00 0.00 0.00 78 996.2
20260504233657 59 292 0.0 0.0 0.00 0.00 0.00 78 996.2
20260504233627 59 292 0.0 0.0 0.00 0.00 0.00 78 996.2
20260504233618 59 292 0.0 0.0 0.00 0.00 0.00 78 996.3
20260504233529 59 292 0.0 0.0 0.00 0.00 0.00 78 996.3
20260504233458 59 292 0.0 0.0 0.00 0.00 0.00 78 996.3
20260504233428 59 292 0.0 0.0 0.00 0.00 0.00 78 996.3
20260504233357 59 292 0.0 0.0 0.00 0.00 0.00 78 996.3
20260504233328 59 292 0.0 0.0 0.00 0.00 0.00 78 996.3
20260504233257 59 292 0.0 0.0 0.00 0.00 0.00 78 996.3
20260504233227 59 292 0.0 0.0 0.00 0.00 0.00 78 996.3
20260504233157 59 292 0.0 0.0 0.00 0.00 0.00 77 996.3
20260504233127 59 292 0.0 0.0 0.00 0.00 0.00 77 996.3
20260504233057 59 292 0.0 0.0 0.00 0.00 0.00 78 996.2
20260504233027 59 292 0.0 0.0 0.00 0.00 0.00 78 996.2
20260504232957 59 292 0.0 0.0 0.00 0.00 0.00 78 996.2
20260504232928 59 292 0.0 0.0 0.00 0.00 0.00 78 996.2
20260504232858 59 292 0.0 0.0 0.00 0.00 0.00 77 996.2
20260504232828 59 292 0.0 0.0 0.00 0.00 0.00 78 996.2
20260504232819 59 292 0.0 0.0 0.00 0.00 0.00 77 996.2
20260504232727 59 292 0.0 0.0 0.00 0.00 0.00 78 996.2
20260504232657 59 292 0.0 0.0 0.00 0.00 0.00 78 996.2
20260504232627 59 292 0.0 0.0 0.00 0.00 0.00 78 996.2
20260504232557 59 292 0.0 0.0 0.00 0.00 0.00 78 996.2
20260504232528 59 292 0.0 0.0 0.00 0.00 0.00 78 996.2
20260504232457 59 292 0.0 0.0 0.00 0.00 0.00 78 996.2
20260504232427 59 292 0.0 0.0 0.00 0.00 0.00 78 996.2
20260504232358 59 292 1.7 1.7 0.00 0.00 0.00 78 996.2
20260504232327 59 315 0.0 0.0 0.00 0.00 0.00 78 996.2
20260504232257 59 315 0.0 0.0 0.00 0.00 0.00 78 996.2
20260504232227 59 315 0.0 0.0 0.00 0.00 0.00 78 996.2
20260504232158 59 315 0.0 0.0 0.00 0.00 0.00 78 996.2
20260504232127 59 315 0.0 0.0 0.00 0.00 0.00 78 996.2
20260504232059 59 315 0.0 0.0 0.00 0.00 0.00 77 996.2
20260504232027 59 315 0.0 0.0 0.00 0.00 0.00 77 996.2
20260504232018 59 315 1.7 1.7 0.00 0.00 0.00 78 996.2
20260504231931 59 315 0.0 0.0 0.00 0.00 0.00 78 996.2
20260504231857 59 315 0.0 0.0 0.00 0.00 0.00 78 996.2
20260504231827 59 315 0.0 0.0 0.00 0.00 0.00 78 996.2
20260504231757 59 315 0.0 0.0 0.00 0.00 0.00 78 996.2
20260504231727 59 315 0.0 0.0 0.00 0.00 0.00 78 996.2
20260504231658 59 315 0.0 0.0 0.00 0.00 0.00 78 996.2
20260504231627 59 315 0.0 0.0 0.00 0.00 0.00 78 996.2
20260504231557 59 315 0.0 0.0 0.00 0.00 0.00 78 996.4
20260504231527 59 315 0.0 0.0 0.00 0.00 0.00 78 996.4
20260504231457 59 315 0.0 0.0 0.00 0.00 0.00 78 996.4
20260504231427 59 315 0.0 0.0 0.00 0.00 0.00 78 996.4
20260504231357 59 315 0.0 0.0 0.00 0.00 0.00 78 996.4
20260504231327 59 315 0.0 0.0 0.00 0.00 0.00 78 996.4
20260504231257 59 315 0.0 0.0 0.00 0.00 0.00 78 996.4
20260504231248 59 315 0.0 0.0 0.00 0.00 0.00 78 996.4
20260504231219 59 315 0.0 0.0 0.00 0.00 0.00 78 996.4
20260504231127 59 315 0.0 0.0 0.00 0.00 0.00 78 996.4
20260504231058 59 315 0.0 0.0 0.00 0.00 0.00 78 996.4
20260504231027 59 315 0.0 0.0 0.00 0.00 0.00 78 996.4
20260504231018 59 315 0.0 0.0 0.00 0.00 0.00 78 996.4
20260504230927 59 315 0.0 0.0 0.00 0.00 0.00 78 996.4
20260504230857 59 315 0.0 0.0 0.00 0.00 0.00 78 996.4
20260504230828 59 315 0.0 0.0 0.00 0.00 0.00 78 996.4
20260504230757 59 315 0.0 0.0 0.00 0.00 0.00 78 996.4
20260504230727 59 315 0.0 0.0 0.00 0.00 0.00 78 996.4
20260504230657 59 315 0.0 0.0 0.00 0.00 0.00 77 996.4
20260504230627 59 315 0.0 0.0 0.00 0.00 0.00 77 996.4
20260504230558 59 315 0.0 0.0 0.00 0.00 0.00 77 996.5
20260504230548 59 315 0.0 0.0 0.00 0.00 0.00 77 996.5
20260504230458 59 315 1.7 1.7 0.00 0.00 0.00 77 996.5
20260504230449 59 315 0.0 0.0 0.00 0.00 0.00 77 996.5
20260504230358 59 315 0.0 0.0 0.00 0.00 0.00 77 996.5
20260504230328 59 315 0.0 0.0 0.00 0.00 0.00 77 996.5
20260504230257 59 315 0.0 0.0 0.00 0.00 0.00 77 996.5
20260504230227 59 315 0.0 0.0 0.00 0.00 0.00 77 996.5
20260504230157 59 315 0.0 0.0 0.00 0.00 0.00 77 996.5
20260504230127 59 292 0.0 0.0 0.00 0.00 0.00 77 996.5
20260504230057 59 292 0.0 0.0 0.00 0.00 0.00 77 996.5
20260504230033 59 292 0.0 0.0 0.00 0.00 0.00 77 996.5
20260504225957 59 292 0.0 0.0 0.00 0.00 0.00 77 996.5
20260504225927 59 315 0.0 0.0 0.00 0.00 0.00 77 996.5
20260504225858 59 292 0.0 0.0 0.00 0.00 0.00 77 996.5
20260504225827 59 292 0.0 0.0 0.00 0.00 0.00 77 996.5
20260504225757 59 315 0.0 0.0 0.00 0.00 0.00 77 996.5
20260504225748 59 315 1.7 1.7 0.00 0.00 0.00 77 996.5
20260504225657 59 315 0.0 0.0 0.00 0.00 0.00 77 996.5
20260504225627 59 315 0.0 0.0 0.00 0.00 0.00 77 996.5
20260504225557 59 315 0.0 0.0 0.00 0.00 0.00 77 996.6
20260504225527 59 315 0.0 0.0 0.00 0.00 0.00 77 996.6
20260504225457 59 315 0.0 0.0 0.00 0.00 0.00 77 996.6
20260504225427 59 315 0.0 0.0 0.00 0.00 0.00 77 996.6
20260504225357 59 315 0.0 0.0 0.00 0.00 0.00 77 996.6
20260504225327 59 315 0.0 0.0 0.00 0.00 0.00 77 996.6
20260504225258 59 315 0.0 0.0 0.00 0.00 0.00 77 996.6
20260504225227 59 315 0.0 0.0 0.00 0.00 0.00 77 996.6
20260504225157 59 315 0.9 0.9 0.00 0.00 0.00 77 996.6
20260504225127 59 315 0.0 0.0 0.00 0.00 0.00 77 996.6
20260504225057 59 315 0.0 0.0 0.00 0.00 0.00 77 996.6
20260504225027 59 315 0.0 0.0 0.00 0.00 0.00 77 996.6
20260504224957 59 315 0.0 0.0 0.00 0.00 0.00 77 996.6
20260504224928 59 315 0.0 0.0 0.00 0.00 0.00 77 996.6
20260504224857 59 315 0.0 0.0 0.00 0.00 0.00 77 996.6
20260504224827 60 315 0.0 0.0 0.00 0.00 0.00 77 996.6
20260504224757 60 315 0.0 0.0 0.00 0.00 0.00 77 996.6
20260504224727 60 315 0.0 0.0 0.00 0.00 0.00 77 996.6
20260504224657 60 315 0.0 0.0 0.00 0.00 0.00 77 996.6
20260504224627 60 315 0.0 0.0 0.00 0.00 0.00 77 996.6
20260504224558 60 315 0.0 0.0 0.00 0.00 0.00 77 996.6
20260504224548 60 315 0.0 0.0 0.00 0.00 0.00 77 996.6
20260504224457 60 315 1.7 1.7 0.00 0.00 0.00 77 996.6
20260504224427 60 315 0.0 0.0 0.00 0.00 0.00 76 996.6
20260504224357 60 315 0.0 0.0 0.00 0.00 0.00 76 996.6
20260504224327 60 315 0.0 0.0 0.00 0.00 0.00 76 996.6
20260504224257 60 315 0.0 0.0 0.00 0.00 0.00 77 996.6
20260504224227 60 315 0.0 0.0 0.00 0.00 0.00 77 996.6
20260504224157 60 315 0.0 0.0 0.00 0.00 0.00 77 996.6
20260504224127 60 315 0.0 0.0 0.00 0.00 0.00 77 996.6
20260504224057 60 315 0.0 0.0 0.00 0.00 0.00 77 996.7
20260504224027 60 315 0.0 0.0 0.00 0.00 0.00 76 996.7
20260504223957 60 315 0.0 0.0 0.00 0.00 0.00 76 996.7
20260504223927 60 315 0.0 0.0 0.00 0.00 0.00 76 996.7
20260504223857 60 315 0.0 0.0 0.00 0.00 0.00 76 996.7
20260504223827 60 315 0.0 0.0 0.00 0.00 0.00 76 996.7
20260504223757 60 315 0.0 0.0 0.00 0.00 0.00 76 996.7
20260504223727 60 315 0.0 0.0 0.00 0.00 0.00 76 996.7
20260504223657 60 315 0.0 0.0 0.00 0.00 0.00 76 996.7
20260504223627 60 315 0.9 0.9 0.00 0.00 0.00 76 996.7
20260504223557 60 315 0.0 0.0 0.00 0.00 0.00 76 996.7
20260504223528 60 315 0.0 0.0 0.00 0.00 0.00 76 996.7
20260504223458 60 315 0.9 0.9 0.00 0.00 0.00 76 996.7
20260504223427 60 315 0.0 0.0 0.00 0.00 0.00 76 996.7
20260504223418 60 315 0.0 0.0 0.00 0.00 0.00 76 996.7
20260504223327 60 315 0.0 0.0 0.00 0.00 0.00 76 996.7
20260504223258 60 315 0.0 0.0 0.00 0.00 0.00 76 996.7
20260504223227 60 315 1.7 1.7 0.00 0.00 0.00 76 996.7
20260504223157 60 315 0.0 0.0 0.00 0.00 0.00 76 996.7
20260504223127 60 315 0.0 0.0 0.00 0.00 0.00 76 996.7
20260504223057 60 315 0.0 0.0 0.00 0.00 0.00 76 996.7
20260504223028 60 315 0.0 0.0 0.00 0.00 0.00 76 996.7
20260504222957 60 315 0.0 0.0 0.00 0.00 0.00 75 996.7
20260504222927 60 315 1.7 1.7 0.00 0.00 0.00 75 996.7
20260504222918 60 315 0.0 0.0 0.00 0.00 0.00 75 996.7
20260504222827 60 315 1.7 1.7 0.00 0.00 0.00 75 996.7
20260504222757 60 315 0.0 0.0 0.00 0.00 0.00 75 996.7
20260504222727 60 315 0.0 0.0 0.00 0.00 0.00 75 996.7
20260504222718 60 315 1.7 1.7 0.00 0.00 0.00 75 996.7
20260504222627 60 315 0.9 0.9 0.00 0.00 0.00 75 996.7
20260504222557 60 315 0.0 0.0 0.00 0.00 0.00 75 996.9
20260504222528 60 315 0.9 0.9 0.00 0.00 0.00 75 996.9
20260504222457 60 315 0.9 0.9 0.00 0.00 0.00 75 996.9
20260504222427 60 315 0.0 0.0 0.00 0.00 0.00 75 996.9
20260504222358 60 315 0.0 0.0 0.00 0.00 0.00 75 996.9
20260504222327 60 315 0.0 0.0 0.00 0.00 0.00 75 996.9
20260504222257 60 315 0.9 0.9 0.00 0.00 0.00 75 996.9
20260504222227 60 315 1.7 1.7 0.00 0.00 0.00 75 996.9
20260504222157 60 292 0.0 0.0 0.00 0.00 0.00 75 996.9
20260504222127 60 292 0.0 0.0 0.00 0.00 0.00 75 996.9
20260504222057 60 292 0.0 0.0 0.00 0.00 0.00 75 996.9
20260504222048 60 292 0.0 0.0 0.00 0.00 0.00 75 996.9
20260504221958 60 292 0.0 0.0 0.00 0.00 0.00 75 996.9
20260504221927 60 292 0.0 0.0 0.00 0.00 0.00 75 996.9
20260504221858 60 292 0.9 0.9 0.00 0.00 0.00 75 996.9
20260504221827 60 292 0.0 0.0 0.00 0.00 0.00 74 996.9
20260504221757 60 292 0.9 0.9 0.00 0.00 0.00 74 996.9
20260504221727 60 292 0.0 0.0 0.00 0.00 0.00 74 996.9
20260504221657 60 292 0.0 0.0 0.00 0.00 0.00 74 996.9
20260504221627 60 292 0.0 0.0 0.00 0.00 0.00 74 996.9
20260504221557 60 292 0.9 0.9 0.00 0.00 0.00 74 997.0
20260504221548 60 292 0.0 0.0 0.00 0.00 0.00 74 997.0
20260504221525 60 292 0.0 0.0 0.00 0.00 0.00 74 997.0
20260504221427 60 292 0.0 0.0 0.00 0.00 0.00 74 997.0
20260504221357 60 292 0.9 0.9 0.00 0.00 0.00 74 997.0
20260504221327 60 292 0.0 0.0 0.00 0.00 0.00 74 997.0
20260504221257 60 292 0.0 0.0 0.00 0.00 0.00 74 997.0
20260504221227 60 292 0.0 0.0 0.00 0.00 0.00 73 997.0
20260504221157 60 292 0.0 0.0 0.00 0.00 0.00 73 997.0
20260504221127 60 292 0.0 0.0 0.00 0.00 0.00 73 997.0
20260504221057 60 292 0.0 0.0 0.00 0.00 0.00 73 997.0
20260504221027 60 292 0.0 0.0 0.00 0.00 0.00 73 997.0
20260504221018 60 292 0.0 0.0 0.00 0.00 0.00 73 997.0
20260504220948 60 292 0.0 0.0 0.00 0.00 0.00 73 997.0
20260504220857 60 292 0.0 0.0 0.00 0.00 0.00 73 997.0
20260504220827 60 292 0.0 0.0 0.00 0.00 0.00 73 997.0
20260504220757 60 292 0.0 0.0 0.00 0.00 0.00 73 997.0
20260504220727 61 292 0.0 0.0 0.00 0.00 0.00 73 997.0
20260504220657 61 292 0.0 0.0 0.00 0.00 0.00 73 997.0
20260504220627 61 292 0.0 0.0 0.00 0.00 0.00 72 997.0
20260504220557 61 292 0.0 0.0 0.00 0.00 0.00 72 997.0
20260504220527 61 292 0.0 0.0 0.00 0.00 0.00 72 997.0
20260504220457 61 292 1.7 1.7 0.00 0.00 0.00 72 997.0
20260504220427 61 292 0.9 0.9 0.00 0.00 0.00 72 997.0
20260504220357 61 292 0.0 0.0 0.00 0.00 0.00 72 997.0
20260504220327 61 292 1.7 1.7 0.00 0.00 0.00 72 997.0
20260504220257 61 292 0.9 0.9 0.00 0.00 0.00 72 997.0
20260504220227 61 292 1.7 1.7 0.00 0.00 0.00 72 997.0
20260504220157 61 292 0.0 0.0 0.00 0.00 0.00 72 997.0
20260504220127 61 292 1.7 1.7 0.00 0.00 0.00 72 997.0
20260504220057 61 292 0.0 0.0 0.00 0.00 0.00 72 997.0
20260504220028 61 292 0.9 0.9 0.00 0.00 0.00 72 997.0
20260504215957 61 292 1.7 1.7 0.00 0.00 0.00 72 997.0
20260504215927 61 202 0.0 0.0 0.00 0.00 0.00 72 997.0
20260504215857 61 202 0.0 0.0 0.00 0.00 0.00 72 997.0
20260504215827 61 202 0.0 0.0 0.00 0.00 0.00 71 997.0
20260504215757 61 202 0.0 0.0 0.00 0.00 0.00 71 997.0
20260504215727 61 202 0.0 0.0 0.00 0.00 0.00 71 997.0
20260504215657 61 202 0.0 0.0 0.00 0.00 0.00 71 997.0
20260504215648 61 202 1.7 1.7 0.00 0.00 0.00 71 997.0
20260504215557 61 202 0.0 0.0 0.00 0.00 0.00 71 997.1
20260504215527 61 202 0.9 0.9 0.00 0.00 0.00 71 997.1
20260504215457 61 202 0.0 0.0 0.00 0.00 0.00 71 997.1
20260504215427 61 202 0.0 0.0 0.00 0.00 0.00 71 997.1
20260504215357 61 202 0.0 0.0 0.00 0.00 0.00 70 997.1
20260504215327 62 202 0.9 0.9 0.00 0.00 0.00 70 997.1
20260504215257 62 202 0.9 0.9 0.00 0.00 0.00 70 997.1
20260504215248 62 202 0.0 0.0 0.00 0.00 0.00 70 997.1
20260504215157 62 202 0.0 0.0 0.00 0.00 0.00 70 997.1
20260504215127 62 202 0.9 0.9 0.00 0.00 0.00 70 997.1
20260504215057 62 202 1.7 1.7 0.00 0.00 0.00 70 997.3
20260504215027 62 248 1.7 1.7 0.00 0.00 0.00 70 997.3
20260504214957 62 248 1.7 1.7 0.00 0.00 0.00 70 997.3
20260504214927 62 158 1.7 1.7 0.00 0.00 0.00 70 997.3
20260504214857 62 158 1.7 1.7 0.00 0.00 0.00 69 997.3
20260504214827 62 202 0.0 0.0 0.00 0.00 0.00 69 997.3
20260504214757 62 202 1.7 1.7 0.00 0.00 0.00 69 997.3
20260504214727 62 292 0.0 0.0 0.00 0.00 0.00 69 997.3
20260504214657 62 112 0.0 0.0 0.00 0.00 0.00 69 997.3
20260504214627 62 112 1.7 1.7 0.00 0.00 0.00 69 997.3
20260504214557 62 292 0.9 0.9 0.00 0.00 0.00 68 997.4
20260504214527 62 292 0.0 0.0 0.00 0.00 0.00 68 997.4
20260504214457 62 315 0.0 0.0 0.00 0.00 0.00 68 997.4
20260504214427 62 292 0.0 0.0 0.00 0.00 0.00 68 997.4
20260504214357 62 315 1.7 1.7 0.00 0.00 0.00 68 997.4
20260504214327 62 315 1.7 1.7 0.00 0.00 0.00 68 997.4
20260504214318 62 292 1.7 1.7 0.00 0.00 0.00 68 997.4
20260504214227 62 270 1.7 1.7 0.00 0.00 0.00 68 997.4
20260504214157 62 292 0.9 0.9 0.00 0.00 0.00 68 997.4
20260504214127 62 292 1.7 1.7 0.00 0.00 0.00 68 997.4
20260504214057 62 292 1.7 1.7 0.00 0.00 0.00 67 997.4
20260504214027 62 292 1.7 1.7 0.00 0.00 0.00 67 997.4
20260504213957 62 315 0.0 0.0 0.00 0.00 0.00 67 997.4
20260504213948 62 225 1.7 1.7 0.00 0.00 0.00 67 997.4
20260504213857 62 225 2.6 2.6 0.00 0.00 0.00 67 997.4
20260504213827 63 225 2.6 2.6 0.00 0.00 0.00 66 997.4
20260504213757 63 225 1.7 1.7 0.00 0.00 0.00 66 997.4
20260504213727 63 225 3.5 3.5 0.00 0.00 0.00 66 997.4
20260504213657 63 292 0.0 0.0 0.00 0.00 0.00 66 997.4
20260504213627 63 292 1.7 1.7 0.00 0.00 0.00 66 997.4
20260504213557 63 292 1.7 1.7 0.00 0.00 0.00 66 997.4
20260504213527 63 315 1.7 1.7 0.00 0.00 0.00 66 997.4
20260504213457 63 315 1.7 1.7 0.00 0.00 0.00 65 997.4
20260504213448 63 315 1.7 1.7 0.00 0.00 0.00 65 997.4
20260504213357 63 315 2.6 3.5 0.00 0.00 0.00 65 997.4
20260504213348 63 315 2.6 3.5 0.00 0.00 0.00 65 997.4
20260504213257 63 270 1.7 1.7 0.00 0.00 0.00 65 997.4
20260504213227 63 248 2.6 2.6 0.00 0.00 0.00 65 997.4
20260504213157 63 315 0.0 0.0 0.00 0.00 0.00 65 997.4
20260504213148 63 315 1.7 1.7 0.00 0.00 0.00 65 997.4
20260504213057 63 292 1.7 1.7 0.00 0.00 0.00 64 997.3
20260504213027 63 292 0.0 0.0 0.00 0.00 0.00 64 997.3
20260504212957 63 292 0.0 0.0 0.00 0.00 0.00 64 997.3
20260504212927 63 292 0.9 0.9 0.00 0.00 0.00 64 997.3
20260504212857 63 292 0.9 0.9 0.00 0.00 0.00 64 997.3
20260504212827 63 292 1.7 1.7 0.00 0.00 0.00 64 997.3
20260504212757 63 158 0.9 0.9 0.00 0.00 0.00 63 997.3
20260504212727 63 68 1.7 1.7 0.00 0.00 0.00 63 997.3
20260504212657 63 315 1.7 1.7 0.00 0.00 0.00 63 997.3
20260504212627 63 315 0.0 0.0 0.00 0.00 0.00 63 997.3
20260504212557 63 315 1.7 1.7 0.00 0.00 0.00 63 997.4
20260504212527 63 315 0.9 0.9 0.00 0.00 0.00 63 997.4
20260504212458 63 180 0.0 0.0 0.00 0.00 0.00 63 997.4
20260504212427 63 180 0.0 0.0 0.00 0.00 0.00 63 997.4
20260504212357 63 180 0.0 0.0 0.00 0.00 0.00 62 997.4
20260504212327 63 180 0.0 0.0 0.00 0.00 0.00 62 997.4
20260504212318 63 180 1.7 1.7 0.00 0.00 0.00 62 997.4
20260504212227 63 292 1.7 1.7 0.00 0.00 0.00 62 997.4
20260504212157 63 292 1.7 1.7 0.00 0.00 0.00 62 997.4
20260504212127 63 270 1.7 1.7 0.00 0.00 0.00 62 997.4
20260504212057 63 270 0.0 0.0 0.00 0.00 0.00 62 997.3
20260504212027 63 270 0.9 0.9 0.00 0.00 0.00 62 997.3
20260504211957 63 270 0.0 0.0 0.00 0.00 0.00 62 997.3
20260504211927 63 270 0.9 0.9 0.00 0.00 0.00 61 997.3
20260504211857 63 270 2.6 2.6 0.00 0.00 0.00 62 997.3
20260504211827 63 315 1.7 1.7 0.00 0.00 0.00 61 997.3
20260504211757 63 315 1.7 1.7 0.00 0.00 0.00 61 997.3
20260504211727 63 0 1.7 1.7 0.00 0.00 0.00 61 997.3
20260504211657 63 202 1.7 1.7 0.00 0.00 0.00 61 997.3
20260504211627 63 202 1.7 1.7 0.00 0.00 0.00 61 997.3
20260504211618 63 292 0.9 0.9 0.00 0.00 0.00 61 997.4
20260504211527 63 292 2.6 3.5 0.00 0.00 0.00 61 997.4
20260504211457 62 315 1.7 1.7 0.00 0.00 0.00 61 997.4
20260504211357 62 292 1.7 1.7 0.00 0.00 0.00 61 997.4
20260504211328 62 292 2.6 2.6 0.00 0.00 0.00 62 997.4
20260504211257 62 315 1.7 1.7 0.00 0.00 0.00 62 997.4
20260504211227 62 315 2.6 2.6 0.00 0.00 0.00 62 997.4
20260504211157 62 292 2.6 3.5 0.00 0.00 0.00 62 997.4
20260504211127 62 202 0.0 0.0 0.00 0.00 0.00 62 997.4
20260504211057 61 202 0.0 0.0 0.00 0.00 0.00 62 997.0
20260504211048 61 202 0.9 0.9 0.00 0.00 0.00 63 997.0
20260504210957 61 202 0.0 0.0 0.00 0.00 0.00 63 997.0
20260504210927 61 202 0.0 0.0 0.00 0.00 0.00 63 997.0
20260504210918 61 202 1.7 1.7 0.00 0.00 0.00 63 997.0
20260504210827 60 202 0.0 0.0 0.00 0.00 0.00 63 997.0
20260504210818 60 202 1.7 1.7 0.00 0.00 0.00 63 997.0
20260504210748 60 180 0.0 0.0 0.00 0.00 0.00 63 997.0
20260504210657 60 180 1.7 1.7 0.00 0.00 0.00 64 997.0
20260504210627 60 158 2.6 2.6 0.00 0.00 0.00 65 997.0
20260504210619 59 292 1.7 1.7 0.00 0.00 0.00 65 997.0
20260504210527 59 292 1.7 1.7 0.00 0.00 0.00 65 997.0
20260504210457 59 270 1.7 1.7 0.00 0.00 0.00 66 997.0
20260504210427 59 225 1.7 1.7 0.00 0.00 0.00 68 997.0
20260504210357 59 315 4.3 4.3 0.00 0.00 0.00 70 997.0
20260504210327 59 292 1.7 1.7 0.00 0.00 0.00 70 997.0
20260504210318 59 292 1.7 1.7 0.00 0.00 0.00 70 997.0
20260504210227 59 292 1.7 1.7 0.00 0.00 0.00 71 997.0
20260504210157 58 202 2.6 2.6 0.00 0.00 0.00 71 997.0
20260504210127 58 202 0.9 0.9 0.00 0.00 0.00 72 997.0
20260504210057 58 225 1.7 1.7 0.00 0.00 0.00 72 996.8
20260504210028 58 225 1.7 1.7 0.00 0.00 0.00 72 996.8
20260504205957 58 225 1.7 1.7 0.00 0.00 0.00 73 996.8
20260504205927 58 315 1.7 1.7 0.00 0.00 0.00 73 996.8
20260504205857 58 338 0.0 0.0 0.00 0.00 0.00 74 996.8
20260504205827 58 338 0.0 0.0 0.00 0.00 0.00 74 996.8
20260504205757 58 338 0.0 0.0 0.00 0.00 0.00 74 996.8
20260504205727 58 338 1.7 1.7 0.00 0.00 0.00 74 996.8
20260504205657 58 315 1.7 1.7 0.00 0.00 0.00 73 996.8
20260504205648 58 338 1.7 1.7 0.00 0.00 0.00 73 996.8
20260504205557 58 292 0.9 0.9 0.00 0.00 0.00 72 996.6
20260504205527 58 315 1.7 1.7 0.00 0.00 0.00 72 996.6
20260504205457 58 338 0.9 0.9 0.00 0.00 0.00 72 996.6
20260504205448 58 338 0.0 0.0 0.00 0.00 0.00 72 996.6
20260504205357 58 338 0.0 0.0 0.00 0.00 0.00 72 996.6
20260504205327 58 338 0.0 0.0 0.00 0.00 0.00 73 996.6
20260504205257 58 338 0.0 0.0 0.00 0.00 0.00 72 996.6
20260504205227 58 338 0.0 0.0 0.00 0.00 0.00 72 996.6
20260504205157 58 338 0.0 0.0 0.00 0.00 0.00 73 996.6
20260504205127 58 338 0.0 0.0 0.00 0.00 0.00 73 996.6
20260504205057 58 338 0.0 0.0 0.00 0.00 0.00 73 996.6
20260504205027 58 338 0.0 0.0 0.00 0.00 0.00 73 996.6
20260504205018 58 338 0.0 0.0 0.00 0.00 0.00 73 996.6
20260504204927 58 338 0.0 0.0 0.00 0.00 0.00 73 996.6
20260504204918 58 338 0.0 0.0 0.00 0.00 0.00 72 996.6
20260504204827 58 338 0.0 0.0 0.00 0.00 0.00 72 996.6
20260504204757 58 338 0.0 0.0 0.00 0.00 0.00 73 996.6
20260504204727 58 338 0.0 0.0 0.00 0.00 0.00 73 996.6
20260504204657 58 338 0.0 0.0 0.00 0.00 0.00 73 996.6
20260504204627 58 338 0.0 0.0 0.00 0.00 0.00 73 996.6
20260504204619 58 338 0.0 0.0 0.00 0.00 0.00 73 996.3
20260504204527 58 338 0.0 0.0 0.00 0.00 0.00 73 996.3
20260504204457 58 338 0.0 0.0 0.00 0.00 0.00 73 996.3
20260504204427 58 338 0.0 0.0 0.00 0.00 0.00 73 996.3
20260504204358 58 338 0.0 0.0 0.00 0.00 0.00 73 996.3
20260504204327 59 338 0.0 0.0 0.00 0.00 0.00 73 996.3
20260504204257 59 338 0.0 0.0 0.00 0.00 0.00 73 996.3
20260504204227 59 338 0.0 0.0 0.00 0.00 0.00 73 996.3
20260504204157 59 338 0.0 0.0 0.00 0.00 0.00 72 996.3
20260504204127 59 338 0.0 0.0 0.00 0.00 0.00 72 996.3
20260504204057 59 338 0.0 0.0 0.00 0.00 0.00 73 996.7
20260504204048 59 338 0.0 0.0 0.00 0.00 0.00 72 996.7
20260504203957 59 338 0.0 0.0 0.00 0.00 0.00 72 996.7
20260504203927 59 338 0.0 0.0 0.00 0.00 0.00 72 996.7
20260504203857 59 338 0.0 0.0 0.00 0.00 0.00 72 996.7
20260504203827 59 338 0.0 0.0 0.00 0.00 0.00 72 996.7
20260504203757 59 338 0.0 0.0 0.00 0.00 0.00 72 996.7
20260504203727 59 338 0.0 0.0 0.00 0.00 0.00 72 996.7
20260504203657 59 338 0.0 0.0 0.00 0.00 0.00 72 996.7
20260504203627 59 338 0.0 0.0 0.00 0.00 0.00 71 996.7
20260504203557 59 338 0.0 0.0 0.00 0.00 0.00 71 996.3
20260504203527 59 338 0.0 0.0 0.00 0.00 0.00 71 996.3
20260504203457 59 338 0.0 0.0 0.00 0.00 0.00 71 996.3
20260504203427 59 338 0.0 0.0 0.00 0.00 0.00 71 996.3
20260504203357 59 338 0.0 0.0 0.00 0.00 0.00 71 996.3
20260504203327 59 338 0.0 0.0 0.00 0.00 0.00 71 996.3
20260504203318 59 338 0.0 0.0 0.00 0.00 0.00 71 996.3
20260504203227 59 338 0.0 0.0 0.00 0.00 0.00 71 996.3
20260504203157 59 338 0.0 0.0 0.00 0.00 0.00 70 996.3
20260504203127 59 338 0.0 0.0 0.00 0.00 0.00 70 996.3
20260504203057 59 338 0.0 0.0 0.00 0.00 0.00 70 996.4
20260504203027 59 338 0.0 0.0 0.00 0.00 0.00 70 996.4
20260504203018 59 338 0.0 0.0 0.00 0.00 0.00 70 996.4
20260504202927 59 338 0.0 0.0 0.00 0.00 0.00 70 996.4
20260504202919 59 338 0.0 0.0 0.00 0.00 0.00 70 996.4
20260504202827 59 338 0.0 0.0 0.00 0.00 0.00 71 996.4
20260504202757 59 338 0.0 0.0 0.00 0.00 0.00 71 996.4
20260504202727 59 338 0.0 0.0 0.00 0.00 0.00 70 996.4
20260504202657 60 338 0.0 0.0 0.00 0.00 0.00 70 996.4
20260504202627 60 338 0.0 0.0 0.00 0.00 0.00 70 996.4
20260504202557 60 338 0.0 0.0 0.00 0.00 0.00 70 996.4
20260504202527 60 338 0.0 0.0 0.00 0.00 0.00 70 996.4
20260504202501 60 338 0.0 0.0 0.00 0.00 0.00 70 996.4
20260504202427 60 338 0.0 0.0 0.00 0.00 0.00 70 996.4
20260504202419 60 338 0.0 0.0 0.00 0.00 0.00 69 996.4
20260504202327 60 338 0.0 0.0 0.00 0.00 0.00 69 996.4
20260504202257 60 338 0.0 0.0 0.00 0.00 0.00 69 996.4
20260504202227 60 338 0.0 0.0 0.00 0.00 0.00 69 996.4
20260504202157 60 338 0.0 0.0 0.00 0.00 0.00 69 996.4
20260504202127 60 338 0.0 0.0 0.00 0.00 0.00 69 996.4
20260504202057 60 338 0.0 0.0 0.00 0.00 0.00 70 996.3
20260504202028 60 338 0.0 0.0 0.00 0.00 0.00 69 996.3
20260504201957 60 338 0.0 0.0 0.00 0.00 0.00 69 996.3
20260504201927 60 338 0.0 0.0 0.00 0.00 0.00 69 996.3
20260504201857 60 338 0.0 0.0 0.00 0.00 0.00 69 996.3
20260504201827 60 338 0.0 0.0 0.00 0.00 0.00 70 996.3
20260504201818 60 338 0.0 0.0 0.00 0.00 0.00 70 996.3
20260504201727 60 338 0.0 0.0 0.00 0.00 0.00 70 996.3
20260504201657 60 338 0.0 0.0 0.00 0.00 0.00 70 996.3
20260504201627 60 338 0.0 0.0 0.00 0.00 0.00 70 996.3
20260504201557 60 338 0.0 0.0 0.00 0.00 0.00 70 996.2
20260504201525 60 338 0.0 0.0 0.00 0.00 0.00 70 996.2
20260504201427 60 338 0.0 0.0 0.00 0.00 0.00 70 996.2
20260504201418 60 338 0.0 0.0 0.00 0.00 0.00 70 996.2
20260504201327 60 338 0.0 0.0 0.00 0.00 0.00 70 996.2
20260504201257 60 338 0.0 0.0 0.00 0.00 0.00 70 996.2
20260504201227 60 338 0.0 0.0 0.00 0.00 0.00 70 996.2
20260504201157 60 338 0.0 0.0 0.00 0.00 0.00 71 996.2
20260504201127 60 338 0.0 0.0 0.00 0.00 0.00 71 996.2
20260504201057 60 338 0.0 0.0 0.00 0.00 0.00 70 996.2
20260504201048 60 338 0.0 0.0 0.00 0.00 0.00 70 996.2
20260504200957 60 338 0.0 0.0 0.00 0.00 0.00 70 996.2
20260504200927 60 338 0.0 0.0 0.00 0.00 0.00 69 996.2
20260504200857 60 338 0.0 0.0 0.00 0.00 0.00 69 996.2
20260504200827 60 338 0.0 0.0 0.00 0.00 0.00 69 996.2
20260504200757 60 338 0.0 0.0 0.00 0.00 0.00 69 996.2
20260504200727 60 338 0.0 0.0 0.00 0.00 0.00 69 996.2
20260504200657 60 338 0.0 0.0 0.00 0.00 0.00 69 996.2
20260504200627 60 338 0.0 0.0 0.00 0.00 0.00 69 996.2
20260504200557 60 338 0.0 0.0 0.00 0.00 0.00 69 996.4
20260504200527 60 338 0.0 0.0 0.00 0.00 0.00 69 996.4
20260504200457 60 338 0.0 0.0 0.00 0.00 0.00 68 996.4
20260504200427 60 338 0.0 0.0 0.00 0.00 0.00 68 996.4
20260504200357 60 338 0.0 0.0 0.00 0.00 0.00 68 996.4
20260504200327 60 338 0.0 0.0 0.00 0.00 0.00 68 996.4
20260504200257 61 338 0.0 0.0 0.00 0.00 0.00 68 996.4
20260504200227 61 338 0.0 0.0 0.00 0.00 0.00 68 996.4
20260504200157 61 338 0.0 0.0 0.00 0.00 0.00 67 996.4
20260504200127 61 338 0.0 0.0 0.00 0.00 0.00 67 996.4
20260504200057 61 338 0.0 0.0 0.00 0.00 0.00 67 996.3
20260504200027 61 338 0.0 0.0 0.00 0.00 0.00 67 996.3
20260504195957 61 338 0.0 0.0 0.00 0.00 0.00 67 996.3
20260504195927 61 338 0.0 0.0 0.00 0.00 0.00 67 996.3
20260504195857 61 338 0.0 0.0 0.00 0.00 0.00 68 996.3
20260504195827 61 338 0.0 0.0 0.00 0.00 0.00 68 996.3
20260504195818 61 338 0.0 0.0 0.00 0.00 0.00 68 996.3
20260504195727 61 338 0.0 0.0 0.00 0.00 0.00 67 996.3
20260504195657 61 338 0.0 0.0 0.00 0.00 0.00 67 996.3
20260504195627 61 338 0.0 0.0 0.00 0.00 0.00 67 996.3
20260504195557 61 338 0.0 0.0 0.00 0.00 0.00 67 996.2
20260504195527 61 338 0.0 0.0 0.00 0.00 0.00 67 996.2
20260504195457 61 338 0.0 0.0 0.00 0.00 0.00 67 996.2
20260504195427 61 338 0.0 0.0 0.00 0.00 0.00 66 996.2
20260504195357 61 338 0.0 0.0 0.00 0.00 0.00 66 996.2
20260504195327 61 338 0.0 0.0 0.00 0.00 0.00 66 996.2
20260504195257 61 338 0.0 0.0 0.00 0.00 0.00 67 996.2
20260504195227 61 338 0.0 0.0 0.00 0.00 0.00 66 996.2
20260504195218 61 338 0.0 0.0 0.00 0.00 0.00 67 996.2
20260504195127 61 338 0.0 0.0 0.00 0.00 0.00 67 996.2
20260504195057 61 338 0.0 0.0 0.00 0.00 0.00 67 996.2
20260504195027 61 338 0.0 0.0 0.00 0.00 0.00 67 996.2
20260504194957 61 338 0.0 0.0 0.00 0.00 0.00 67 996.2
20260504194948 61 338 0.0 0.0 0.00 0.00 0.00 67 996.2
20260504194857 61 338 0.0 0.0 0.00 0.00 0.00 67 996.2
20260504194827 62 338 0.0 0.0 0.00 0.00 0.00 66 996.2
20260504194757 62 338 0.0 0.0 0.00 0.00 0.00 66 996.2
20260504194727 62 338 0.0 0.0 0.00 0.00 0.00 66 996.2
20260504194657 62 338 0.0 0.0 0.00 0.00 0.00 66 996.2
20260504194627 62 338 0.0 0.0 0.00 0.00 0.00 65 996.2
20260504194557 62 338 0.0 0.0 0.00 0.00 0.00 66 996.3
20260504194527 62 338 0.0 0.0 0.00 0.00 0.00 65 996.3
20260504194457 62 338 0.0 0.0 0.00 0.00 0.00 65 996.3
20260504194427 62 338 0.0 0.0 0.00 0.00 0.00 65 996.3
20260504194357 62 338 0.0 0.0 0.00 0.00 0.00 65 996.3
20260504194327 62 338 0.0 0.0 0.00 0.00 0.00 64 996.3
20260504194257 62 338 0.0 0.0 0.00 0.00 0.00 64 996.3
20260504194227 62 338 0.0 0.0 0.00 0.00 0.00 65 996.3
20260504194157 62 338 0.0 0.0 0.00 0.00 0.00 65 996.3
20260504194127 62 338 0.0 0.0 0.00 0.00 0.00 65 996.3
20260504194058 62 338 0.0 0.0 0.00 0.00 0.00 65 996.3
20260504194028 62 338 0.0 0.0 0.00 0.00 0.00 65 996.3
20260504193957 62 338 0.0 0.0 0.00 0.00 0.00 65 996.3
20260504193948 62 338 0.0 0.0 0.00 0.00 0.00 65 996.3
20260504193857 62 338 0.0 0.0 0.00 0.00 0.00 64 996.3
20260504193848 62 338 0.0 0.0 0.00 0.00 0.00 64 996.3
20260504193757 62 338 0.0 0.0 0.00 0.00 0.00 64 996.3
20260504193727 62 338 0.0 0.0 0.00 0.00 0.00 64 996.3
20260504193657 62 338 0.0 0.0 0.00 0.00 0.00 65 996.3
20260504193627 62 338 0.0 0.0 0.00 0.00 0.00 65 996.3
20260504193557 62 338 0.0 0.0 0.00 0.00 0.00 65 996.3
20260504193527 62 338 0.0 0.0 0.00 0.00 0.00 65 996.3
20260504193457 62 338 0.0 0.0 0.00 0.00 0.00 65 996.3
20260504193427 63 338 0.0 0.0 0.00 0.00 0.00 64 996.3
20260504193357 63 338 0.0 0.0 0.00 0.00 0.00 64 996.3
20260504193327 63 338 0.0 0.0 0.00 0.00 0.00 64 996.3
20260504193257 63 338 0.0 0.0 0.00 0.00 0.00 64 996.3
20260504193227 63 338 0.0 0.0 0.00 0.00 0.00 64 996.3
20260504193157 63 338 0.0 0.0 0.00 0.00 0.00 64 996.3
20260504193127 63 338 0.0 0.0 0.00 0.00 0.00 64 996.3
20260504193057 63 338 0.0 0.0 0.00 0.00 0.00 65 996.4
20260504193027 63 338 0.0 0.0 0.00 0.00 0.00 65 996.4
20260504192957 63 338 0.0 0.0 0.00 0.00 0.00 64 996.4
20260504192927 63 338 0.0 0.0 0.00 0.00 0.00 64 996.4
20260504192857 63 338 0.0 0.0 0.00 0.00 0.00 64 996.4
20260504192848 63 338 0.0 0.0 0.00 0.00 0.00 63 996.4
20260504192818 64 338 0.0 0.0 0.00 0.00 0.00 62 996.4
20260504192727 64 338 0.0 0.0 0.00 0.00 0.00 62 996.4
20260504192657 64 338 0.0 0.0 0.00 0.00 0.00 62 996.4
20260504192648 64 338 0.0 0.0 0.00 0.00 0.00 62 996.4
20260504192557 64 338 0.0 0.0 0.00 0.00 0.00 61 996.4
20260504192528 64 338 0.0 0.0 0.00 0.00 0.00 61 996.4
20260504192457 64 338 0.0 0.0 0.00 0.00 0.00 61 996.4
20260504192427 64 338 0.0 0.0 0.00 0.00 0.00 61 996.4
20260504192357 64 338 0.0 0.0 0.00 0.00 0.00 61 996.4
20260504192327 64 338 0.0 0.0 0.00 0.00 0.00 61 996.4
20260504192258 64 338 0.0 0.0 0.00 0.00 0.00 61 996.4
20260504192227 64 338 0.0 0.0 0.00 0.00 0.00 62 996.4
20260504192157 64 338 0.0 0.0 0.00 0.00 0.00 61 996.4
20260504192127 64 338 0.0 0.0 0.00 0.00 0.00 61 996.4
20260504192057 64 338 0.0 0.0 0.00 0.00 0.00 61 996.1
20260504192027 64 338 0.0 0.0 0.00 0.00 0.00 63 996.1
20260504191957 64 338 0.0 0.0 0.00 0.00 0.00 63 996.1
20260504191927 64 338 0.0 0.0 0.00 0.00 0.00 61 996.1
20260504191857 64 338 0.0 0.0 0.00 0.00 0.00 61 996.1
20260504191827 64 338 0.0 0.0 0.00 0.00 0.00 61 996.1
20260504191757 64 338 0.0 0.0 0.00 0.00 0.00 61 996.1
20260504191748 64 338 0.0 0.0 0.00 0.00 0.00 62 996.1
20260504191657 64 338 0.0 0.0 0.00 0.00 0.00 62 996.1
20260504191648 64 338 0.0 0.0 0.00 0.00 0.00 61 996.1
20260504191557 64 338 0.0 0.0 0.00 0.00 0.00 61 996.2
20260504191527 64 338 0.0 0.0 0.00 0.00 0.00 62 996.2
20260504191457 64 338 0.0 0.0 0.00 0.00 0.00 62 996.2
20260504191448 64 338 0.0 0.0 0.00 0.00 0.00 62 996.2
20260504191357 64 338 0.0 0.0 0.00 0.00 0.00 61 996.2
20260504191326 64 338 0.0 0.0 0.00 0.00 0.00 61 996.2
20260504191257 64 338 0.0 0.0 0.00 0.00 0.00 61 996.2
20260504191227 64 338 0.0 0.0 0.00 0.00 0.00 61 996.2
20260504191218 64 338 0.0 0.0 0.00 0.00 0.00 61 996.2
20260504191127 64 338 0.0 0.0 0.00 0.00 0.00 60 996.2
20260504191057 64 338 0.0 0.0 0.00 0.00 0.00 60 996.1
20260504191027 64 338 0.0 0.0 0.00 0.00 0.00 60 996.1
20260504190957 64 338 0.0 0.0 0.00 0.00 0.00 62 996.1
20260504190927 65 338 0.0 0.0 0.00 0.00 0.00 62 996.1
20260504190857 65 338 0.0 0.0 0.00 0.00 0.00 62 996.1
20260504190827 65 338 0.0 0.0 0.00 0.00 0.00 61 996.1
20260504190818 65 338 0.0 0.0 0.00 0.00 0.00 61 996.1
20260504190727 65 338 0.0 0.0 0.00 0.00 0.00 61 996.1
20260504190657 65 338 0.0 0.0 0.00 0.00 0.00 61 996.1
20260504190627 65 338 0.0 0.0 0.00 0.00 0.00 61 996.1
20260504190618 65 338 0.0 0.0 0.00 0.00 0.00 61 996.1
20260504190527 65 338 0.0 0.0 0.00 0.00 0.00 61 996.1
20260504190457 65 338 0.0 0.0 0.00 0.00 0.00 61 996.1
20260504190427 65 338 0.0 0.0 0.00 0.00 0.00 61 996.1
20260504190357 65 338 0.0 0.0 0.00 0.00 0.00 60 996.1
20260504190327 65 338 0.0 0.0 0.00 0.00 0.00 60 996.1
20260504190257 65 338 0.9 0.9 0.00 0.00 0.00 59 996.1
20260504190227 65 338 0.0 0.0 0.00 0.00 0.00 60 996.1
20260504190157 65 338 0.0 0.0 0.00 0.00 0.00 61 996.1
20260504190127 65 338 0.0 0.0 0.00 0.00 0.00 60 996.1
20260504190059 65 338 0.0 0.0 0.00 0.00 0.00 60 996.2
20260504190027 65 338 0.0 0.0 0.00 0.00 0.00 61 996.2
20260504185957 65 338 0.0 0.0 0.00 0.00 0.00 59 996.2
20260504185927 65 338 0.0 0.0 0.00 0.00 0.00 58 996.2
20260504185856 65 338 0.0 0.0 0.00 0.00 0.00 61 996.2
20260504185827 65 338 0.0 0.0 0.00 0.00 0.00 61 996.2
20260504185757 65 338 0.0 0.0 0.00 0.00 0.00 61 996.2
20260504185727 65 338 0.0 0.0 0.00 0.00 0.00 61 996.2
20260504185657 65 338 0.0 0.0 0.00 0.00 0.00 60 996.2
20260504185627 65 338 0.0 0.0 0.00 0.00 0.00 60 996.2
20260504185557 66 338 0.0 0.0 0.00 0.00 0.00 60 996.1
20260504185527 66 338 0.0 0.0 0.00 0.00 0.00 60 996.1
20260504185457 66 338 0.0 0.0 0.00 0.00 0.00 61 996.1
20260504185427 66 338 0.0 0.0 0.00 0.00 0.00 60 996.1
20260504185357 66 338 0.0 0.0 0.00 0.00 0.00 59 996.1
20260504185327 66 338 0.0 0.0 0.00 0.00 0.00 60 996.1
20260504185256 66 338 0.0 0.0 0.00 0.00 0.00 60 996.1
20260504185227 66 338 0.0 0.0 0.00 0.00 0.00 60 996.1
20260504185156 66 338 0.0 0.0 0.00 0.00 0.00 60 996.1
20260504185127 66 338 0.0 0.0 0.00 0.00 0.00 61 996.1
20260504185057 66 338 0.0 0.0 0.00 0.00 0.00 60 996.2
20260504185027 66 338 0.0 0.0 0.00 0.00 0.00 60 996.2
20260504185017 66 338 0.0 0.0 0.00 0.00 0.00 59 996.2
20260504184926 66 338 0.0 0.0 0.00 0.00 0.00 59 996.2
20260504184857 66 338 0.0 0.0 0.00 0.00 0.00 59 996.2
20260504184827 66 338 0.0 0.0 0.00 0.00 0.00 59 996.2
20260504184757 66 338 0.0 0.0 0.00 0.00 0.00 59 996.2
20260504184727 66 338 0.0 0.0 0.00 0.00 0.00 58 996.2
20260504184657 66 338 0.0 0.0 0.00 0.00 0.00 60 996.2
20260504184627 66 338 0.0 0.0 0.00 0.00 0.00 60 996.2
20260504184557 66 338 0.0 0.0 0.00 0.00 0.00 60 996.1
20260504184526 66 338 0.0 0.0 0.00 0.00 0.00 60 996.1
20260504184457 66 338 0.0 0.0 0.00 0.00 0.00 58 996.1
20260504184427 66 338 0.0 0.0 0.00 0.00 0.00 58 996.1
20260504184418 66 338 0.0 0.0 0.00 0.00 0.00 59 996.1
20260504184326 66 338 0.0 0.0 0.00 0.00 0.00 60 996.1
20260504184318 66 338 0.0 0.0 0.00 0.00 0.00 60 996.1
20260504184227 66 338 0.0 0.0 0.00 0.00 0.00 59 996.1
20260504184157 66 338 0.0 0.0 0.00 0.00 0.00 61 996.1
20260504184127 66 338 0.0 0.0 0.00 0.00 0.00 61 996.1
20260504184056 66 338 0.0 0.0 0.00 0.00 0.00 60 996.1
20260504184027 66 338 0.0 0.0 0.00 0.00 0.00 59 996.1
20260504183957 66 338 0.0 0.0 0.00 0.00 0.00 59 996.1
20260504183927 66 338 0.0 0.0 0.00 0.00 0.00 60 996.1
20260504183857 66 338 0.0 0.0 0.00 0.00 0.00 60 996.1
20260504183826 66 338 0.0 0.0 0.00 0.00 0.00 60 996.1
20260504183757 66 338 0.0 0.0 0.00 0.00 0.00 60 996.1
20260504183727 67 338 0.0 0.0 0.00 0.00 0.00 59 996.1
20260504183656 67 338 0.0 0.0 0.00 0.00 0.00 59 996.1
20260504183627 67 338 0.0 0.0 0.00 0.00 0.00 59 996.1
20260504183557 67 338 0.0 0.0 0.00 0.00 0.00 59 996.1
20260504183527 67 338 0.0 0.0 0.00 0.00 0.00 59 996.1
20260504183457 67 338 0.0 0.0 0.00 0.00 0.00 59 996.1
20260504183426 67 338 0.0 0.0 0.00 0.00 0.00 59 996.1
20260504183358 67 338 0.0 0.0 0.00 0.00 0.00 58 996.1
20260504183348 67 338 0.0 0.0 0.00 0.00 0.00 59 996.1
20260504183256 67 338 0.0 0.0 0.00 0.00 0.00 59 996.1
20260504183227 67 338 0.0 0.0 0.00 0.00 0.00 59 996.1
20260504183157 67 338 0.0 0.0 0.00 0.00 0.00 59 996.1
20260504183130 67 338 0.0 0.0 0.00 0.00 0.00 59 996.1
20260504183057 67 338 0.0 0.0 0.00 0.00 0.00 60 996.0
20260504183028 67 338 0.0 0.0 0.00 0.00 0.00 59 996.0
20260504182956 67 338 0.0 0.0 0.00 0.00 0.00 58 996.0
20260504182927 67 338 0.0 0.0 0.00 0.00 0.00 59 996.0
20260504182856 67 338 0.0 0.0 0.00 0.00 0.00 59 996.0
20260504182847 67 338 0.0 0.0 0.00 0.00 0.00 59 996.0
20260504182756 67 338 0.0 0.0 0.00 0.00 0.00 59 996.0
20260504182727 67 338 0.0 0.0 0.00 0.00 0.00 59 996.0
20260504182657 67 338 0.0 0.0 0.00 0.00 0.00 59 996.0
20260504182627 67 338 0.0 0.0 0.00 0.00 0.00 58 996.0
20260504182557 67 338 0.0 0.0 0.00 0.00 0.00 58 996.0
20260504182527 67 338 0.0 0.0 0.00 0.00 0.00 58 996.0
20260504182518 67 338 0.0 0.0 0.00 0.00 0.00 58 996.0
20260504182427 67 338 0.0 0.0 0.00 0.00 0.00 57 996.0
20260504182418 68 338 0.0 0.0 0.00 0.00 0.00 57 996.0
20260504182326 68 338 0.0 0.0 0.00 0.00 0.00 58 996.0
20260504182256 68 338 0.0 0.0 0.00 0.00 0.00 58 996.0
20260504182227 68 338 0.0 0.0 0.00 0.00 0.00 57 996.0
20260504182156 68 338 0.0 0.0 0.00 0.00 0.00 57 996.0
20260504182127 68 338 0.0 0.0 0.00 0.00 0.00 58 996.0
20260504182117 68 338 0.0 0.0 0.00 0.00 0.00 57 996.2
20260504182026 68 338 0.0 0.0 0.00 0.00 0.00 59 996.2
20260504181957 68 338 0.0 0.0 0.00 0.00 0.00 58 996.2
20260504181926 68 338 0.0 0.0 0.00 0.00 0.00 58 996.2
20260504181857 68 338 0.0 0.0 0.00 0.00 0.00 57 996.2
20260504181848 68 338 0.0 0.0 0.00 0.00 0.00 58 996.2
20260504181818 68 338 0.0 0.0 0.00 0.00 0.00 58 996.2
20260504181727 68 338 0.0 0.0 0.00 0.00 0.00 57 996.2
20260504181657 68 338 0.0 0.0 0.00 0.00 0.00 57 996.2
20260504181627 68 338 0.0 0.0 0.00 0.00 0.00 57 996.2
20260504181557 68 338 0.0 0.0 0.00 0.00 0.00 58 995.9
20260504181526 68 338 0.0 0.0 0.00 0.00 0.00 58 995.9
20260504181427 69 338 0.0 0.0 0.00 0.00 0.00 57 995.9
20260504181357 69 338 0.0 0.0 0.00 0.00 0.00 56 995.9
20260504181327 69 338 0.0 0.0 0.00 0.00 0.00 56 995.9
20260504181256 69 338 0.0 0.0 0.00 0.00 0.00 55 995.9
20260504181227 69 338 0.0 0.0 0.00 0.00 0.00 55 995.9
20260504181157 69 338 0.0 0.0 0.00 0.00 0.00 55 995.9
20260504181127 69 338 0.0 0.0 0.00 0.00 0.00 56 995.9
20260504181056 69 338 0.0 0.0 0.00 0.00 0.00 55 996.0
20260504181029 69 338 0.0 0.0 0.00 0.00 0.00 55 996.0
20260504180956 69 338 0.0 0.0 0.00 0.00 0.00 55 996.0
20260504180927 69 338 0.0 0.0 0.00 0.00 0.00 55 996.0
20260504180917 69 338 0.0 0.0 0.00 0.00 0.00 55 996.0
20260504180827 69 338 0.0 0.0 0.00 0.00 0.00 56 996.0
20260504180757 69 338 0.0 0.0 0.00 0.00 0.00 56 996.0
20260504180726 69 338 0.0 0.0 0.00 0.00 0.00 56 996.0
20260504180656 69 338 0.0 0.0 0.00 0.00 0.00 56 996.0
20260504180627 69 338 0.0 0.0 0.00 0.00 0.00 56 996.0
20260504180556 69 338 0.0 0.0 0.00 0.00 0.00 56 996.0
20260504180527 70 338 0.0 0.0 0.00 0.00 0.00 56 996.0
20260504180518 70 338 0.0 0.0 0.00 0.00 0.00 56 996.0
20260504180427 70 338 0.0 0.0 0.00 0.00 0.00 55 996.0
20260504180357 70 338 0.0 0.0 0.00 0.00 0.00 55 996.0
20260504180326 70 338 0.0 0.0 0.00 0.00 0.00 55 996.0
20260504180317 71 338 0.0 0.0 0.00 0.00 0.00 53 996.0
20260504180227 71 338 0.0 0.0 0.00 0.00 0.00 53 996.0
20260504180157 71 338 0.0 0.0 0.00 0.00 0.00 54 996.0
20260504180127 71 338 0.0 0.0 0.00 0.00 0.00 53 996.0
20260504180057 71 338 0.0 0.0 0.00 0.00 0.00 53 996.1
20260504180029 71 338 0.0 0.0 0.00 0.00 0.00 53 996.1
20260504175957 71 338 0.0 0.0 0.00 0.00 0.00 52 996.1
20260504175948 71 338 0.0 0.0 0.00 0.00 0.00 51 996.1
20260504175857 71 338 0.0 0.0 0.00 0.00 0.00 51 996.1
20260504175827 71 338 0.0 0.0 0.00 0.00 0.00 51 996.1
20260504175757 71 338 0.0 0.0 0.00 0.00 0.00 51 996.1
20260504175726 71 338 0.0 0.0 0.00 0.00 0.00 51 996.1
20260504175657 71 338 0.0 0.0 0.00 0.00 0.00 51 996.1
20260504175626 71 338 0.0 0.0 0.00 0.00 0.00 51 996.1
20260504175557 71 338 0.0 0.0 0.00 0.00 0.00 51 996.0
20260504175527 71 338 0.0 0.0 0.00 0.00 0.00 50 996.0
20260504175457 71 338 0.0 0.0 0.00 0.00 0.00 50 996.0
20260504175447 71 338 0.0 0.0 0.00 0.00 0.00 48 996.0
20260504175357 71 338 0.0 0.0 0.00 0.00 0.00 49 996.0
20260504175327 72 338 0.0 0.0 0.00 0.00 0.00 49 996.0
20260504175257 72 338 0.0 0.0 0.00 0.00 0.00 48 996.0
20260504175227 72 338 0.0 0.0 0.00 0.00 0.00 49 996.0
20260504175218 72 338 0.0 0.0 0.00 0.00 0.00 49 996.0
20260504175126 72 338 0.0 0.0 0.00 0.00 0.00 48 996.0
20260504175057 72 338 0.0 0.0 0.00 0.00 0.00 47 995.9
20260504175027 72 338 0.0 0.0 0.00 0.00 0.00 47 995.9
20260504174957 72 338 0.0 0.0 0.00 0.00 0.00 47 995.9
20260504174926 72 338 0.0 0.0 0.00 0.00 0.00 47 995.9
20260504174857 72 338 0.0 0.0 0.00 0.00 0.00 46 995.9
20260504174827 73 338 0.0 0.0 0.00 0.00 0.00 47 995.9
20260504174756 73 338 0.0 0.0 0.00 0.00 0.00 47 995.9
20260504174726 73 338 0.0 0.0 0.00 0.00 0.00 47 995.9
20260504174657 73 338 0.0 0.0 0.00 0.00 0.00 47 995.9
20260504174626 73 338 0.0 0.0 0.00 0.00 0.00 44 995.9
20260504174557 73 338 0.0 0.0 0.00 0.00 0.00 45 996.0
20260504174527 73 338 0.0 0.0 0.00 0.00 0.00 45 996.0
20260504174456 73 338 0.0 0.0 0.00 0.00 0.00 46 996.0
20260504174427 73 338 0.0 0.0 0.00 0.00 0.00 46 996.0
20260504174357 73 338 0.0 0.0 0.00 0.00 0.00 44 996.0
20260504174326 73 338 0.0 0.0 0.00 0.00 0.00 44 996.0
20260504174257 73 338 0.0 0.0 0.00 0.00 0.00 44 996.0
20260504174226 73 338 0.0 0.0 0.00 0.00 0.00 44 996.0